     2.11           OBSERVATION DATA    G (GPS)             RINEX VERSION / TYPE
teqc 2010Oct21 OPUS Account 20111028 20:38:18UTC            PGM / RUN BY / DATE
F 1528                                                      MARKER NAME
3090                                                        MARKER NUMBER
CSMIDDLETON NGS                                             OBSERVER / AGENCY
4624K01583 TRIMBLE NETR5 4.41                               REC # / TYPE / VERS
60154430 TRM41249.00 NONE                                   ANT # / TYPE
  -696230.9571 -5592281.3357  2976964.2595                  APPROX POSITION XYZ
        2.0000        0.0000        0.0000                  ANTENNA: DELTA H/E/N
     1     1                                                WAVELENGTH FACT L1/2
     5    L1    L2    C1    P1    P2                        # / TYPES OF OBSERV
    15                                                      LEAP SECONDS
  2011     8    27     0     0    0.0000000     GPS         TIME OF FIRST OBS
                                                            END OF HEADER
 11  8 27  0  0  0.0000000  0  9G10G12G17G04G05G09G25G02G30
 109719018.39218  85495483.54356  20878811.875                    20878820.602
 112037086.34018  87301699.78117  21319946.297                    21319954.691
 122526736.03817  95475459.67316  23316066.289                    23316076.363
 115280639.14418  89829192.67855  21937151.531                    21937160.703
 113941171.52818  88785425.78217  21682262.734                    21682272.609
 125720945.60417  97964439.52053  23923912.961                    23923927.176
 125574581.86917  97850348.76716  23896045.906                    23896058.871
 108564913.59818  84596171.65756  20659185.977                    20659192.430
 126411345.01216  98502430.04554  24055288.531                    24055299.180
 11  8 27  0  0 30.0000000  0  9G10G12G17G04G05G09G25G02G30
 109731054.967 8  85504862.71946  20881102.133                    20881111.332
 111983030.016 8  87259577.992 7  21309660.063                    21309668.273
 122580906.465 7  95517670.311 6  23326373.820                    23326383.953
 115358626.497 8  89889962.02345  21951991.883                    21952001.512
 113857045.905 8  88719873.456 7  21666254.188                    21666264.332
 125800239.318 7  98026226.66343  23939002.109                    23939016.492
 125477940.433 7  97775043.789 6  23877656.133                    23877668.453
 108568643.600 8  84599078.17946  20659895.438                    20659902.254
 126311841.479 7  98424894.93743  24036353.313                    24036363.945
 11  8 27  0  1  0.0000000  0  9G10G12G17G04G05G09G25G02G30
 109743720.735 8  85514732.16746  20883512.211                    20883521.254
 111929435.434 8  87217816.009 7  21299461.336                    21299469.262
 122635245.934 7  95560012.660 6  23336714.344                    23336725.082
 115436713.915 8  89950809.34645  21966851.398                    21966860.895
 113773274.598 8  88654597.225 7  21650312.703                    21650322.813
 125879642.796 7  98088099.33244  23954112.477                    23954126.160
 125381512.920 7  97699905.521 6  23859306.211                    23859319.293
 108572636.358 8  84602189.43746  20660655.633                    20660662.094
 126212590.599 6  98347556.67343  24017466.234                    24017477.102
 11  8 27  0  1 30.0000000  0  9G10G12G17G04G05G09G25G02G30
 109757015.512 8  85525091.75746  20886042.594                    20886051.496
 111876304.957 8  87176415.669 7  21289350.875                    21289359.211
 122689755.208 7  95602487.328 6  23347087.578                    23347098.750
 115514899.954 8  90011733.51645  21981729.609                    21981739.570
 113689860.660 8  88589599.466 7  21634439.383                    21634449.434
 125959152.687 7  98150054.92843  23969242.672                    23969256.895
 125285302.333 7  97624936.274 6  23840998.008                    23841010.941
 108576891.042 8  84605504.79546  20661465.281                    20661471.918
 126113595.521 6  98270417.76243  23998628.586                    23998639.027
 11  8 27  0  2  0.0000000  0  9G10G12G17G04G05G09G25G02G30
 109770939.025 8  85535941.26946  20888691.836                    20888700.793
 111823640.639 8  87135378.567 7  21279329.227                    21279337.543
 122744434.351 7  95645094.381 6  23357492.547                    23357503.648
 115593182.709 8  90072733.03945  21996626.242                    21996636.328
 113606806.494 7  88524882.036 7  21618634.711                    21618644.488
 126038765.970 7  98212091.10343  23984392.398                    23984406.738
 125189311.184 7  97550138.033 6  23822731.563                    23822744.227
 108581406.226 8  84609023.14546  20662324.180                    20662330.844
 126014858.865 6  98193480.19443  23979839.164                    23979849.992
 11  8 27  0  2 30.0000000  0  9G10G12G17G04G05G09G25G02G30
 109785490.765 8  85547280.31446  20891460.930                    20891469.832
 111771444.889 8  87094706.577 7  21269396.508                    21269404.656
 122799284.364 7  95687834.546 6  23367929.961                    23367941.063
 115671560.323 8  90133806.49645  22011541.109                    22011550.957
 113524115.039 8  88460447.247 7  21602899.016                    21602909.047
 126118479.101 7  98274205.08643  23999562.203                    23999575.641
 125093542.169 7  97475512.867 6  23804507.211                    23804519.473
 108586181.065 8  84612743.81646  20663232.898                    20663239.512
 125916383.519 6  98116746.21843  23961100.320                    23961110.273
 11  8 27  0  3  0.0000000  0  9G10G12G17G04G05G09G25G02G30
 109800670.115 8  85559108.40146  20894349.219                    20894358.184
 111719719.521 8  87054401.125 7  21259553.555                    21259562.090
 122854305.542 7  95730708.105 6  23378400.250                    23378411.641
 115750031.085 8  90194952.51545  22026473.492                    22026483.391
 113441788.717 8  88396296.965 7  21587232.617                    21587242.535
 126198288.723 7  98336394.27543  24014748.922                    24014762.973
 124997997.831 7  97401062.787 6  23786325.289                    23786338.137
 108591213.876 8  84616665.50546  20664190.781                    20664197.117
 125818172.139 6  98040217.89543  23942410.633                    23942421.223
 11  8 27  0  3 30.0000000  0  9G10G12G17G04G05G09G25G02G30
 109816477.040 8  85571425.50246  20897357.609                    20897366.434
 111668466.984 8  87014464.113 7  21249800.469                    21249808.793
 122909498.370 7  95773715.392 6  23388902.961                    23388914.852
 115828593.290 7  90256169.80645  22041423.258                    22041433.207
 113359830.609 8  88332433.610 7  21571636.664                    21571646.418
 126278191.684 7  98398656.17444  24029954.469                    24029968.324
 124902681.048 7  97326790.033 6  23768187.539                    23768199.934
 108596503.839 8  84620787.57146  20665197.352                    20665203.934
 125720227.848 6  97963897.74143  23923772.422                    23923783.512
 11  8 27  0  4  0.0000000  0  9G10G12G17G04G05G09G25G02G30
 109832910.672 8  85584230.94646  20900484.641                    20900493.762
 111617689.123 8  86974896.983 7  21240137.781                    21240146.172
 122964863.569 7  95816857.000 6  23399439.578                    23399450.703
 115907244.964 7  90317456.80045  22056390.477                    22056400.160
 113278243.126 8  88268859.056 7  21556110.984                    21556120.727
 126358184.469 7  98460988.04643  24045176.797                    24045190.648
 124807594.287 7  97252696.520 6  23750092.742                    23750105.934
 108602049.442 8  84625108.83946  20666252.367                    20666258.773
 125622553.234 6  97887787.70943  23905185.680                    23905195.910
 11  8 27  0  4 30.0000000  0  9G10G12G17G04G05G09G25G02G30
 109849970.665 8  85597524.45646  20903731.164                    20903740.305
 111567387.901 8  86935701.249 7  21230566.023                    21230573.895
 123020401.229 7  95860133.014 6  23410007.320                    23410019.285
 115985984.261 7  90378812.07045  22071373.742                    22071383.969
 113197029.294 8  88205575.656 7  21540656.531                    21540666.633
 126438263.952 6  98523387.48544  24060415.430                    24060429.629
 124712740.388 7  97178784.461 6  23732042.680                    23732055.676
 108607849.517 8  84629628.39846  20667356.227                    20667362.559
 125525151.339 6  97811890.12943  23886650.500                    23886661.898
 11  8 27  0  5  0.0000000  0  9G10G12G17G04G05G09G25G02G30
 109867656.454 8  85611305.60146  20907096.469                    20907105.531
 111517565.357 8  86896878.517 7  21221084.891                    21221093.109
 123076112.193 7  95903544.061 6  23420608.891                    23420620.789
 116064809.840 7  90440234.57145  22086374.164                    22086383.285
 113116191.298 8  88142585.119 7  21525273.438                    21525283.512
 126518426.934 6  98585851.97043  24075669.102                    24075684.566
 124618121.953 7  97105055.882 6  23714037.484                    23714050.102
 108613903.202 8  84634345.57846  20668508.328                    20668514.539
 125428024.910 6  97736207.21343  23868168.047                    23868178.227
 11  8 27  0  5 30.0000000  0  9G10G12G17G04G05G09G25G02G30
 109885967.333 8  85625573.82646  20910580.813                    20910590.016
 111468223.690 8  86858430.501 7  21211695.258                    21211703.418
 123131996.860 7  95947090.480 6  23431244.195                    23431255.063
 116143719.804 8  90501722.83145  22101390.133                    22101399.578
 113035731.906 7  88079889.592 7  21509962.000                    21509971.801
 126598669.744 6  98648378.64444  24090939.406                    24090954.719
 124523741.637 7  97031512.849 6  23696077.273                    23696090.184
 108620208.994 8  84639259.19546  20669708.484                    20669714.754
 125331176.804 7  97660741.18543  23849738.266                    23849748.859
 11  8 27  0  6  0.0000000  0  9G10G12G17G04G05G09G25G02G30
 109904902.330 8  85640328.38446  20914184.375                    20914193.074
 111419364.694 8  86820358.597 7  21202397.742                    21202406.078
 123188055.596 7  95990772.546 6  23441911.375                    23441922.680
 116222712.185 7  90563275.31045  22116421.742                    22116431.840
 112955653.603 8  88017491.019 7  21494724.023                    21494733.641
 126678989.127 6  98710965.04443  24106223.734                    24106239.047
 124429601.854 7  96958157.240 6  23678163.352                    23678175.824
 108626765.503 8  84644368.18146  20670955.844                    20670962.516
 125234609.538 6  97585494.01643  23831362.805                    23831372.613
 11  8 27  0  6 30.0000000  0  9G10G12G17G04G05G09G25G02G30
 109924461.175 8  85655569.05546  20917906.047                    20917915.035
 111370990.747 8  86782664.644 7  21193192.711                    21193200.813
 123244289.018 7  96034590.724 6  23452612.516                    23452623.926
 116301785.433 8  90624890.79645  22131469.109                    22131479.113
 112875959.523 8  87955391.830 7  21479558.453                    21479567.852
 126759382.056 6  98773608.74343  24121522.523                    24121536.840
 124335705.642 7  96884991.441 6  23660295.391                    23660307.516
 108633571.916 8  84649671.89546  20672251.133                    20672257.387
 125138326.410 7  97510468.25543  23813040.031                    23813050.840
 11  8 27  0  7  0.0000000  0  9G10G12G17G04G05G09G25G02G30
 109944643.326 8  85671295.40846  20921746.656                    20921755.813
 111323103.875 8  86745350.229 7  21184080.016                    21184088.340
 123300697.689 7  96078545.459 6  23463347.141                    23463358.090
 116380938.109 7  90686568.16645  22146531.633                    22146541.297
 112796651.917 8  87893593.792 7  21464466.445                    21464476.313
 126839845.191 6  98836307.14143  24136833.883                    24136848.770
 124242055.666 7  96812017.516 6  23642474.219                    23642486.738
 108640627.228 8  84655169.56346  20673593.359                    20673600.008
 125042330.056 7  97435665.96943  23794773.078                    23794783.277
 11  8 27  0  7 30.0000000  0  9G10G12G17G04G05G09G25G02G30
 109965448.090 8  85687506.92646  20925705.633                    20925714.660
 111275705.816 8  86708416.712 7  21175060.484                    21175068.836
 123357281.948 7  96122637.055 6  23474114.648                    23474125.809
 116460168.291 7  90748305.95145  22161608.359                    22161618.332
 112717733.467 7  87832099.000 7  21449448.805                    21449458.453
 126920375.218 6  98899057.65743  24152157.945                    24152173.527
 124148654.457 7  96739237.430 6  23624700.422                    23624713.043
 108647929.725 8  84660859.85046  20674983.117                    20674989.461
 124946623.266 7  97361089.31743  23776560.430                    23776570.699
 11  8 27  0  8  0.0000000  0  9G10G12G17G04G05G09G25G02G30
 109986874.810 8  85704203.08646  20929783.141                    20929791.844
 111228798.608 8  86671865.676 7  21166134.406                    21166142.586
 123414042.300 7  96166865.839 6  23484915.227                    23484926.406
 116539474.329 7  90810102.83245  22176699.680                    22176709.801
 112639206.707 8  87770909.415 7  21434505.625                    21434515.254
 127000969.079 6  98961857.86243  24167494.938                    24167510.547
 124055504.812 7  96666653.367 6  23606975.156                    23606987.352
 108655478.677 8  84666742.16446  20676419.711                    20676426.328
 124851208.897 7  97286740.52144  23758404.008                    23758414.285
 11  8 27  0  8 30.0000000  0  9G10G12G17G04G05G09G25G02G30
 110008922.860 8  85721383.40646  20933978.703                    20933987.453
 111182384.253 8  86635698.681 7  21157301.758                    21157310.109
 123470979.060 6  96211232.090 6  23495750.023                    23495761.793
 116618854.496 7  90871957.48045  22191805.430                    22191815.313
 112561074.387 7  87710027.178 7  21419637.406                    21419647.281
 127081623.516 6  99024705.24044  24182843.289                    24182858.566
 123962609.428 7  96594267.424 6  23589297.344                    23589309.465
 108663272.736 8  84672815.47346  20677902.867                    20677909.699
 124756089.845 6  97212621.84044  23740302.883                    23740313.418
 11  8 27  0  9  0.0000000  0  9G10G12G17G04G05G09G25G02G30
 110031591.209 8  85739047.06946  20938292.039                    20938301.137
 111136464.282 8  86599916.926 7  21148563.438                    21148571.613
 123528092.846 7  96255736.293 6  23506618.578                    23506630.129
 116698307.107 7  90933868.57745  22206924.672                    22206934.594
 112483338.996 8  87649454.243 7  21404844.742                    21404853.938
 127162334.954 6  99087597.05844  24198202.828                    24198217.738
 123869970.709 7  96522081.472 6  23571668.961                    23571680.547
 108671310.524 8  84679078.70546  20679432.266                    20679438.781
 124661268.693 6  97138735.28344  23722258.867                    23722269.578
 11  8 27  0  9 30.0000000  0  9G10G12G17G04G05G09G25G02G30
 110054878.828 8  85757193.29146  20942723.664                    20942732.234
 111091040.744 8  86564521.999 7  21139919.719                    21139927.480
 123585383.941 6  96300378.652 6  23517520.672                    23517532.184
 116777830.516 7  90995834.84445  22222057.508                    22222067.223
 112406003.173 7  87589192.662 7  21390128.391                    21390137.645
 127243100.374 6  99150530.97344  24213571.539                    24213587.129
 123777591.629 7  96450097.858 6  23554089.680                    23554101.512
 108679590.950 8  84685531.00446  20681007.828                    20681014.621
 124566748.487 6  97065083.22743  23704272.242                    23704282.309
 11  8 27  0 10  0.0000000  0  9G10G12G17G04G05G09G25G02G30
 110078785.105 8  85775821.58846  20947272.656                    20947281.883
 111046115.755 8  86529515.547 7  21131370.523                    21131378.723
 123642852.773 6  96345159.510 6  23528456.391                    23528467.637
 116857423.076 7  91057854.99845  22237203.297                    22237213.539
 112329069.265 8  87529244.259 7  21375488.070                    21375498.035
 127323916.239 7  99213504.19744  24228951.156                    24228965.520
 123685474.638 7  96378318.470 6  23536559.914                    23536572.160
 108688112.579 8  84692171.25946  20682629.445                    20682635.977
 124472531.773 6  96991667.65343  23686342.625                    23686354.164
 11  8 27  0 10 30.0000000  0  9G10G12G17G04G05G09G25G02G30
 110103308.945 8  85794931.09546  20951939.789                    20951948.426
 111001691.265 8  86494899.109 7  21122917.188                    21122925.055
 123700500.012 6  96390079.400 6  23539426.500                    23539438.027
 116937083.143 7  91119927.75045  22252362.195                    22252372.117
 112252540.245 8  87469611.345 7  21360924.813                    21360934.816
 127404779.707 7  99276514.51743  24244338.641                    24244353.242
 123593622.603 7  96306745.551 6  23519081.109                    23519093.191
 108696874.482 8  84698998.73146  20684297.109                    20684303.254
 124378621.561 6  96918490.87344  23668472.734                    23668483.438
 11  8 27  0 11  0.0000000  0  9G10G12G17G04G05G09G25G02G30
 110128449.887 8  85814521.46046  20956723.508                    20956732.848
 110957769.199 8  86460674.153 7  21114558.961                    21114566.918
 123758326.153 6  96435138.672 6  23550430.789                    23550441.844
 117016809.175 7  91182051.90845  22267533.977                    22267543.863
 112176418.085 8  87410295.480 7  21346439.625                    21346449.125
 127485687.186 7  99339559.12143  24259735.094                    24259750.184
 123502038.223 7  96235381.175 6  23501652.758                    23501665.117
 108705875.495 8  84706012.52646  20686009.820                    20686016.211
 124285020.764 6  96845555.22343  23650661.086                    23650672.020
 11  8 27  0 11 30.0000000  0  9G10G12G17G04G05G09G25G02G30
 110154206.486 8  85834591.56546  20961625.031                    20961633.980
 110914350.918 8  86426841.765 7  21106296.719                    21106304.945
 123816331.645 6  96480337.714 6  23561468.688                    23561480.336
 117096599.220 7  91244225.94845  22282717.359                    22282727.238
 112100705.395 8  87351298.668 7  21332031.719                    21332041.063
 127566635.585 6  99402635.57143  24275139.047                    24275154.602
 123410723.773 7  96164227.130 6  23484276.922                    23484288.855
 108715114.034 8  84713211.40446  20687767.914                    20687774.469
 124191731.894 7  96772862.63443  23632908.695                    23632918.941
 11  8 27  0 12  0.0000000  0  9G10G12G17G04G05G09G25G02G30
 110180578.458 8  85855141.18246  20966643.445                    20966652.383
 110871438.846 8  86393403.826 7  21098130.734                    21098138.887
 123874516.525 6  96525676.555 6  23572541.109                    23572552.859
 117176452.395 7  91306449.19145  22297912.953                    22297922.797
 112025405.171 8  87292623.267 7  21317702.680                    21317712.082
 127647621.892 6  99465741.58143  24290550.102                    24290565.262
 123319682.497 7  96093285.969 6  23466951.852                    23466964.211
 108724589.368 8  84720594.79746  20689570.719                    20689577.117
 124098758.116 7  96700415.56543  23615216.641                    23615226.691
 11  8 27  0 12 30.0000000  0  9G10G12G17G04G05G09G25G02G30
 110207564.501 8  85876169.29546  20971778.852                    20971787.551
 110829034.759 8  86360361.712 7  21090061.422                    21090069.387
 123932881.630 6  96571155.810 6  23583647.430                    23583658.781
 117256366.858 7  91368720.16745  22313119.828                    22313129.777
 111950519.604 8  87234270.982 7  21303452.539                    21303461.563
 127728642.723 6  99528874.47843  24305968.156                    24305983.484
 123228916.982 7  96022559.680 6  23449679.977                    23449692.078
 108734300.492 8  84728161.92546  20691418.625                    20691425.125
 124006102.347 6  96628216.31243  23597584.320                    23597595.207
 11  8 27  0 13  0.0000000  0  9G10G12G17G04G05G09G25G02G30
 110235163.811 8  85897675.27746  20977030.656                    20977039.383
 110787140.419 8  86327716.801 7  21082089.102                    21082096.988
 123991427.134 6  96616775.655 6  23594787.906                    23594799.633
 117336340.901 7  91431037.58045  22328338.922                    22328348.449
 111876051.406 8  87176243.902 7  21289281.266                    21289290.762
 127809694.990 6  99592031.86743  24321392.641                    24321407.750
 123138429.812 7  95952050.267 6  23432460.680                    23432472.637
 108744245.739 8  84735911.48546  20693311.156                    20693317.961
 123913767.152 6  96556266.87643  23580013.672                    23580023.973
 11  8 27  0 13 30.0000000  0  9G10G12G17G04G05G09G25G02G30
 110263375.269 8  85919658.25846  20982399.094                    20982407.867
 110745757.458 8  86295470.374 7  21074214.172                    21074222.602
 124050153.432 6  96662536.368 6  23605963.828                    23605975.441
 117416373.001 7  91493400.23645  22343568.117                    22343578.207
 111802002.812 8  87118543.800 7  21275190.391                    21275199.141
 127890775.386 6  99655211.14543  24336821.672                    24336836.469
 123048223.648 7  95881759.821 6  23415294.180                    23415307.219
 108754424.047 8  84743842.63646  20695248.086                    20695254.465
 123821755.417 7  96484569.49343  23562504.859                    23562515.031
 11  8 27  0 14  0.0000000  0  9G10G12G17G04G05G09G25G02G30
 110292197.638 8  85942117.27346  20987884.000                    20987892.727
 110704887.504 8  86263623.681 7  21066437.023                    21066445.125
 124109061.155 7  96708438.444 6  23617173.391                    23617184.660
 117496461.186 7  91555806.58245  22358809.086                    22358818.227
 111728376.027 8  87061172.373 7  21261179.383                    21261188.859
 127971880.893 6  99718410.02343  24352255.625                    24352270.754
 122958300.957 7  95811690.282 6  23398183.133                    23398195.574
 108764833.996 8  84751954.30146  20697228.961                    20697235.426
 123730069.607 7  96413126.09043  23545057.383                    23545067.465
 11  8 27  0 14 30.0000000  0  9G10G12G17G04G05G09G25G02G30
 110321629.747 8  85965051.41546  20993484.047                    20993492.883
 110664532.053 8  86232177.893 7  21058757.477                    21058765.613
 124168150.115 7  96754481.730 6  23628417.859                    23628429.375
 117576604.215 7  91618255.68145  22374059.219                    22374069.160
 111655174.139 8  87004132.039 7  21247249.516                    21247259.262
 128053007.972 6  99781625.71443  24367693.664                    24367708.895
 122868664.331 7  95741843.651 7  23381125.672                    23381138.168
 108775474.038 8  84760245.25346  20699253.805                    20699260.375
 123638712.547 7  96341938.83643  23527672.375                    23527682.645
 11  8 27  0 15  0.0000000  0  9G10G12G17G04G05G09G25G02G30
 110351670.970 8  85988460.19546  20999201.391                    20999209.859
 110624693.384 8  86201134.785 7  21051176.539                    21051184.543
 124227421.364 6  96800667.086 6  23639696.664                    23639708.148
 117656800.674 7  91680746.40545  22389320.414                    22389330.223
 111582398.709 8  86947424.009 7  21233400.789                    21233410.020
 128134153.990 6  99844856.14843  24383135.156                    24383150.703
 122779316.811 7  95672222.292 7  23364123.102                    23364135.766
 108786343.954 8  84768715.32346  20701322.422                    20701328.723
 123547687.354 6  96271010.20943  23510351.063                    23510361.320
 11  8 27  0 15 30.0000000  0  9G10G12G17G04G05G09G25G02G30
 110382319.278 8  86012342.02546  21005033.375                    21005042.020
 110585373.110 8  86170495.632 7  21043694.297                    21043702.176
 124286874.717 7  96846994.313 6  23651010.711                    23651022.164
 117737048.699 7  91743277.30445  22404591.336                    22404600.574
 111510052.201 8  86891050.201 7  21219633.859                    21219643.277
 128215315.272 6  99908098.46743  24398580.891                    24398595.055
 122690260.745 7  95602828.051 7  23347176.711                    23347188.668
 108797441.603 8  84777362.84246  20703434.328                    20703440.484
 123456996.450 7  96200342.07544  23493093.352                    23493103.070
 11  8 27  0 16  0.0000000  0  9G10G12G17G04G05G09G25G02G30
 110413574.015 8  86036696.39246  21010980.719                    21010989.527
 110546572.882 8  86140261.699 7  21036310.867                    21036318.809
 124346510.945 7  96893464.065 6  23662358.961                    23662370.781
 117817347.133 7  91805847.49945  22419871.250                    22419881.129
 111438137.612 8  86835012.951 7  21205948.750                    21205958.145
 128296488.936 6  99971350.47643  24414027.242                    24414042.230
 122601499.128 7  95533663.242 7  23330285.484                    23330298.047
 108808766.362 8  84786187.34046  20705589.242                    20705595.605
 123366642.947 7  96129936.85044  23475899.719                    23475909.418
 11  8 27  0 16 30.0000000  0  9G10G12G17G04G05G09G25G02G30
 110445434.390 8  86061522.69546  21017043.641                    21017052.680
 110508294.451 8  86110434.362 7  21029026.539                    21029034.324
 124406330.392 6  96940076.568 6  23673742.164                    23673753.465
 117897694.596 7  91868455.88045  22435161.320                    22435170.801
 111366657.464 8  86779314.220 7  21192346.031                    21192355.887
 128377671.667 6 100034609.51443  24429476.586                    24429491.535
 122513034.684 7  95464730.010 6  23313451.367                    23313463.273
 108820317.450 8  84795188.18946  20707787.242                    20707793.504
 123276629.675 6  96059796.71144  23458769.641                    23458780.230
 11  8 27  0 17  0.0000000  0  9G10G12G17G04G05G09G25G02G30
 110477899.007 8  86086819.81846  21023221.359                    21023230.375
 110470539.172 8  86081014.679 7  21021842.109                    21021849.551
 124466333.306 6  96986832.017 6  23685160.320                    23685172.336
 117978089.139 7  91931100.95144  22450459.695                    22450469.637
 111295613.659 8  86723955.507 7  21178826.859                    21178836.203
 128458860.337 6 100097873.15843  24444925.961                    24444941.211
 122424869.759 7  95396030.168 7  23296673.992                    23296686.016
 108832092.720 8  84804363.73446  20710028.328                    20710034.465
 123186959.049 6  95989923.57244  23441706.609                    23441716.117
 11  8 27  0 17 30.0000000  0  9G10G12G17G04G05G09G25G02G30
 110510966.685 7  86112586.87646  21029513.898                    21029522.813
 110433309.191 8  86052004.307 7  21014757.422                    21014765.125
 124526520.074 6  97033730.719 6  23696613.922                    23696625.156
 118058529.483 7  91993781.69745  22465767.266                    22465776.516
 111225008.707 8  86668938.752 7  21165391.469                    21165400.422
 128540051.891 6 100161139.05843  24460376.180                    24460391.688
 122337007.180 7  95327565.923 7  23279954.070                    23279966.457
 108844091.488 8  84813713.43246  20712311.313                    20712317.434
 123097634.116 7  95920319.84644  23424707.961                    23424718.672
 11  8 27  0 18  0.0000000  0  9G10G12G17G04G05G09G25G02G30
 110544635.992 8  86138822.71546  21035920.773                    21035929.891
 110396605.479 8  86023404.020 7  21007772.922                    21007780.898
 124586891.098 7  97080773.014 6  23708101.352                    23708113.590
 118139014.216 7  92056497.03244  22481082.328                    22481092.359
 111154844.920 8  86614265.749 7  21152039.297                    21152049.184
 128621243.211 6 100224404.76243  24475826.922                    24475842.449
 122249449.539 7  95259339.304 6  23263292.813                    23263304.551
 108856312.465 8  84823236.28146  20714636.898                    20714643.281
 123008657.443 7  95850987.43544  23407775.859                    23407786.766
 11  8 27  0 18 30.0000000  0  9G10G12G17G04G05G09G25G02G30
 110578905.602 8  86165526.32146  21042442.406                    21042451.195
 110360429.853 8  85995215.227 7  21000888.773                    21000896.730
 124647446.549 6  97127958.994 6  23719625.164                    23719637.234
 118219541.628 7  92119245.61645  22496406.141                    22496416.281
 111085124.432 8  86559938.178 7  21138772.117                    21138781.508
 128702431.106 6 100287667.81443  24491276.117                    24491292.723
 122162199.372 7  95191352.247 7  23246689.180                    23246701.340
 108868754.080 8  84832931.05846  20717004.375                    20717010.766
 122920031.694 7  95781928.50544  23390911.625                    23390921.492
 11  8 27  0 19  0.0000000  0  9G10G12G17G04G05G09G25G02G30
 110613774.279 8  86192696.73146  21049077.547                    21049086.570
 110324784.165 8  85967439.385 7  20994105.367                    20994113.738
 124708187.017 6  97175289.143 6  23731184.086                    23731195.941
 118300110.521 7  92182026.52344  22511738.008                    22511748.188
 111015849.841 8  86505958.073 7  21125589.703                    21125598.926
 128783612.263 6 100350925.61943  24506724.516                    24506740.953
 122075259.538 7  95123607.019 7  23230145.461                    23230157.242
 108881415.614 8  84842797.19246  20719413.883                    20719420.188
 122831760.044 7  95713145.47643  23374114.453                    23374124.574
 11  8 27  0 19 30.0000000  0  9G10G12G17G04G05G09G25G02G30
 110649240.623 8  86220332.85146  21055826.500                    21055835.457
 110289669.806 8  85940077.561 7  20987423.547                    20987431.258
 124769112.707 6  97222763.627 6  23742777.508                    23742789.613
 118380719.281 7  92244838.49245  22527077.219                    22527087.484
 110947023.319 8  86452327.100 7  21112492.250                    21112501.301
 128864784.088 6 100414176.14043  24522171.445                    24522187.938
 121988632.623 7  95056105.623 6  23213660.250                    23213672.219
 108894295.940 8  84852833.82246  20721864.922                    20721871.074
 122743844.957 7  95644640.31744  23357384.297                    23357394.547
 11  8 27  0 20  0.0000000  0  9G10G12G17G04G05G09G25G02G30
 110685303.559 8  86248433.84446  21062689.188                    21062698.063
 110255088.532 8  85913131.133 7  20980843.055                    20980851.059
 124830224.164 6  97270382.879 6  23754407.039                    23754418.441
 118461366.717 7  92307680.59345  22542424.133                    22542434.484
 110878647.179 8  86399047.082 7  21099480.594                    21099489.980
 128945943.205 6 100477416.77143  24537615.195                    24537631.754
 121902321.325 7  94988850.153 6  23197235.813                    23197247.836
 108907393.883 8  84863040.03046  20724357.484                    20724363.816
 122656289.312 6  95576415.24144  23340723.078                    23340732.656
 11  8 27  0 20 30.0000000  0  9G10G12G17G04G05G09G25G02G30
 110721961.147 8  86276998.21246  21069665.078                    21069673.664
 110221041.390 8  85886600.910 7  20974364.258                    20974371.902
 124891521.178 6  97318146.709 6  23766071.391                    23766083.453
 118542051.170 7  92370551.52744  22557778.094                    22557787.988
 110810723.587 8  86346119.686 7  21086555.125                    21086564.180
 129027086.584 7 100540645.14843  24553056.930                    24553073.180
 121816328.112 7  94921842.524 6  23180871.469                    23180883.734
 108920707.797 8  84873414.52546  20726890.563                    20726897.121
 122569095.594 6  95508472.18144  23324130.461                    23324140.289
 11  8 27  0 21  0.0000000  0  9G10G12G17G04G05G09G25G02G30
 110759212.228 8  86306025.02846  21076753.414                    21076762.473
 110187530.177 8  85860488.307 7  20967986.953                    20967995.113
 124953004.451 6  97366055.706 6  23777770.773                    23777783.289
 118622771.170 7  92433450.16644  22573138.563                    22573148.848
 110743254.702 8  86293546.610 7  21073716.375                    21073725.301
 129108210.771 6 100603858.56443  24568494.953                    24568510.395
 121730655.597 7  94855084.801 6  23164568.664                    23164580.625
 108934236.446 8  84883956.35146  20729464.992                    20729471.535
 122482266.588 6  95440813.32044  23307607.070                    23307617.445
 11  8 27  0 21 30.0000000  0  9G10G12G17G04G05G09G25G02G30
 110797055.511 8  86335513.30146  21083954.813                    21083963.816
 110154556.554 8  85834794.586 7  20961712.445                    20961720.246
 125014674.532 6  97414110.276 6  23789506.063                    23789517.891
 118703525.510 7  92496375.56044  22588505.711                    22588515.934
 110676243.266 8  86241329.982 7  21060964.344                    21060973.516
 129189313.067 6 100667054.93243  24583927.852                    24583944.211
 121645306.746 7  94788579.240 6  23148326.945                    23148339.055
 108947979.223 8  84894665.03746  20732080.773                    20732086.699
 122395805.386 7  95373441.03644  23291154.141                    23291164.320
 11  8 27  0 22  0.0000000  0  9G10G12G17G04G05G09G25G02G30
 110835489.208 8  86365461.63346  21091268.492                    21091277.402
 110122121.670 8  85809520.679 7  20955540.164                    20955548.113
 125076531.128 6  97462310.186 6  23801278.070                    23801289.074
 118784312.657 7  92559326.50744  22603879.070                    22603889.102
 110609690.862 8  86189471.043 7  21048299.484                    21048308.523
 129270390.421 6 100730231.82543  24599356.055                    24599372.852
 121560283.857 7  94722327.691 6  23132148.227                    23132160.168
 108961934.523 8  84905539.32246  20734735.984                    20734742.406
 122309714.211 7  95306357.08444  23274771.797                    23274781.629
 11  8 27  0 22 30.0000000  0  9G10G12G17G04G05G09G25G02G30
 110874511.906 8  86395868.92746  21098694.156                    21098703.152
 110090227.059 8  85784667.750 7  20949470.969                    20949478.805
 125138574.612 6  97510655.694 6  23813084.141                    23813095.801
 118865131.248 7  92622301.97645  22619258.523                    22619268.656
 110543600.001 8  86137971.750 7  21035723.109                    21035732.070
 129351439.562 6 100793386.73743  24614779.320                    24614796.488
 121475589.574 7  94656332.176 6  23116031.445                    23116043.168
 108976101.004 8  84916578.16546  20737431.961                    20737438.219
 122223995.888 7  95239563.67544  23258459.789                    23258469.324
 11  8 27  0 23  0.0000000  0  9G10G12G17G04G05G09G25G02G30
 110914122.008 8  86426733.93946  21106232.000                    21106240.926
 110058874.167 8  85760236.948 7  20943504.602                    20943512.316
 125200805.415 6  97559147.172 6  23824926.672                    23824937.266
 118945979.884 7  92685300.83845  22634644.141                    22634653.543
 110477972.779 8  86086833.728 7  21023234.398                    21023243.086
 129432457.632 6 100856517.43343  24630197.602                    24630213.594
 121391226.566 7  94590594.794 7  23099977.688                    23099989.645
 108990477.824 8  84927780.91346  20740167.625                    20740173.934
 122138653.098 7  95173062.87944  23242220.063                    23242229.336
 11  8 27  0 23 30.0000000  0  9G10G12G17G04G05G09G25G02G30
 110954318.344 8  86458055.75546  21113880.969                    21113889.672
 110028064.177 8  85736229.193 7  20937641.539                    20937649.527
 125263223.906 6  97607784.910 6  23836804.711                    23836815.672
 119026857.155 7  92748322.02245  22650033.633                    22650044.527
 110412811.374 8  86036058.685 7  21010834.500                    21010843.602
 129513441.545 6 100919621.47542  24645608.492                    24645624.344
 121307197.513 7  94525117.635 7  23083987.352                    23083999.121
 109005063.855 8  84939146.68146  20742943.086                    20742949.148
 122053688.661 7  95106856.90444  23226051.000                    23226061.297
 11  8 27  0 24  0.0000000  0  9G10G12G17G04G05G09G25G02G30
 110995099.340 8  86489833.16546  21121641.859                    21121650.602
 109997798.517 8  85712645.581 7  20931882.102                    20931890.508
 125325830.194 6  97656569.015 6  23848717.805                    23848729.195
 119107761.971 7  92811364.67544  22665429.563                    22665440.074
 110348118.282 8  85985648.564 7  20998523.828                    20998532.926
 129594388.258 6 100982696.55943  24661012.039                    24661028.281
 121223505.194 7  94459902.876 7  23068061.414                    23068073.156
 109019857.771 8  84950674.43846  20745758.727                    20745764.758
 121969105.395 7  95040947.93644  23209955.469                    23209965.641
 11  8 27  0 24 30.0000000  0  9G10G12G17G04G05G09G25G02G30
 111036463.174 8  86522064.72646  21129512.555                    21129521.105
 109968079.055 8  85689487.582 7  20926226.648                    20926234.527
 125388624.713 6  97705499.764 6  23860667.570                    23860678.938
 119188692.892 7  92874427.68744  22680830.445                    22680840.672
 110283895.087 8  85935604.596 7  20986302.398                    20986311.035
 129675294.804 6 101045740.30543  24676408.320                    24676424.918
 121140151.996 7  94394952.350 7  23052199.820                    23052211.602
 109034858.383 8  84962363.26546  20748612.578                    20748618.680
 121884905.703 7  94975337.86044  23193932.852                    23193942.543
 11  8 27  0 25  0.0000000  0  9G10G12G17G04G05G09G25G02G30
 111078408.100 8  86554749.09146  21137494.758                    21137503.758
 109938906.532 8  85666755.770 7  20920675.602                    20920683.473
 125451607.581 6  97754577.269 6  23872652.453                    23872664.270
 119269648.350 7  92937509.81144  22696235.875                    22696245.691
 110220144.115 8  85885928.585 7  20974170.938                    20974179.781
 129756158.047 6 101108750.29943  24691796.930                    24691812.875
 121057140.576 7  94330268.146 7  23036403.266                    23036414.934
 109050064.593 8  84974212.28746  20751506.461                    20751512.965
 121801092.335 7  94910028.81344  23177983.516                    23177993.457
 11  8 27  0 25 30.0000000  0  9G10G12G17G04G05G09G25G02G30
 111120932.891 8  86587885.29946  21145586.625                    21145595.520
 109910282.566 8  85644451.410 7  20915228.336                    20915236.043
 125514779.174 6  97803801.872 6  23884673.867                    23884685.414
 119350627.305 7  93000610.24744  22711645.656                    22711655.500
 110156867.642 8  85836622.321 7  20962129.617                    20962138.848
 129836974.960 6 101171724.25243  24707175.820                    24707192.223
 120974473.610 7  94265852.361 7  23020672.453                    23020683.664
 109065475.165 8  84986220.55446  20754439.273                    20754445.105
 121717668.059 7  94845022.94843  23162108.266                    23162117.977
 11  8 27  0 26  0.0000000  0  9G10G12G17G04G05G09G25G02G30
 111164035.795 8  86621471.99046  21153788.898                    21153797.867
 109882208.374 8  85622575.436 7  20909886.164                    20909894.039
 125578139.540 6  97853173.519 6  23896730.883                    23896742.707
 119431628.372 7  93063727.91844  22727059.766                    22727069.836
 110094067.445 8  85787687.184 7  20950179.531                    20950188.441
 129917742.509 6 101234659.71243  24722545.164                    24722562.020
 120892153.611 7  94201706.945 7  23005007.391                    23005018.992
 109081088.753 8  84998387.01946  20757410.258                    20757416.375
 121634635.445 7  94780322.26244  23146307.805                    23146317.930
 11  8 27  0 26 30.0000000  0  9G10G12G17G04G05G09G25G02G30
 111207715.320 8  86655508.00046  21162100.813                    21162109.758
 109854685.120 8  85601128.784 7  20904648.414                    20904656.543
 125641689.060 6  97902692.575 6  23908823.992                    23908836.184
 119512650.401 7  93126861.92244  22742477.586                    22742487.750
 110031746.055 8  85739125.132 7  20938319.906                    20938328.754
 129998457.856 7 101297554.47543  24737905.219                    24737922.277
 120810183.315 7  94137834.044 7  22989408.484                    22989420.258
 109096904.442 8  85010710.95646  20760419.859                    20760426.125
 121551997.211 7  94715928.91144  23130582.117                    23130592.438
 11  8 27  0 27  0.0000000  0  9G10G12G17G04G05G09G25G02G30
 111251969.435 8  86689991.74246  21170521.516                    21170531.102
 109827714.120 8  85580112.443 7  20899516.008                    20899524.152
 125705428.007 6  97952359.235 6  23920953.250                    23920965.195
 119593691.825 7  93190011.04744  22757899.281                    22757909.305
 109969905.113 8  85690937.470 7  20926552.094                    20926560.980
 130079117.916 7 101360406.18043  24753254.445                    24753270.926
 120728565.206 7  94074235.583 7  22973877.156                    22973888.852
 109112920.993 8  85023191.41146  20763467.852                    20763473.676
 121469756.042 7  94651844.93444  23114932.203                    23114942.074
 11  8 27  0 27 30.0000000  0  9G10G12G17G04G05G09G25G02G30
 111296796.388 8  86724921.84445  21179052.445                    21179061.461
 109801296.699 8  85559527.475 7  20894489.063                    20894497.117
 125769356.629 7  98002173.697 6  23933118.680                    23933130.281
 119674751.470 7  93253174.37644  22773324.500                    22773334.441
 109908546.723 8  85643125.821 7  20914875.656                    20914884.910
 130159719.765 6 101423212.48043  24768593.156                    24768609.508
 120647301.877 7  94010913.575 7  22958413.352                    22958425.059
 109129137.385 8  85035827.57246  20766553.227                    20766559.688
 121387914.469 7  94588072.34844  23099357.906                    23099368.180
 11  8 27  0 28  0.0000000  0  9G10G12G17G04G05G09G25G02G30
 111342194.463 8  86760296.98345  21187691.227                    21187700.406
 109775434.226 8  85539374.929 7  20889567.359                    20889575.676
 125833474.893 7  98052135.946 6  23945320.313                    23945331.754
 119755828.219 7  93316351.03144  22788752.906                    22788763.066
 109847672.983 8  85595691.803 7  20903291.609                    20903300.547
 130240260.524 6 101485971.19943  24783919.906                    24783935.938
 120566395.902 7  93947870.043 7  22943017.500                    22943028.859
 109145552.160 8  85048618.32446  20769677.344                    20769683.363
 121306475.063 7  94524613.13544  23083861.188                    23083871.266
 11  8 27  0 28 30.0000000  0  9G10G12G17G04G05G09G25G02G30
 111388161.831 8  86796115.72745  21196438.273                    21196447.227
 109750127.501 8  85519655.445 7  20884751.750                    20884759.875
 125897783.126 7  98102246.174 6  23957557.688                    23957569.125
 119836920.547 7  93379539.84244  22804184.391                    22804194.449
 109787285.792 8  85548636.928 7  20891800.406                    20891809.184
 130320737.188 6 101548679.97943  24799234.070                    24799251.258
 120485849.797 7  93885106.923 6  22927689.477                    22927700.875
 109162164.355 8  85061562.89846  20772838.086                    20772844.039
 121225440.535 7  94461469.38544  23068440.133                    23068450.395
 11  8 27  0 29  0.0000000  0  9G10G12G17G04G05G09G25G02G30
 111434696.858 8  86832376.79645  21205293.641                    21205303.016
 109725377.647 8  85500369.876 7  20880041.883                    20880049.898
 125962281.471 6  98152504.577 6  23969831.242                    23969842.289
 119918027.405 7  93442739.95844  22819618.500                    22819628.676
 109727386.943 8  85501962.576 7  20880402.086                    20880410.816
 130401146.785 6 101611336.48743  24814535.516                    24814553.211
 120405666.068 7  93822626.173 7  22912431.250                    22912442.813
 109178972.486 8  85074660.15546  20776036.336                    20776043.137
 121144813.360 7  94398643.05844  23053097.867                    23053107.336
 11  8 27  0 29 30.0000000  0  9G10G12G17G04G05G09G25G02G30
 111481797.979 8  86869078.98345  21214257.016                    21214265.895
 109701186.132 8  85481519.389 7  20875438.438                    20875446.848
 126026970.335 7  98202911.461 6  23982140.813                    23982152.535
 119999147.532 7  93505950.41844  22835054.859                    22835065.121
 109667978.623 8  85455670.453 7  20869097.172                    20869105.652
 130481486.621 6 101673938.65943  24829824.211                    24829841.563
 120325847.489 7  93760429.970 7  22897242.531                    22897253.590
 109195975.978 8  85087909.63546  20779272.266                    20779278.664
 121064596.283 7  94336136.28944  23037832.875                    23037843.398
 11  8 27  0 30  0.0000000  0  9G10G12G17G04G05G09G25G02G30
 111529462.984 8  86906220.56146  21223327.094                    21223335.977
 109677553.912 8  85463104.706 7  20870941.375                    20870949.379
 126091849.762 6  98253466.837 6  23994486.898                    23994498.762
 120080279.550 7  93569170.15544  22850493.992                    22850504.563
 109609062.895 8  85409762.158 7  20857885.789                    20857894.105
 130561753.607 6 101736484.05243  24845098.398                    24845116.043
 120246396.408 7  93698520.130 7  22882122.867                    22882134.383
 109213173.185 8  85101310.06646  20782545.141                    20782551.145
 120984791.868 7  94273951.06444  23022646.563                    23022656.609
 11  8 27  0 30 30.0000000  0  9G10G12G17G04G05G09G25G02G30
 111577690.134 8  86943800.17245  21232504.445                    21232513.367
 109654481.946 8  85445126.586 7  20866551.000                    20866558.922
 126156920.132 6  98304171.004 6  24006869.195                    24006881.695
 120161422.576 7  93632398.43844  22865934.859                    22865945.418
 109550641.855 8  85364239.346 7  20846768.594                    20846777.465
 130641944.781 6 101798970.42743  24860358.648                    24860376.492
 120167315.521 7  93636898.755 7  22867074.164                    22867086.082
 109230563.281 8  85114860.79346  20785854.070                    20785860.418
 120905402.741 7  94212089.43944  23007539.000                    23007549.320
 11  8 27  0 31  0.0000000  0  8G10G12G17G04G05G25G02G30
 111626479.118 8  86981817.57645  21241788.633                    21241797.531
 109631973.073 8  85427587.236 7  20862267.539                    20862275.379
 126222183.082 6  98355025.210 6  24019288.086                    24019300.625
 120242576.539 7  93695635.26144  22881378.133                    22881388.422
 109492718.554 8  85319104.373 7  20835745.859                    20835754.469
 120088608.851 8  93575568.969 7  22852096.680                    22852108.461
 109248146.541 8  85128562.04346  20789199.930                    20789206.648
 120826433.005 7  94150554.62344  22992511.266                    22992521.535
 11  8 27  0 31 30.0000000  0  8G10G12G17G04G05G25G02G30
 111675826.748 8  87020270.28145  21251178.930                    21251187.828
 109610027.013 8  85410486.453 7  20858091.391                    20858098.781
 126287636.911 6  98406028.180 6  24031744.242                    24031755.984
 120323739.244 7  93758878.88044  22896822.758                    22896833.117
 109435293.236 8  85274357.443 7  20824818.195                    20824827.020
 120010277.567 8  93514531.673 7  22837190.898                    22837202.418
 109265920.472 8  85142411.86146  20792582.641                    20792588.676
 120747883.894 7  94089347.56844  22977564.008                    22977574.316
 11  8 27  0 32  0.0000000  0  8G10G12G17G04G05G25G02G30
 111725730.454 7  87059156.29045  21260675.289                    21260684.613
 109588643.913 8  85393824.328 7  20854022.266                    20854030.055
 126353281.646 6  98457179.901 6  24044236.008                    24044247.426
 120404908.668 7  93822127.74944  22912269.078                    22912279.137
 109378367.967 8  85230000.155 7  20813985.914                    20813994.641
 119932323.453 7  93453788.274 7  22822356.609                    22822368.223
 109283883.104 8  85156408.72946  20796000.664                    20796007.016
 120669757.253 7  94028469.71944  22962696.969                    22962706.992
 11  8 27  0 32 30.0000000  0  8G10G12G17G04G05G25G02G30
 111776188.286 7  87098474.09045  21270277.523                    21270286.590
 109567824.998 8  85377601.821 7  20850060.313                    20850068.320
 126419117.371 6  98508480.437 6  24056763.609                    24056776.129
 120486083.709 7  93885380.98444  22927716.367                    22927726.277
 109321943.799 8  85186033.332 7  20803248.414                    20803256.875
 119854749.182 7  93393340.855 6  22807594.914                    22807606.121
 109302033.444 8  85170551.85346  20799454.398                    20799460.523
 120592055.572 7  93967922.99744  22947910.578                    22947920.699
 11  8 27  0 33  0.0000000  0  8G10G12G17G04G05G25G02G30
 111827198.649 8  87138222.43245  21279984.188                    21279993.441
 109547571.488 8  85361819.883 7  20846206.602                    20846214.379
 126485144.583 6  98559930.191 6  24069328.281                    24069340.383
 120567263.739 7  93948638.12544  22943164.008                    22943174.422
 109266023.376 8  85142459.038 7  20792607.086                    20792615.816
 119777557.793 8  93333191.774 7  22792905.508                    22792917.043
 109320371.221 8  85184841.04146  20802943.969                    20802950.137
 120514782.133 7  93907710.00944  22933206.672                    22933216.160
 11  8 27  0 33 30.0000000  0  8G10G12G17G04G05G25G02G30
 111878759.401 7  87178399.64845  21289795.766                    21289804.754
 109527884.633 8  85346479.500 7  20842460.008                    20842467.633
 126551363.324 6  98611529.185 6  24081929.586                    24081941.641
 120648447.332 7  94011898.02744  22958613.055                    22958623.211
 109210608.350 8  85099278.564 7  20782061.828                    20782070.574
 119700751.337 7  93273342.646 7  22778290.008                    22778301.770
 109338894.778 8  85199274.98246  20806468.859                    20806474.879
 120437938.898 7  93847832.21844  22918583.344                    22918593.043
 11  8 27  0 34  0.0000000  0  8G10G12G17G04G05G25G02G30
 111930868.952 8  87219004.49645  21299712.289                    21299721.121
 109508764.640 8  85331580.818 7  20838821.547                    20838828.930
 126617773.881 6  98663277.654 6  24094566.609                    24094579.277
 120729633.530 7  94075159.94844  22974061.875                    22974072.340
 109155700.587 8  85056493.351 7  20771613.375                    20771621.820
 119624332.590 7  93213795.616 7  22763748.156                    22763759.547
 109357603.062 8  85213852.86846  20810028.945                    20810035.391
 120361528.736 7  93788291.91244  22904042.969                    22904053.105
 11  8 27  0 34 30.0000000  0  8G10G12G17G04G05G25G02G30
 111983525.091 7  87260035.25745  21309732.234                    21309740.988
 109490213.064 8  85317125.064 7  20835291.438                    20835299.367
 126684376.235 6  98715175.532 6  24107240.969                    24107253.223
 120810821.145 7  94138422.99044  22989511.820                    22989522.590
 109101301.824 8  85014104.770 7  20761261.359                    20761269.953
 119548304.009 7  93154552.610 7  22749280.070                    22749291.695
 109376495.032 8  85228573.90046  20813624.016                    20813630.293
 120285554.016 7  93729090.89944  22889585.523                    22889595.551
 11  8 27  0 35  0.0000000  0  8G10G12G17G04G05G25G02G30
 112036725.470 8  87301490.09745  21319856.289                    21319865.180
 109472230.338 8  85303112.555 7  20831869.609                    20831877.391
 126751170.287 6  98767222.829 6  24119952.039                    24119964.184
 120892009.066 7  94201686.26844  23004961.336                    23004971.656
 109047413.650 8  84972114.044 7  20751006.953                    20751015.523
 119472667.973 7  93095615.489 7  22734886.961                    22734898.492
 109395569.450 8  85243437.08646  20817253.664                    20817260.207
 120210017.164 7  93670231.10344  22875211.031                    22875220.887
 11  8 27  0 35 30.0000000  0  8G10G12G17G04G05G25G02G30
 112090468.173 8  87343367.52645  21330082.758                    21330091.996
 109454817.750 8  85289544.316 7  20828556.141                    20828563.527
 126818156.275 6  98819419.664 6  24132698.023                    24132710.344
 120973196.018 7  94264948.79844  23020410.914                    23020420.977
 108994037.719 8  84930522.473 7  20740849.680                    20740858.309
 119397427.013 7  93036986.210 7  22720569.023                    22720580.449
 109414825.225 8  85258441.59146  20820918.070                    20820924.477
 120134920.633 7  93611714.40544  22860920.922                    22860930.320
 11  8 27  0 36  0.0000000  0  8G10G12G17G04G05G25G02G30
 112144751.267 8  87385666.02545  21340412.742                    21340421.535
 109437975.966 8  85276420.854 7  20825351.133                    20825358.898
 126885334.314 6  98871766.148 6  24145482.008                    24145494.156
 121054381.144 7  94328209.90244  23035859.578                    23035870.195
 108941176.047 8  84889331.613 7  20730790.320                    20730798.570
 119322583.551 7  92978666.686 7  22706326.672                    22706338.059
 109434261.149 8  85273586.46746  20824616.273                    20824622.547
 120060266.999 7  93553542.81044  22846714.820                    22846724.277
 11  8 27  0 36 30.0000000  0  8G10G12G17G04G05G25G02G30
 112199572.516 8  87428383.87445  21350844.359                    21350853.852
 109421705.450 8  85263742.530 7  20822254.875                    20822262.633
 126952704.373 7  98924262.261 6  24158302.031                    24158314.816
 121135563.091 6  94391468.53244  23051307.953                    23051318.375
 108888829.991 8  84848542.534 7  20720829.016                    20720837.801
 119248139.954 7  92920658.728 7  22692160.633                    22692172.355
 109453875.827 8  85288870.64746  20828349.023                    20828355.129
 119986058.467 7  93495718.04444  22832593.133                    22832603.039
 11  8 27  0 37  0.0000000  0  8G10G12G17G04G05G25G02G30
 112254929.960 8  87471519.53545  21361379.047                    21361387.777
 109406007.413 8  85251510.294 7  20819267.695                    20819275.449
 127020266.744 7  98976908.208 6  24171159.039                    24171171.355
 121216741.023 7  94454724.03044  23066755.227                    23066765.977
 108837001.409 8  84808156.696 8  20710966.773                    20710974.809
 119174098.834 7  92862964.386 7  22678071.367                    22678082.609
 109473668.857 8  85304293.78846  20832115.336                    20832121.699
 119912297.815 7  93438242.27544  22818556.602                    22818566.914
 11  8 27  0 37 30.0000000  0  8G10G12G17G04G05G25G02G30
 112310821.257 8  87515071.18945  21372014.570                    21372023.828
 109390882.404 8  85239724.577 7  20816389.539                    20816397.344
 127088021.500 6  99029704.060 6  24184051.977                    24184064.836
 121297913.745 7  94517975.47844  23082202.555                    23082213.078
 108785691.786 8  84768175.221 7  20701202.438                    20701211.195
 119100462.551 7  92805585.498 7  22664058.516                    22664069.801
 109493638.908 8  85319854.87346  20835915.281                    20835921.727
 119838987.176 7  93381117.16944  22804606.336                    22804616.051
 11  8 27  0 38  0.0000000  0  8G10G12G17G04G05G25G02G30
 112367244.953 8  87559037.70045  21382751.805                    21382760.676
 109376331.600 8  85228386.289 7  20813620.297                    20813628.559
 127155968.891 6  99082650.062 6  24196982.695                    24196994.395
 121379080.405 7  94581222.21844  23097647.945                    23097657.953
 108734903.165 8  84728599.735 7  20691537.516                    20691546.156
 119027233.739 7  92748524.129 7  22650123.375                    22650134.734
 109513785.184 8  85335553.28046  20839749.156                    20839755.629
 119766129.402 7  93324344.92044  22790741.742                    22790751.656
 11  8 27  0 38 30.0000000  0  8G10G12G17G04G05G25G02G30
 112424198.327 8  87603416.93745  21393589.773                    21393598.348
 109362355.335 8  85217495.695 7  20810960.938                    20810968.684
 127224108.558 6  99135745.857 6  24209948.906                    24209961.293
 121460239.921 7  94644463.38044  23113091.914                    23113102.270
 108684637.136 8  84689431.466 8  20681972.352                    20681980.961
 118954414.569 7  92691781.960 7  22636266.719                    22636277.906
 109534106.141 8  85351387.79846  20843616.453                    20843622.750
 119693726.502 7  93267927.12844  22776963.922                    22776973.820
 11  8 27  0 39  0.0000000  0  8G10G12G17G04G05G25G02G30
 112481679.237 8  87648207.25345  21404527.781                    21404536.563
 109348954.231 8  85207053.276 7  20808410.750                    20808418.266
 127292440.717 6  99188991.669 6  24222952.664                    24222963.996
 121541391.213 7  94707698.14644  23128534.672                    23128544.863
 108634894.808 8  84650671.271 7  20672506.594                    20672514.883
 118882007.502 7  92635360.902 7  22622487.906                    22622498.895
 109554600.807 8  85367357.67746  20847516.359                    20847522.469
 119621780.915 7  93211865.66944  22763273.070                    22763282.621
 11  8 27  0 39 30.0000000  0  8G10G12G17G04G05G25G02G30
 112539685.276 8  87693406.75745  21415566.344                    21415574.652
 109336128.854 8  85197059.474 7  20805970.227                    20805978.301
 127360965.187 6  99242387.298 6  24235992.461                    24236003.605
 121622532.993 7  94770925.47544  23143975.492                    23143985.738
 108585677.662 8  84612320.305 8  20663140.820                    20663149.121
 118810014.714 7  92579262.660 7  22608788.328                    22608799.035
 109575267.727 8  85383461.78146  20851449.125                    20851455.445
 119550294.924 7  93156162.34644  22749670.195                    22749679.566
 11  8 27  0 40  0.0000000  0  8G10G12G17G04G05G25G02G30
 112598214.536 8  87739013.97045  21426704.133                    21426712.215
 109323880.162 8  85187515.046 7  20803639.422                    20803647.422
 127429682.270 6  99295933.030 6  24249068.203                    24249080.273
 121703664.654 7  94834144.94844  23159414.719                    23159424.766
 108536987.857 8  84574380.251 8  20653875.344                    20653883.805
 118738438.928 7  92523489.362 7  22595167.547                    22595178.816
 109596106.364 8  85399699.69646  20855414.547                    20855420.781
 119479271.131 7  93100819.18944  22736154.227                    22736163.965
 11  8 27  0 40 30.0000000  0  8G10G12G17G04G05G25G02G30
 112657264.617 8  87785027.01945  21437940.836                    21437949.816
 109312208.552 8  85178420.284 7  20801418.336                    20801426.063
 127498591.923 6  99349628.830 5  24262181.797                    24262193.566
 121784784.909 7  94897355.52544  23174850.664                    23174861.414
 108488826.348 8  84536851.865 8  20644710.859                    20644719.500
 118667282.323 7  92468042.704 7  22581626.844                    22581637.852
 109617115.422 8  85416070.39746  20859412.398                    20859418.664
 119408711.695 7  93045837.86644  22722727.438                    22722737.336
 11  8 27  0 41  0.0000000  0  8G10G12G17G04G05G25G02G30
 112716833.066 8  87831443.98845  21449276.367                    21449285.027
 109301114.475 8  85169775.566 7  20799307.086                    20799315.078
 127567694.098 6  99403474.659 5  24275332.203                    24275342.961
 121865892.717 7  94960556.39744  23190285.094                    23190295.781
 108441194.651 8  84499736.315 8  20635646.875                    20635655.059
 118596547.176 7  92412924.459 7  22568166.578                    22568177.395
 109638293.608 8  85432572.88246  20863442.563                    20863448.371
 119338618.890 7  92991220.15544  22709389.188                    22709398.770
 11  8 27  0 41 30.0000000  0  8G10G12G17G04G05G25G02G30
 112776918.244 8  87878263.60245  21460710.086                    21460719.395
 109290599.147 8  85161581.806 7  20797306.414                    20797314.168
 127636988.815 6  99457470.558 5  24288517.836                    24288529.230
 121946987.379 7  95023747.00944  23205717.320                    23205727.117
 108394094.772 8  84463035.166 8  20626684.156                    20626692.254
 118526236.266 7  92358136.781 7  22554786.516                    22554797.590
 109659640.353 8  85449206.71846  20867504.883                    20867510.805
 119268995.429 7  92936968.15844  22696139.828                    22696149.438
 11  8 27  0 42  0.0000000  0  8G10G12G17G04G05G25G02G30
 112837517.324 8  87925483.66345  21472241.711                    21472250.570
 109280662.877 8  85153839.264 7  20795415.359                    20795423.258
 127706476.042 6  99511616.404 5  24301740.703                    24301752.602
 122028067.892 7  95086926.60644  23221146.320                    23221156.734
 108347527.684 8  84426749.178 7  20617822.516                    20617830.789
 118456351.703 7  92303681.329 7  22541487.883                    22541498.793
 109681154.696 8  85465971.15046  20871598.594                    20871604.574
 119199843.436 7  92883083.54644  22682980.750                    22682990.320
 11  8 27  0 42 30.0000000  0  8G10G12G17G04G05G25G02G30
 112898628.199 8  87973102.52845  21483870.531                    21483879.602
 109271305.697 8  85146547.968 7  20793634.898                    20793642.832
 127776155.768 6  99565912.318 5  24315000.594                    24315012.422
 122109133.097 7  95150094.27044  23236572.977                    23236583.219
 108301494.982 8  84390879.595 8  20609062.539                    20609070.473
 118386895.796 8  92249559.894 7  22528270.859                    22528282.238
 109702835.106 8  85482864.98046  20875724.352                    20875730.430
 119131165.134 7  92829568.04344  22669912.219                    22669920.926
 11  8 27  0 43  0.0000000  0  8G10G12G17G04G05G25G02G30
 112960248.922 8  88021118.67145  21495596.344                    21495605.500
 109262528.379 8  85139708.509 7  20791964.453                    20791972.141
 127846028.228 6  99620358.348 5  24328296.367                    24328308.762
 122190182.456 7  95213249.57744  23251995.352                    23252006.273
 108255998.230 8  84355427.633 8  20600404.734                    20600413.199
 118317871.037 7  92195774.424 7  22515135.797                    22515146.918
 109724680.917 8  85499887.69246  20879881.359                    20879887.785
 119062963.039 7  92776423.62044  22656932.891                    22656943.059
 11  8 27  0 43 30.0000000  0  8G10G12G17G04G05G25G02G30
 113022376.531 7  88069529.79245  21507419.500                    21507428.043
 109254331.325 8  85133321.207 8  20790404.453                    20790412.719
 127916093.103 6  99674954.302 5  24341629.734                    24341641.789
 122271214.470 7  95276391.35944  23267415.766                    23267426.203
 108211038.350 8  84320394.011 8  20591849.047                    20591857.367
 118249279.456 7  92142326.487 7  22502083.289                    22502094.395
 109746690.833 8  85517038.26846  20884069.523                    20884075.922
 118995239.030 7  92723651.71944  22644045.836                    22644055.066
 11  8 27  0 44  0.0000000  0  8G10G12G17G04G05G25G02G30
 113085009.018 8  88118334.31945  21519337.656                    21519346.934
 109246715.001 8  85127386.421 7  20788955.508                    20788963.371
 127986350.394 6  99729700.244 6  24354999.617                    24355011.328
 122352228.554 7  95339519.16044  23282832.391                    23282842.234
 108166617.074 8  84285780.084 7  20583395.891                    20583404.461
 118181123.501 7  92089218.000 7  22489113.781                    22489124.652
 109768863.783 8  85534315.89346  20888289.258                    20888295.070
 118927995.488 7  92671254.20444  22631249.742                    22631258.840
 11  8 27  0 44 30.0000000  0  9G10G12G17G04G05G29G25G02G30
 113148143.951 7  88167530.35545  21531352.203                    21531360.688
 109239679.872 8  85121904.511 7  20787616.492                    20787624.711
 128056800.067 6  99784596.060 6  24368404.813                    24368417.109
 122433223.701 7  95402632.19944  23298244.938                    23298255.699
 108122735.748 8  84251586.885 7  20575045.578                    20575053.902
 129557735.70017 100954129.78816  24654024.805                    24654034.672
 118113405.341 7  92036450.665 7  22476227.430                    22476239.316
 109791198.803 8  85551719.80746  20892539.273                    20892544.949
 118861234.809 7  92619232.92844  22618545.453                    22618554.980
 11  8 27  0 45  0.0000000  0  9G10G12G17G04G05G29G25G02G30
 113211779.616 8  88217116.57945  21543461.211                    21543470.246
 109233226.948 8  85116876.261 7  20786388.438                    20786396.277
 128127442.709 6  99839642.243 6  24381847.953                    24381860.645
 122514199.414 7  95465730.09344  23313654.531                    23313664.559
 108079395.849 8  84217815.586 8  20566798.094                    20566806.766
 129477528.486 7 100891630.726 5  24638761.375                    24638772.023
 118046127.799 7  91984026.661 7  22463424.750                    22463435.836
 109813695.480 8  85569249.68346  20896820.516                    20896826.441
 118794959.392 7  92567589.78244  22605934.063                    22605943.305
 11  8 27  0 45 30.0000000  0  9G10G12G17G04G05G29G25G02G30
 113275913.311 7  88267090.88445  21555665.695                    21555675.039
 109227356.150 8  85112301.623 7  20785271.531                    20785279.484
 128198277.858 6  99894838.456 6  24395326.984                    24395339.680
 122595154.624 7  95528811.99844  23329060.305                    23329070.840
 108036598.731 8  84184467.230 8  20558654.547                    20558662.441
 129397240.628 7 100829068.818 6  24623482.430                    24623493.305
 117979292.942 7  91931947.610 7  22450706.297                    22450717.508
 109836352.543 8  85586904.53846  20901131.828                    20901137.809
 118729171.483 7  92516326.50245  22593414.445                    22593423.668
 11  8 27  0 46  0.0000000  0  9G10G12G17G04G05G29G25G02G30
 113340542.254 8  88317451.09245  21567964.172                    21567972.891
 109222067.434 8  85108180.555 7  20784265.102                    20784273.172
 128269305.239 6  99950184.463 6  24408843.734                    24408855.719
 122676088.221 6  95591877.07544  23344460.781                    23344471.230
 107994345.213 8  84151542.458 8  20550613.430                    20550622.035
 129316872.146 7 100766444.079 5  24608189.398                    24608200.043
 117912902.707 7  91880215.012 7  22438072.922                    22438083.871
 109859168.434 8  85604683.15146  20905473.484                    20905479.531
 118663872.847 7  92465444.48244  22580988.672                    22580997.992
 11  8 27  0 46 30.0000000  0  9G10G12G17G04G05G29G25G02G30
 113405663.877 8  88368195.20445  21580356.508                    21580365.480
 109217361.553 8  85104513.640 7  20783369.500                    20783377.164
 128340524.607 6 100005680.101 6  24422396.586                    24422408.324
 122756999.230 6  95654924.52944  23359858.141                    23359868.453
 107952636.517 8  84119042.230 8  20542676.758                    20542685.484
 129236423.714 6 100703757.035 5  24592880.656                    24592891.152
 117846959.326 7  91828830.618 7  22425523.586                    22425535.785
 109882142.277 8  85622584.84146  20909845.273                    20909851.285
 118599065.716 7  92414945.45245  22568656.367                    22568665.867
 11  8 27  0 47  0.0000000  0  9G10G12G17G04G05G29G25G02G30
 113471275.356 8  88419321.01945  21592842.039                    21592850.867
 109213237.939 8  85101300.439 7  20782584.852                    20782592.352
 128411935.586 6 100061325.035 6  24435985.078                    24435997.543
 122837886.531 6  95717953.52044  23375249.992                    23375260.488
 107911473.678 8  84086967.329 8  20534843.430                    20534851.805
 129155895.810 6 100641008.055 5  24577556.305                    24577566.680
 117781464.613 7  91777795.838 7  22413060.617                    22413072.176
 109905272.361 8  85640608.28446  20914247.000                    20914253.004
 118534751.780 7  92364830.74244  22556417.734                    22556427.156
 11  8 27  0 47 30.0000000  0  9G10G12G17G04G05G29G25G02G30
 113537375.017 8  88470827.24145  21605420.359                    21605429.250
 109209697.294 8  85098541.496 7  20781910.758                    20781918.758
 128483538.517 6 100117119.530 6  24449611.375                    24449623.832
 122918749.735 6  95780963.72144  23390637.859                    23390648.371
 107870858.477 8  84055319.180 8  20527114.672                    20527123.051
 129075289.385 6 100578197.919 5  24562217.695                    24562227.750
 117716421.305 8  91727112.792 7  22400683.352                    22400694.406
 109928558.697 8  85658753.47446  20918677.922                    20918684.531
 118470933.660 7  92315102.38145  22544273.922                    22544282.930
 11  8 27  0 48  0.0000000  0  9G10G12G17G04G05G29G25G02G30
 113603960.063 8  88522711.68145  21618090.867                    21618100.184
 109206740.038 8  85096237.148 7  20781348.141                    20781355.844
 128555333.338 6 100173063.606 6  24463272.828                    24463285.258
 122999587.616 6  95843954.20744  23406020.727                    23406031.652
 107830791.485 8  84024098.192 8  20519490.438                    20519498.621
 128994605.006 6 100515327.016 5  24546863.742                    24546873.844
 117651831.423 7  91676783.079 7  22388392.523                    22388403.352
 109952000.089 8  85677019.49446  20923138.727                    20923144.871
 118407613.459 7  92265762.01545  22532223.953                    22532233.285
 11  8 27  0 48 30.0000000  0  9G10G12G17G04G05G29G25G02G30
 113671028.424 8  88574972.73245  21630853.438                    21630862.742
 109204366.430 7  85094387.589 7  20780896.383                    20780904.102
 128627319.899 6 100229157.049 6  24476971.094                    24476983.223
 123080399.617 7  95906924.51544  23421398.938                    23421409.266
 107791274.398 8  83993305.694 8  20511970.086                    20511978.379
 128913843.323 6 100452395.916 5  24531495.023                    24531505.395
 117587697.314 7  91626808.498 7  22376188.438                    22376199.328
 109975595.535 8  85695405.54946  20927628.914                    20927635.262
 118344793.276 7  92216811.27944  22520269.914                    22520279.301
 11  8 27  0 49  0.0000000  0  9G10G12G17G04G05G29G25G02G30
 113738577.020 8  88627607.99845  21643707.766                    21643716.797
 109202576.230 8  85092992.634 7  20780555.750                    20780563.992
 128699497.906 6 100285399.664 6  24490706.359                    24490718.660
 123161184.896 7  95969873.98843  23436772.055                    23436782.574
 107752308.061 8  83962942.363 8  20504555.188                    20504563.379
 128833004.870 6 100389404.986 5  24516111.602                    24516122.238
 117524020.945 7  91577190.598 7  22364070.633                    22364081.551
 109999343.923 8  85713910.78446  20932148.047                    20932154.230
 118282475.132 7  92168251.75244  22508411.328                    22508420.613
 11  8 27  0 49 30.0000000  0  9G10G12G17G04G05G29G25G02G30
 113806604.025 8  88680616.04845  21656652.820                    21656661.867
 109201370.279 8  85092052.934 7  20780326.242                    20780334.332
 128771867.891 6 100341791.846 6  24504478.172                    24504490.301
 123241943.161 6  96032802.43843  23452139.195                    23452150.160
 107713894.080 8  83933009.448 8  20497245.266                    20497253.402
 128752090.874 6 100326355.211 5  24500713.938                    24500724.188
 117460805.156 7  91527931.602 7  22352041.313                    22352052.090
 110023244.772 8  85732534.82046  20936696.250                    20936702.051
 118220661.657 7  92120085.48145  22496648.680                    22496657.777
 11  8 27  0 50  0.0000000  0  8G10G12G04G05G29G25G02G30
 113875107.144 8  88733995.10945  21669688.555                    21669697.578
 109200748.958 8  85091568.798 7  20780208.047                    20780215.922
 123322673.607 6  96095709.21944  23467502.750                    23467513.305
 107676033.697 8  83903507.890 8  20490040.688                    20490048.930
 128671102.262 6 100263247.307 6  24485303.414                    24485313.516
 117398052.132 7  91479033.210 7  22340099.383                    22340110.477
 110047297.102 8  85751276.89846  20941273.508                    20941279.570
 118159355.083 7  92072314.19645  22484981.484                    22484991.180
 11  8 27  0 50 30.0000000  0  8G10G12G04G05G29G25G02G30
 113944083.202 8  88787742.68345  21682814.211                    21682823.445
 109200711.663 8  85091539.743 7  20780200.805                    20780209.004
 123403374.850 6  96158593.25343  23482859.422                    23482869.813
 107638727.412 8  83874438.108 8  20482941.516                    20482949.867
 128590038.849 6 100200081.149 6  24469876.789                    24469887.723
 117335763.357 7  91430496.558 7  22328246.258                    22328257.016
 110071499.654 8  85770136.02846  20945879.203                    20945885.063
 118098556.750 7  92024938.94145  22473412.555                    22473421.605
 11  8 27  0 51  0.0000000  0  8G10G12G04G05G29G25G02G30
 114013529.300 8  88841856.52345  21696029.180                    21696038.301
 109201258.129 8  85091965.565 7  20780304.938                    20780313.070
 123484045.930 6  96221453.76743  23498210.773                    23498221.035
 107601975.934 8  83845800.635 8  20475947.773                    20475956.172
 128508901.289 6 100136857.190 6  24454437.180                    24454447.574
 117273940.685 7  91382323.097 7  22316482.000                    22316492.902
 110095851.076 8  85789111.16546  20950512.555                    20950519.102
 118038268.349 7  91977961.03645  22461940.227                    22461949.371
 11  8 27  0 51 30.0000000  0  8G10G12G04G05G29G25G02G30
 114083442.860 8  88896334.61345  21709333.750                    21709342.395
 109202388.419 8  85092846.317 7  20780520.055                    20780528.105
 123564685.931 6  96284290.06044  23513556.211                    23513565.992
 107565779.962 8  83817596.033 8  20469059.992                    20469068.094
 128427689.949 6 100073575.765 6  24438982.547                    24438993.133
 117212586.088 7  91334514.363 7  22304806.461                    22304817.375
 110120350.004 8  85808201.24146  20955174.594                    20955180.738
 117978491.680 7  91931381.87845  22450564.695                    22450573.887
 11  8 27  0 52  0.0000000  0  8G10G12G04G05G29G25G02G30
 114153821.467 7  88951175.08545  21722726.398                    21722735.238
 109204103.063 8  85094182.415 8  20780846.180                    20780854.332
 123645294.316 7  96347101.80243  23528895.414                    23528905.191
 107530140.978 8  83789825.436 8  20462278.297                    20462286.270
 128346405.887 6 100010237.708 6  24423514.766                    24423525.855
 117151701.912 7  91287072.202 7  22293220.359                    22293231.359
 110144996.046 8  85827405.95446  20959864.617                    20959871.211
 117919229.147 7  91885203.33945  22439287.023                    22439296.625
 11  8 27  0 52 30.0000000  0  8G10G12G04G05G29G25G02G30
 114224662.692 8  89006376.03745  21736206.938                    21736215.672
 109206401.659 8  85095973.539 7  20781283.469                    20781291.133
 123725870.378 7  96409888.31443  23544228.945                    23544238.602
 107495059.877 8  83762489.564 8  20455602.180                    20455610.781
 128265049.736 7  99946843.484 6  24408033.203                    24408043.496
 117091290.174 8  91239998.161 7  22281724.500                    22281735.387
 110169788.163 8  85846724.49446  20964582.602                    20964588.953
 117860482.616 7  91839426.88145  22428108.195                    22428117.535
 11  8 27  0 53  0.0000000  0  8G10G12G04G05G29G25G02G30
 114295964.370 7  89061935.78745  21749774.734                    21749784.133
 109209284.670 8  85098220.052 7  20781832.359                    20781840.332
 123806413.408 7  96472649.09744  23559555.398                    23559565.504
 107460537.883 8  83735589.353 8  20449032.828                    20449040.973
 128183622.760 7  99883394.045 6  24392538.164                    24392548.859
 117031353.352 7  91193294.188 7  22270318.711                    22270330.195
 110194725.819 8  85866156.44146  20969328.023                    20969334.129
 117802254.450 7  91794054.33845  22417027.609                    22417037.219
 11  8 27  0 53 30.0000000  0  8G10G12G04G05G29G25G02G30
 114367723.395 8  89117851.89345  21763430.289                    21763439.172
 109212751.257 8  85100921.299 7  20782492.070                    20782499.484
 123886922.609 7  96535383.53443  23574875.063                    23574886.457
 107426575.510 8  83709125.212 8  20442570.023                    20442578.277
 128102125.170 7  99819889.580 6  24377029.883                    24377039.801
 116971893.149 8  91146961.600 7  22259004.063                    22259015.242
 110219807.690 8  85885700.76846  20974100.797                    20974107.008
 117744546.214 7  91749086.92945  22406046.344                    22406055.570
 11  8 27  0 54  0.0000000  0  8G10G12G04G05G29G25G02G30
 114439937.046 8  89174122.27245  21777172.117                    21777180.898
 109216801.326 8  85104077.212 7  20783262.125                    20783270.559
 123967397.039 7  96598090.86843  23590189.523                    23590200.078
 107393173.591 8  83683097.789 8  20436213.820                    20436221.883
 128020557.426 6  99756330.475 6  24361506.867                    24361517.828
 116912911.282 7  91101001.746 7  22247779.898                    22247790.828
 110245032.406 8  85905356.40246  20978901.102                    20978906.926
 117687359.530 7  91704525.91944  22395164.234                    22395172.598
 11  8 27  0 54 30.0000000  0  8G10G12G04G05G29G25G02G30
 114512603.151 8  89230745.20445  21790999.898                    21791009.027
 109221435.758 8  85107688.471 7  20784144.539                    20784152.297
 124047836.421 7  96660770.90244  23605496.492                    23605507.293
 107360333.482 8  83657508.136 8  20429964.563                    20429972.484
 127938920.997 6  99692717.817 6  24345972.445                    24345982.617
 116854410.466 7  91055416.732 7  22236647.617                    22236658.648
 110270400.002 8  85925123.36446  20983728.320                    20983734.453
 117630696.941 7  91660373.28945  22384381.570                    22384389.887
 11  8 27  0 55  0.0000000  0  8G10G12G04G05G29G25G02G30
 114585718.606 8  89287718.28245  21804913.336                    21804922.863
 109226653.952 8  85111754.607 7  20785137.250                    20785145.180
 124128239.710 7  96723422.79643  23620797.430                    23620807.242
 107328055.664 8  83632356.635 8  20423822.344                    20423830.371
 127857216.227 6  99629051.891 6  24330424.422                    24330435.367
 116796392.166 8  91010207.699 7  22225607.438                    22225617.977
 110295908.939 8  85945000.46746  20988582.453                    20988588.715
 117574559.838 7  91616630.12545  22373698.883                    22373707.801
 11  8 27  0 55 30.0000000  0  8G10G12G04G05G29G25G02G30
 114659281.250 7  89345039.80945  21818911.945                    21818920.773
 109232455.430 8  85116275.244 7  20786241.539                    20786249.582
 124208606.477 7  96786046.24744  23636090.914                    23636100.559
 107296341.333 8  83607644.211 8  20417786.938                    20417795.250
 127775443.879 6  99565333.298 6  24314863.148                    24314873.953
 116738858.719 7  90965376.472 7  22214658.906                    22214669.918
 110321558.667 8  85964987.28546  20993463.414                    20993469.766
 117518950.483 7  91573298.19745  22363116.852                    22363125.883
 11  8 27  0 56  0.0000000  0  8G10G12G04G05G29G25G02G30
 114733288.234 7  89402707.58445  21832994.836                    21833003.996
 109238840.121 8  85121250.333 7  20787456.414                    20787464.313
 124288935.971 7  96848640.67244  23651376.797                    23651387.012
 107265190.701 8  83583371.026 8  20411859.086                    20411867.211
 127693604.704 6  99501562.593 6  24299290.156                    24299300.172
 116681811.823 8  90920924.396 7  22203803.375                    22203814.012
 110347347.904 8  85985082.80746  20998370.813                    20998377.281
 117463870.373 7  91530378.66845  22352635.398                    22352644.336
 11  8 27  0 56 30.0000000  0  8G10G12G04G05G29G25G02G30
 114807737.118 8  89460719.69145  21847162.461                    21847171.047
 109245807.967 8  85126679.832 7  20788782.094                    20788790.215
 124369227.373 7  96911205.39844  23666654.992                    23666665.613
 107234604.763 8  83559537.873 8  20406038.953                    20406047.023
 127611699.650 6  99437740.555 6  24283703.773                    24283714.539
 116625253.570 8  90876853.051 7  22193040.594                    22193051.527
 110373275.817 8  86005286.38146  21003304.914                    21003310.863
 117409321.461 7  91487873.05845  22342254.992                    22342263.945
 11  8 27  0 57  0.0000000  0  8G10G12G04G05G29G25G02G30
 114882624.837 8  89519073.75645  21861412.813                    21861421.773
 109253358.846 8  85132563.635 7  20790219.344                    20790227.551
 124449480.069 7  96973739.95043  23681926.680                    23681937.551
 107204584.553 8  83536145.544 8  20400326.367                    20400334.508
 127529729.794 6  99373867.985 6  24268105.352                    24268115.637
 116569185.987 8  90833164.059 7  22182370.961                    22182382.363
 110399341.883 8  86025597.61446  21008265.227                    21008271.336
 117355305.605 7  91445782.82445  22331976.047                    22331984.988
 11  8 27  0 57 30.0000000  0  8G10G12G04G05G29G25G02G30
 114957949.135 8  89577768.00345  21875746.617                    21875755.988
 109261492.775 8  85138901.755 7  20791767.375                    20791774.883
 124529693.884 7  97036244.21343  23697191.156                    23697201.973
 107175131.030 8  83513194.785 8  20394721.477                    20394729.586
 127447695.752 6  99309945.430 6  24252494.969                    24252505.133
 116513611.239 8  90789859.092 7  22171795.500                    22171806.555
 110425545.615 8  86046016.11546  21013251.477                    21013257.789
 117301824.899 7  91404109.60845  22321799.117                    22321807.496
 11  8 27  0 58  0.0000000  0  8G10G12G04G05G29G25G02G30
 115033706.358 7  89636799.60145  21890162.875                    21890171.379
 109270208.517 8  85145693.240 7  20793425.797                    20793433.781
 124609867.225 7  97098716.94943  23712447.141                    23712458.449
 107146243.942 8  83490685.405 8  20389224.570                    20389232.578
 127365598.075 6  99245973.250 6  24236871.742                    24236882.039
 116458530.198 8  90746938.830 7  22161314.188                    22161324.914
 110451884.737 8  86066540.11546  21018263.273                    21018269.836
 117248880.057 7  91362853.94145  22311723.828                    22311732.738
 11  8 27  0 58 30.0000000  0  8G10G12G04G05G29G25G02G30
 115109894.626 8  89696167.06845  21904660.719                    21904669.625
 109279506.265 8  85152938.239 7  20795194.883                    20795203.164
 124689999.734 6  97161157.82143  23727695.922                    23727706.984
 107117924.147 8  83468618.072 8  20383835.500                    20383843.664
 127283437.501 6  99181952.084 6  24221236.664                    24221247.570
 116403945.228 8  90704405.107 7  22150927.125                    22150937.887
 110478358.756 8  86087169.23146  21023301.375                    21023307.582
 117196473.242 7  91322017.51645  22301751.016                    22301760.055
 11  8 27  0 59  0.0000000  0  8G10G12G04G05G29G25G02G30
 115186511.462 7  89755868.48945  21919240.672                    21919249.336
 109289385.503 8  85160636.341 7  20797074.750                    20797082.402
 124770091.139 6  97223566.65643  23742937.539                    23742948.125
 107090172.818 8  83446993.700 8  20378554.484                    20378562.488
 127201215.299 6  99117882.867 6  24205591.141                    24205600.949
 116349858.547 7  90662259.668 7  22140634.789                    22140645.152
 110504967.492 8  86107903.31446  21028364.867                    21028371.672
 117144606.611 7  91281602.01645  22291881.086                    22291890.246
 11  8 27  0 59 30.0000000  0  8G10G12G04G05G29G25G02G30
 115263553.813 8  89815901.47845  21933901.313                    21933910.074
 109299846.135 8  85168787.479 7  20799065.758                    20799073.758
 124850140.880 7  97285943.06744  23758170.406                    23758181.023
 107062990.472 8  83425812.690 8  20373381.844                    20373389.980
 127118932.313 6  99053766.312 6  24189933.039                    24189943.102
 116296271.966 8  90620503.906 7  22130437.430                    22130448.078
 110531709.975 8  86128741.62146  21033454.016                    21033459.953
 117093281.716 7  91241608.65645  22282114.094                    22282123.266
 11  8 27  1  0  0.0000000  0  8G10G12G04G05G29G25G02G30
 115341019.100 7  89876264.02245  21948642.617                    21948651.695
 109310887.547 8  85177391.172 7  20801166.508                    20801174.293
 124930147.671 6  97348285.98243  23773394.961                    23773405.883
 107036377.393 8  83405075.277 8  20368317.203                    20368325.344
 127036589.612 6  98989603.213 6  24174264.023                    24174273.895
 116243186.931 8  90579138.949 7  22120335.453                    22120346.434
 110558584.982 8  86149683.19146  21038567.938                    21038574.035
 117042499.888 7  91202038.44845  22272450.633                    22272460.016
 11  8 27  1  0 30.0000000  0  8G10G12G04G05G29G25G02G30
 115418903.538 7  89936953.17645  21963463.578                    21963472.273
 109322508.739 8  85186446.633 8  20803378.180                    20803386.121
 125010110.698 6  97410594.80144  23788611.063                    23788622.230
 107010333.458 8  83384781.334 8  20363361.273                    20363369.281
 126954186.585 6  98925393.130 6  24158582.922                    24158593.004
 116190604.628 8  90538165.744 7  22110329.328                    22110340.313
 110585590.476 8  86170726.43446  21043706.859                    21043712.977
 116992262.145 7  91162892.20845  22262890.828                    22262899.914
 11  8 27  1  1  0.0000000  0  8G10G12G04G05G29G25G02G30
 115497205.804 8  89997967.91945  21978363.555                    21978372.414
 109334710.359 8  85195954.384 7  20805699.977                    20805707.660
 125090030.627 7  97472870.03643  23803819.719                    23803830.523
 106984860.718 8  83364932.489 8  20358514.328                    20358521.934
 126871725.803 6  98861138.024 6  24142891.648                    24142901.129
 116138528.353 8  90497586.830 7  22100419.516                    22100430.426
 110612727.940 8  86191872.51946  21048871.008                    21048876.949
 116942571.567 7  91124172.31745  22253434.656                    22253443.863
 11  8 27  1  1 30.0000000  0  8G10G12G04G05G29G25G02G30
 115575922.787 8  90059305.80945  21993343.547                    21993352.023
 109347491.715 8  85205913.868 7  20808132.125                    20808139.941
 125169906.427 7  97535110.86443  23819019.508                    23819030.504
 106959959.265 8  83345528.794 8  20353775.352                    20353783.324
 126789207.931 6  98796838.466 6  24127188.188                    24127197.996
 116086959.288 8  90457403.155 7  22090606.203                    22090617.398
 110639995.884 8  86213120.26446  21054059.992                    21054065.676
 116893429.241 7  91085879.63645  22244082.859                    22244092.582
 11  8 27  1  2  0.0000000  0  8G10G12G04G05G29G25G02G30
 115655051.086 8  90120964.20645  22008400.609                    22008409.375
 109360851.806 8  85216324.323 7  20810674.656                    20810682.289
 125249737.281 7  97597316.69043  23834210.406                    23834221.316
 106935629.084 8  83326570.251 8  20349145.383                    20349153.656
 126706633.486 6  98732494.813 6  24111475.273                    24111485.398
 116035898.991 8  90417615.914 7  22080889.891                    22080900.480
 110667392.922 8  86234468.61046  21059273.055                    21059279.160
 116844836.465 7  91048015.16245  22234836.375                    22234845.625
 11  8 27  1  2 30.0000000  0  8G10G12G04G05G29G25G02G30
 115734588.487 7  90182941.39045  22023536.156                    22023545.188
 109374790.413 8  85227185.572 7  20813327.086                    20813334.559
 125329522.697 7  97659487.13143  23849393.117                    23849404.137
 106911870.980 8  83308057.486 8  20344624.133                    20344632.453
 126624003.585 7  98668107.947 6  24095751.250                    24095761.047
 115985349.448 8  90378226.658 7  22071270.445                    22071281.652
 110694918.534 8  86255917.14046  21064511.336                    21064517.762
 116796795.130 7  91010580.38345  22225694.359                    22225703.551
 11  8 27  1  3  0.0000000  0  8G10G12G04G05G29G25G02G30
 115814531.961 7  90245234.99845  22038749.375                    22038757.867
 109389306.566 8  85238496.852 7  20816089.523                    20816097.063
 125409262.002 7  97721621.62243  23864567.180                    23864578.191
 106888685.120 8  83289990.613 8  20340212.461                    20340220.477
 126541318.496 6  98603678.117 6  24080016.555                    24080026.563
 115935311.916 8  90339236.376 7  22061749.156                    22061759.285
 110722571.417 8  86277464.84746  21069773.406                    21069779.695
 116749306.176 7  90973576.00645  22216657.531                    22216666.758
 11  8 27  1  3 30.0000000  0  8G10G12G04G05G29G25G02G30
 115894878.695 7  90307842.82945  22054038.391                    22054047.535
 109404399.951 8  85250257.933 7  20818961.461                    20818969.816
 125488954.458 6  97783719.60743  23879732.383                    23879743.441
 106866071.543 8  83272369.686 8  20335909.109                    20335917.070
 126458579.510 7  98539206.272 6  24064272.008                    24064281.641
 115885788.049 8  90300646.350 7  22052324.734                    22052335.734
 110750350.615 8  86299110.97646  21075059.969                    21075065.805
 116702371.209 7  90937003.31845  22207726.023                    22207735.012
 11  8 27  1  4  0.0000000  0  8G10G12G04G05G29G25G02G30
 115975625.699 7  90370762.54845  22069404.195                    22069412.742
 109420070.103 8  85262468.435 7  20821943.469                    20821951.590
 125568599.462 7  97845780.60943  23894888.250                    23894899.008
 106844031.301 8  83255195.507 8  20331715.047                    20331722.980
 126375787.722 6  98474693.313 6  24048516.672                    24048527.223
 115836779.631 8  90262457.977 7  22042998.719                    22043009.398
 110778255.702 8  86320855.20346  21080369.969                    21080375.910
 116655991.810 7  90900863.53045  22198900.406                    22198909.723
 11  8 27  1  4 30.0000000  0  8G10G12G04G05G29G25G02G30
 116056771.123 7  90433992.74045  22084845.305                    22084854.793
 109436316.808 8  85275128.197 7  20825035.219                    20825042.953
 125648197.371 6  97907804.89244  23910035.641                    23910046.469
 106822564.705 8  83238468.324 8  20327629.961                    20327638.156
 126292944.697 6  98410140.414 6  24032752.844                    24032762.078
 115788289.159 8  90224673.206 7  22033771.250                    22033782.484
 110806286.730 8  86342697.56546  21085704.203                    21085709.871
 116610170.257 7  90865158.40945  22190181.148                    22190190.066
 11  8 27  1  5  0.0000000  0  8G10G12G04G05G29G25G02G30
 116138312.069 7  90497531.11245  22100362.461                    22100370.953
 109453138.613 8  85288236.085 7  20828236.195                    20828243.949
 125727747.452 6  97969791.95944  23925173.367                    23925184.227
 106801672.330 8  83222188.588 8  20323654.172                    20323662.332
 126210050.922 6  98345547.983 6  24016977.969                    24016988.473
 115740318.050 7  90187293.133 7  22024642.500                    22024653.777
 110834442.477 8  86364637.11646  21091061.664                    21091067.891
 116564907.737 7  90829888.90345  22181567.555                    22181576.863
 11  8 27  1  5 30.0000000  0  8G10G12G04G05G29G25G02G30
 116220245.056 7  90561374.97645  22115953.672                    22115962.582
 109470535.260 8  85301791.912 7  20831546.813                    20831554.449
 125807248.859 7  98031741.10243  23940302.383                    23940313.105
 106781354.271 8  83206356.368 8  20319787.898                    20319795.758
 126127107.300 6  98280916.677 6  24001194.414                    24001204.738
 115692867.401 8  90150318.622 7  22015613.078                    22015624.230
 110862721.913 8  86386673.04346  21096443.266                    21096449.285
 116520205.209 7  90795055.75845  22173061.547                    22173070.359
 11  8 27  1  6  0.0000000  0  8G10G12G04G05G29G25G02G30
 116302567.470 7  90625522.29045  22131619.164                    22131628.504
 109488505.910 8  85315795.015 7  20834966.430                    20834974.340
 125886701.143 6  98093651.94844  23955420.961                    23955432.645
 106761610.801 8  83190971.878 8  20316030.641                    20316038.727
 126044114.883 7  98216247.355 6  23985401.008                    23985411.348
 115645939.052 8  90113751.102 7  22006682.773                    22006693.805
 110891124.375 8  86408804.84046  21101847.922                    21101853.980
 116476064.271 7  90760660.21345  22164661.742                    22164670.504
 11  8 27  1  6 30.0000000  0  8G10G12G04G05G29G25G02G30
 116385275.918 7  90689970.40745  22147357.852                    22147367.031
 109507049.496 8  85330244.557 7  20838495.148                    20838502.570
 125966103.276 6  98155523.70243  23970531.070                    23970542.133
 106742441.395 8  83176034.709 8  20312382.883                    20312390.633
 125961074.132 7  98151540.369 6  23969599.078                    23969608.828
 115599533.919 8  90077591.278 7  21997852.047                    21997863.242
 110919648.103 8  86431031.12046  21107276.078                    21107282.289
 116432485.672 7  90726702.85945  22156368.617                    22156377.590
 11  8 27  1  7  0.0000000  0  8G10G12G04G05G29G25G02G30
 116468367.899 7  90754717.38845  22163169.945                    22163179.055
 109526165.323 8  85345140.003 7  20842132.703                    20842140.660
 126045455.088 6  98217356.24843  23985631.070                    23985642.027
 106723846.949 8  83161545.565 8  20308844.563                    20308852.156
 125877986.309 7  98086796.691 6  23953788.430                    23953797.816
 115553654.051 8  90041840.761 7  21989121.781                    21989132.445
 110948292.911 8  86453351.75446  21112726.977                    21112732.918
 116389471.254 7  90693185.11445  22148183.445                    22148192.176
 11  8 27  1  7 30.0000000  0  8G10G12G04G05G29G25G02G30
 116551841.247 7  90819761.52445  22179054.859                    22179063.770
 109545852.862 8  85360480.935 7  20845879.344                    20845886.844
 126124756.592 6  98279149.59743  24000721.391                    24000732.043
 106705827.948 8  83147504.814 8  20305415.500                    20305423.512
 125794852.729 7  98022017.369 6  23937968.094                    23937977.539
 115508301.288 8  90006500.986 7  21980491.531                    21980502.195
 110977058.641 8  86475766.60946  21118200.844                    21118207.078
 116347022.560 7  90660108.21245  22140106.047                    22140114.727
 11  8 27  1  8  0.0000000  0  8G10G12G04G05G29G25G02G30
 116635692.644 7  90885100.24645  22195011.039                    22195019.973
 109566111.033 8  85376266.523 7  20849734.313                    20849742.117
 126204007.006 6  98340903.12143  24015802.617                    24015813.102
 106688384.266 8  83133912.361 8  20302096.320                    20302104.027
 125711674.204 7  97957203.014 6  23922139.656                    23922149.492
 115463476.836 8  89971572.880 7  21971961.477                    21971972.656
 111005944.019 8  86498274.69846  21123697.453                    21123703.629
 116305140.756 7  90627473.03245  22132135.883                    22132144.773
 11  8 27  1  8 30.0000000  0  8G10G12G04G05G29G25G02G30
 116719919.282 7  90950731.36645  22211038.891                    22211048.008
 109586939.569 8  85392496.545 7  20853697.781                    20853705.695
 126283205.981 6  98402616.60643  24030873.367                    24030884.410
 106671516.276 8  83120768.501 8  20298886.219                    20298893.930
 125628451.898 7  97892354.544 6  23906303.398                    23906312.730
 115419182.512 8  89937057.856 7  21963532.383                    21963543.332
 111034948.681 8  86520875.72546  21129216.953                    21129223.184
 116263827.307 7  90595280.73745  22124274.164                    22124283.078
 11  8 27  1  9  0.0000000  0  8G10G12G04G05G29G25G02G30
 116804518.353 7  91016652.68845  22227137.242                    22227146.309
 109608337.104 8  85409169.942 7  20857769.727                    20857777.281
 126362352.719 6  98464289.36443  24045935.078                    24045946.141
 106655223.737 8  83108073.040 8  20295785.742                    20295793.746
 125545186.692 7  97827472.634 6  23890458.133                    23890467.844
 115375419.511 8  89902956.852 7  21955204.641                    21955215.406
 111064071.425 8  86543568.78146  21134758.617                    21134765.242
 116223083.215 8  90563532.09545  22116520.977                    22116529.902
 11  8 27  1  9 30.0000000  0  8G10G12G04G05G29G25G02G30
 116889486.874 7  91082861.89145  22243306.109                    22243315.324
 109630302.789 8  85426286.062 7  20861949.609                    20861957.164
 126441446.860 6  98525921.14243  24060986.008                    24060997.172
 106639506.795 8  83095826.104 8  20292795.008                    20292802.750
 125461879.635 7  97762558.121 6  23874604.563                    23874615.086
 115332189.007 8  89869270.784 7  21946978.023                    21946988.855
 111093311.516 8  86566353.27246  21140323.281                    21140329.145
 116182909.502 7  90532227.91645  22108875.852                    22108885.043
 11  8 27  1 10  0.0000000  0  8G10G12G04G05G29G25G02G30
 116974822.372 7  91149357.06245  22259545.406                    22259554.281
 109652836.060 8  85443844.440 7  20866237.391                    20866244.965
 126520488.455 6  98587511.93943  24076027.328                    24076038.305
 106624365.878 8  83084028.013 8  20289913.898                    20289921.266
 125378532.015 7  97697611.980 6  23858744.695                    23858754.320
 115289493.148 8  89836001.319 7  21938853.289                    21938864.188
 111122668.953 8  86589229.19546  21145909.672                    21145915.656
 116143307.882 7  90501369.52345  22101340.039                    22101348.938
 11  8 27  1 10 30.0000000  0  8G10G12G04G05G29G25G02G30
 117060521.718 7  91216135.74345  22275853.117                    22275862.523
 109675935.446 8  85461843.958 7  20870633.242                    20870640.586
 126599476.766 6  98649061.22343  24091057.859                    24091069.281
 106609801.038 8  83072678.812 8  20287141.906                    20287149.797
 125295144.927 7  97632635.112 6  23842876.164                    23842886.418
 115247332.913 8  89803149.227 7  21930830.516                    21930841.492
 111152142.492 8  86612195.59146  21151518.320                    21151524.273
 116104279.321 7  90470957.67745  22093913.273                    22093922.180
 11  8 27  1 11  0.0000000  0  8G10G12G04G05G29G25G02G30
 117146581.947 7  91283195.63844  22292229.961                    22292239.027
 109699600.310 8  85480284.099 7  20875136.391                    20875144.023
 126678411.332 6  98710568.63343  24106078.750                    24106089.633
 106595811.973 8  83061778.272 8  20284479.789                    20284487.605
 125211719.351 7  97567628.228 6  23827001.172                    23827010.961
 115205709.838 8  89770715.688 7  21922909.633                    21922920.770
 111181731.426 8  86635251.91046  21157149.133                    21157155.164
 116065825.136 7  90440993.39845  22086595.641                    22086604.676
 11  8 27  1 11 30.0000000  0  8G10G12G04G05G29G25G02G30
 117232999.975 7  91350534.35544  22308674.656                    22308683.641
 109723829.509 8  85499163.986 7  20879747.047                    20879754.574
 126757291.822 6  98772033.90543  24121089.141                    24121100.594
 106582398.772 8  83051326.466 8  20281927.273                    20281935.367
 125128256.412 7  97502592.243 6  23811118.352                    23811128.641
 115164625.216 8  89738701.727 7  21915091.875                    21915102.211
 111211435.118 8  86658397.64146  21162801.359                    21162807.141
 116027946.276 7  90411477.42945  22079387.477                    22079396.188
 11  8 27  1 12  0.0000000  0  8G10G12G04G05G29G25G02G30
 117319773.522 7  91418150.07845  22325187.820                    22325196.230
 109748622.116 8  85518482.894 7  20884464.828                    20884472.570
 126836117.913 6  98833456.75643  24136089.250                    24136100.762
 106569561.628 8  83041323.521 8  20279484.938                    20279493.039
 125044757.259 7  97437528.020 6  23795228.984                    23795238.898
 115124080.502 8  89707108.465 7  21907376.445                    21907386.961
 111241253.076 8  86681632.41746  21168475.383                    21168481.492
 115990643.942 7  90382410.69945  22072289.242                    22072297.871
 11  8 27  1 12 30.0000000  0  9G10G12G26G04G05G29G25G02G30
 117406899.486 7  91486040.43245  22341766.852                    22341775.750
 109773977.245 8  85538240.129 7  20889289.773                    20889297.574
 130623677.28215 101784767.95853  24856867.938                    24856880.672
 126914889.101 6  98894836.80743  24151079.477                    24151090.543
 106557300.513 8  83031769.433 8  20277151.414                    20277159.703
 124961222.924 7  97372436.389 6  23779333.695                    23779343.250
 115084076.987 7  89675936.927 7  21899763.609                    21899774.828
 111271184.428 8  86704955.55246  21174170.891                    21174177.133
 115953919.220 7  90353794.06545  22065301.000                    22065309.609
 11  8 27  1 13  0.0000000  0  9G10G12G26G04G05G29G25G02G30
 117494374.517 7  91554202.77345  22358413.031                    22358421.793
 109799893.191 8  85558434.370 7  20894221.336                    20894229.355
 130532175.011 5 101713467.82043  24839454.016                    24839468.691
 126993604.576 6  98956173.45643  24166058.164                    24166069.461
 106545614.657 8  83022663.606 8  20274927.656                    20274935.699
 124877654.465 7  97307318.151 6  23763430.609                    23763440.188
 115044615.527 8  89645187.757 7  21892254.469                    21892265.465
 111301228.147 8  86728366.24546  21179888.313                    21179894.383
 115917772.685 7  90325627.96745  22058422.086                    22058430.824
 11  8 27  1 13 30.0000000  0  9G10G12G26G04G05G29G25G02G30
 117582196.001 7  91622635.09545  22375124.945                    22375133.902
 109826368.978 8  85579064.846 7  20899259.766                    20899267.645
 130440527.868 6 101642054.77243  24822014.820                    24822028.578
 127072264.142 6  99017466.56343  24181026.844                    24181037.949
 106534504.297 8  83014006.209 8  20272813.586                    20272821.570
 124794052.781 7  97242174.049 6  23747521.586                    23747531.078
 115005697.507 8  89614862.043 7  21884848.508                    21884859.574
 111331383.375 8  86751863.82546  21185626.672                    21185632.926
 115882205.527 7  90297913.32745  22051653.711                    22051662.613
 11  8 27  1 14  0.0000000  0  9G10G12G26G04G05G29G25G02G30
 117670361.148 7  91691335.19345  22391902.164                    22391911.078
 109853403.684 8  85600130.844 7  20904403.953                    20904411.973
 130348739.074 5 101570531.32043  24804547.586                    24804561.297
 127150867.843 6  99078716.07643  24195984.609                    24195995.988
 106523969.523 8  83005797.331 8  20270808.742                    20270816.816
 124710419.184 7  97177005.060 6  23731606.555                    23731616.223
 114967324.548 8  89584961.054 7  21877546.352                    21877557.234
 111361649.923 8  86775448.14846  21191386.148                    21191392.121
 115847219.055 7  90270651.17145  22044996.211                    22045005.203
 11  8 27  1 14 30.0000000  0  9G10G12G26G04G05G29G25G02G30
 117758867.363 7  91760301.07045  22408744.375                    22408753.301
 109880996.603 7  85621631.813 7  20909655.016                    20909662.797
 130256811.405 6 101498899.64342  24787054.531                    24787067.949
 127229415.398 6  99139921.91643  24210931.742                    24210943.055
 106514010.530 8  82998037.113 8  20268913.766                    20268921.695
 124626755.241 7  97111812.437 6  23715685.695                    23715695.945
 114929498.093 8  89555485.921 7  21870348.219                    21870358.785
 111392027.518 7  86799119.00246  21197166.945                    21197173.023
 115812814.514 7  90243842.46645  22038449.031                    22038458.430
 11  8 27  1 15  0.0000000  0  9G10G12G26G04G05G29G25G02G30
 117847711.465 7  91829530.23145  22425650.859                    22425659.801
 109909146.256 8  85643566.605 7  20915011.516                    20915019.301
 130164747.533 6 101427161.82843  24769534.602                    24769548.289
 127307906.079 6  99201083.40443  24225868.391                    24225878.723
 106504626.526 8  82990724.941 8  20267127.820                    20267135.637
 124543061.943 7  97046596.934 6  23699759.813                    23699769.332
 114892219.024 8  89526437.312 7  21863254.703                    21863265.195
 111422514.988 8  86822875.47646  21202968.867                    21202974.977
 115778992.480 7  90217487.65545  22032012.727                    22032022.113
 11  8 27  1 15 30.0000000  0  9G10G12G26G04G05G29G25G02G30
 117936890.553 7  91899020.41644  22442620.586                    22442629.891
 109937851.332 7  85665934.191 7  20920474.086                    20920481.762
 130072550.184 6 101355320.00343  24751989.695                    24752003.613
 127386339.736 7  99262200.46743  24240793.969                    24240804.676
 106495817.361 8  82983860.687 8  20265451.773                    20265459.645
 124459340.194 7  96981359.266 6  23683827.977                    23683837.113
 114855488.541 8  89497816.163 7  21856264.742                    21856275.359
 111453111.807 7  86846717.15246  21208790.750                    21208796.941
 115745753.844 7  90191587.43845  22025688.047                    22025696.828
 11  8 27  1 16  0.0000000  0  9G10G12G26G04G05G29G25G02G30
 118026401.919 7  91968769.52244  22459654.313                    22459663.285
 109967110.817 7  85688733.781 7  20926041.953                    20926049.652
 129980222.258 6 101283376.39943  24734420.313                    24734433.723
 127464715.983 7  99323272.81243  24255708.414                    24255719.281
 106487583.154 8  82977444.458 8  20263884.492                    20263892.012
 124375591.631 7  96916100.694 6  23667891.188                    23667900.250
 114819308.065 8  89469623.599 7  21849379.797                    21849390.609
 111483817.355 7  86870643.55346  21214633.695                    21214639.824
 115713099.833 7  90166142.76745  22019473.992                    22019482.828
 11  8 27  1 16 30.0000000  0  9G10G12G26G04G05G29G25G02G30
 118116242.907 7  92038775.46744  22476750.844                    22476759.711
 109996923.345 8  85711964.322 7  20931714.820                    20931722.445
 129887766.630 6 101211333.27043  24716826.406                    24716840.094
 127543034.562 7  99384300.23443  24270611.969                    24270623.254
 106479923.575 8  82971475.987 8  20262427.250                    20262434.898
 124291817.327 7  96850822.071 6  23651949.500                    23651958.949
 114783678.691 8  89441860.464 7  21842600.203                    21842610.715
 111514631.124 8  86894654.28246  21220497.281                    21220503.609
 115681031.303 7  90141154.31445  22013371.555                    22013380.215
 11  8 27  1 17  0.0000000  0  9G10G12G26G04G05G29G25G02G30
 118206410.150 7  92109035.62844  22493908.797                    22493917.879
 110027287.566 8  85735624.747 7  20937493.391                    20937500.770
 129795186.140 6 101139192.86843  24699209.508                    24699222.254
 127621295.226 7  99445282.51343  24285504.703                    24285515.621
 106472838.310 8  82965955.038 8  20261078.680                    20261086.781
 124208018.325 7  96785524.206 6  23636002.773                    23636012.684
 114748601.438 8  89414527.559 7  21835924.867                    21835935.895
 111545552.429 8  86918748.80246  21226381.719                    21226388.117
 115649548.853 7  90116622.54945  22007380.469                    22007389.082
 11  8 27  1 17 30.0000000  0  9G10G12G26G04G05G29G25G02G30
 118296900.849 7  92179547.84644  22511128.102                    22511137.676
 110058202.480 8  85759714.282 7  20943375.906                    20943383.660
 129702483.753 6 101066957.46243  24681568.000                    24681581.746
 127699497.590 7  99506219.34043  24300386.242                    24300396.820
 106466327.191 8  82960881.472 8  20259839.438                    20259847.594
 124124195.947 7  96720208.122 6  23620052.102                    23620061.070
 114714077.480 8  89387625.783 7  21829355.133                    21829365.762
 111576580.602 8  86942926.60346  21232286.328                    21232292.617
 115618653.506 7  90092548.25745  22001501.344                    22001510.402
 11  8 27  1 18  0.0000000  0  9G10G12G26G04G05G29G25G02G30
 118387712.083 7  92250309.81344  22528409.313                    22528418.691
 110089667.118 8  85784232.185 7  20949363.305                    20949371.387
 129609662.089 6 100994629.10843  24663904.664                    24663917.340
 127777641.271 7  99567110.47543  24315256.203                    24315267.438
 106460389.574 8  82956254.785 8  20258709.820                    20258717.883
 124040351.329 7  96654874.699 6  23604096.688                    23604106.156
 114680107.840 8  89361155.958 7  21822890.852                    21822901.496
 111607714.937 8  86967187.12046  21238210.578                    21238216.605
 115588346.018 7  90068932.02645  21995733.734                    21995742.898
 11  8 27  1 18 30.0000000  0  9G10G12G26G04G05G29G25G02G30
 118478841.312 7  92321319.55244  22545750.664                    22545760.043
 110121679.205 7  85809176.672 7  20955455.234                    20955463.188
 129516724.375 6 100922210.33343  24646218.820                    24646231.551
 127855726.310 6  99627955.86643  24330115.555                    24330125.992
 106455025.631 8  82952075.120 8  20257688.711                    20257696.816
 123956485.729 7  96589524.938 6  23588137.367                    23588147.039
 114646693.803 8  89335119.053 7  21816532.563                    21816543.508
 111638955.215 8  86991530.18446  21244155.672                    21244161.391
 115558627.312 7  90045774.60245  21990078.750                    21990087.789
 11  8 27  1 19  0.0000000  0  9G10G12G26G04G05G29G25G02G30
 118570285.211 7  92392574.49044  22563151.906                    22563161.410
 110154237.831 7  85834547.030 7  20961650.945                    20961658.711
 129423673.384 6 100849703.26143  24628511.352                    24628525.023
 127933752.160 6  99688755.15343  24344963.422                    24344974.766
 106450235.087 8  82948342.252 8  20256777.102                    20256785.211
 123872600.943 7  96524160.242 6  23572174.383                    23572184.301
 114613836.349 8  89309515.871 7  21810279.867                    21810290.340
 111670300.794 7  87015955.31046  21250120.773                    21250126.672
 115529498.113 7  90023076.53045  21984535.422                    21984544.742
 11  8 27  1 19 30.0000000  0  9G10G12G26G04G05G29G25G02G30
 118662040.667 7  92464072.20844  22580612.484                    22580621.727
 110187341.257 7  85860341.903 7  20967950.492                    20967958.535
 129330511.670 6 100777109.93142  24610783.859                    24610795.633
 128011718.283 6  99749507.90743  24359799.922                    24359810.945
 106446016.344 8  82945054.942 8  20255974.508                    20255982.434
 123788697.423 7  96458780.951 6  23556208.586                    23556217.746
 114581536.002 8  89284346.782 7  21804133.352                    21804144.168
 111701750.260 8  87040461.38146  21256104.961                    21256111.266
 115500958.742 7  90000838.06845  21979104.875                    21979113.672
 11  8 27  1 20  0.0000000  0  9G10G12G26G04G05G29G25G02G30
 118754105.488 7  92535810.99744  22598131.828                    22598140.996
 110220988.425 8  85886560.463 7  20974353.250                    20974361.289
 129237242.439 6 100704432.83742  24593034.734                    24593047.105
 128089624.758 6  99810214.18843  24374625.219                    24374636.488
 106442369.864 8  82942213.550 8  20255280.672                    20255288.457
 123704776.830 7  96393388.347 6  23540238.445                    23540247.898
 114549794.233 8  89259612.962 7  21798093.164                    21798103.953
 111733303.923 8  87065048.64546  21262109.578                    21262115.773
 115473010.224 7  89979060.01445  21973786.344                    21973795.449
 11  8 27  1 20 30.0000000  0  9G10G12G26G04G05G29G25G02G30
 118846476.332 7  92607788.23245  22615709.445                    22615718.801
 110255177.781 8  85913201.512 7  20980859.242                    20980867.383
 129143868.616 6 100631674.21042  24575265.828                    24575279.418
 128167471.199 6  99870873.70343  24389438.977                    24389450.125
 106439294.928 8  82939817.521 8  20254695.234                    20254703.488
 123620840.295 7  96327983.329 6  23524266.133                    23524275.574
 114518611.784 8  89235314.970 7  21792159.492                    21792169.766
 111764960.951 7  87089716.44846  21268133.828                    21268140.180
 115445653.150 7  89957742.83345  21968580.344                    21968589.121
 11  8 27  1 21  0.0000000  0  9G10G12G26G04G05G29G25G02G30
 118939150.279 7  92680001.67044  22633344.367                    22633353.488
 110289908.065 7  85940264.072 7  20987468.398                    20987475.965
 129050393.031 6 100558836.31642  24557478.555                    24557490.945
 128245257.618 7  99931486.44743  24404240.969                    24404252.754
 106436791.312 8  82937866.667 8  20254219.117                    20254226.539
 123536889.397 7  96262567.124 6  23508290.492                    23508300.379
 114487989.757 8  89211453.671 7  21786331.930                    21786342.805
 111796720.775 7  87114464.35946  21274177.266                    21274183.605
 115418888.267 7  89936887.08645  21963487.367                    21963496.238
 11  8 27  1 21 30.0000000  0  9G10G12G26G04G05G29G25G02G30
 119032124.262 7  92752448.88244  22651036.992                    22651046.648
 110325177.479 8  85967746.717 7  20994179.883                    20994187.813
 128956818.690 6 100485921.48443  24539671.227                    24539684.336
 128322983.265 7  99992051.86243  24419031.852                    24419043.313
 106434858.238 8  82936360.405 8  20253851.102                    20253858.969
 123452925.150 7  96197140.518 6  23492312.914                    23492322.367
 114457928.830 8  89188029.597 7  21780611.758                    21780622.223
 111828582.619 7  87139291.77046  21280240.641                    21280246.645
 115392715.903 7  89916493.05445  21958507.125                    21958515.840
 11  8 27  1 22  0.0000000  0  9G10G12G26G04G05G29G25G02G30
 119125395.567 7  92825127.77844  22668785.953                    22668795.277
 110360984.789 8  85995648.513 7  21000993.695                    21001001.758
 128863148.609 6 100412932.05543  24521846.023                    24521859.430
 128400648.584 7 100052570.25743  24433811.094                    24433822.352
 106433495.482 8  82935298.534 8  20253591.859                    20253599.785
 123368949.071 7  96131704.686 6  23476332.570                    23476341.859
 114428430.242 8  89165043.701 7  21774998.008                    21775009.008
 111860546.320 7  87164198.54646  21286323.258                    21286329.789
 115367137.139 7  89896561.57345  21953639.586                    21953648.227
 11  8 27  1 22 30.0000000  0  9G10G12G26G04G05G29G25G02G30
 119218961.471 7  92898036.23144  22686591.188                    22686600.184
 110397328.084 8  86023967.952 7  21007909.492                    21007917.496
 128769385.669 6 100339870.26643  24504003.563                    24504016.434
 128478252.984 6 100113041.25042  24448578.672                    24448589.855
 106432702.214 8  82934680.428 8  20253440.461                    20253448.637
 123284962.297 7  96066260.529 6  23460350.422                    23460360.039
 114399494.675 8  89142496.531 7  21769491.844                    21769502.563
 111892611.043 7  87189184.03846  21292424.648                    21292430.883
 115342152.190 7  89877092.79645  21948884.891                    21948893.727
 11  8 27  1 23  0.0000000  0  9G10G12G26G04G05G29G25G02G30
 119312819.031 7  92971171.96144  22704451.883                    22704461.074
 110434206.321 8  86052704.224 7  21014927.305                    21014935.426
 128675533.102 6 100266738.63643  24486143.813                    24486156.723
 128555796.236 6 100173464.55942  24463334.148                    24463345.535
 106432478.031 8  82934505.756 8  20253398.352                    20253405.949
 123200966.183 7  96000809.085 6  23444366.438                    23444375.883
 114371122.984 8  89120388.743 7  21764092.859                    21764103.402
 111924776.531 8  87214248.05546  21298545.664                    21298551.656
 115317761.789 7  89858087.30745  21944243.805                    21944252.426
 11  8 27  1 23 30.0000000  0  9G10G12G26G04G05G29G25G02G30
 119406965.525 7  93044532.82844  22722366.758                    22722376.281
 110471617.753 8  86081855.985 7  21022046.688                    21022054.473
 128581593.652 6 100193539.29643  24468268.047                    24468280.281
 128633277.840 6 100233839.81042  24478078.789                    24478088.984
 106432822.398 8  82934774.116 8  20253463.773                    20253471.695
 123116962.384 6  95935351.666 6  23428380.492                    23428390.160
 114343316.089 8  89098721.041 7  21758801.469                    21758811.809
 111957042.076 7  87239390.03546  21304685.547                    21304691.750
 115293966.405 7  89839545.47245  21939715.008                    21939724.301
 11  8 27  1 24  0.0000000  0  9G10G12G26G04G05G29G25G02G30
 119501397.775 6  93118116.35444  22740337.367                    22740346.324
 110509560.768 8  86111421.956 7  21029266.836                    21029274.691
 128487570.283 6 100120274.57343  24450375.469                    24450388.520
 128710698.063 6 100294167.23442  24492811.141                    24492822.566
 106433734.824 8  82935485.117 8  20253637.359                    20253644.961
 123032952.061 6  95869889.168 6  23412394.102                    23412403.727
 114316074.658 8  89077493.970 7  21753617.688                    21753628.230
 111989407.189 7  87264609.60846  21310844.789                    21310850.520
 115270766.455 7  89821467.61345  21935300.461                    21935309.004
 11  8 27  1 24 30.0000000  0  9G10G12G26G04G05G29G25G02G30
 119596113.130 6  93191920.48444  22758360.500                    22758370.375
 110548034.147 8  86141401.189 7  21036588.227                    21036596.250
 128393466.342 6 100046947.04643  24432467.969                    24432480.875
 128788056.770 6 100354446.69942  24507532.047                    24507543.980
 106435214.968 8  82936638.500 8  20253919.039                    20253926.957
 122948936.667 6  95804422.697 6  23396406.648                    23396415.723
 114289399.805 8  89056708.383 7  21748541.813                    21748551.922
 112021871.609 7  87289906.56546  21317022.359                    21317028.398
 115248162.661 7  89803854.29445  21930998.797                    21931007.855
 11  8 27  1 25  0.0000000  0  9G10G12G26G04G05G29G25G02G30
 119691108.096 6  93265942.50244  22776437.641                    22776447.016
 110587035.610 8  86171791.926 7  21044009.875                    21044017.797
 128299284.546 6  99973558.86643  24414544.883                    24414558.004
 128865353.395 6 100414677.83242  24522241.016                    24522252.973
 106437261.266 8  82938233.039 8  20254308.648                    20254316.340
 122864917.381 6  95738953.195 6  23380418.125                    23380427.574
 114263291.852 8  89036364.539 7  21743573.461                    21743584.035
 112054434.479 7  87315280.23446  21323218.852                    21323224.496
 115226155.105 7  89786705.57645  21926811.063                    21926820.125
 11  8 27  1 25 30.0000000  0  9G10G12G26G04G05G29G25G02G30
 119786379.848 6  93340180.17844  22794567.523                    22794577.039
 110626563.404 8  86202592.791 7  21051531.680                    21051539.836
 128205027.715 6  99900112.21443  24396608.305                    24396621.758
 128942587.749 6 100474860.42143  24536938.430                    24536949.941
 106439873.064 8  82940268.223 8  20254805.461                    20254813.465
 122780895.747 6  95673481.861 6  23364429.117                    23364438.652
 114237751.404 8  89016462.899 7  21738713.000                    21738724.090
 112087095.019 7  87340730.01346  21329433.680                    21329439.762
 115204744.024 7  89770021.63745  21922737.016                    21922745.969
 11  8 27  1 26  0.0000000  0  9G10G12G26G04G05G29G25G02G30
 119881926.031 6  93414631.71344  22812749.555                    22812758.563
 110666616.786 8  86233803.201 7  21059153.734                    21059161.668
 128110699.647 6  99826610.01343  24378658.977                    24378671.094
 129019760.130 6 100534994.68143  24551624.227                    24551635.469
 106443050.744 8  82942744.352 8  20255409.945                    20255417.969
 122696873.115 7  95608009.754 6  23348440.000                    23348449.438
 114212779.870 8  88997004.565 7  21733961.266                    21733971.918
 112119853.590 7  87366256.17846  21335667.516                    21335673.516
 115183930.533 7  89753803.34745  21918776.281                    21918785.195
 11  8 27  1 26 30.0000000  0  9G10G12G26G04G05G29G25G02G30
 119977743.219 6  93489294.40944  22830982.664                    22830992.418
 110707193.095 8  86265421.086 7  21066874.969                    21066883.160
 128016302.931 6  99753054.36543  24360695.531                    24360707.551
 129096869.854 6 100595080.12443  24566298.016                    24566308.707
 106446792.491 8  82945660.021 8  20256122.281                    20256130.160
 122612850.684 7  95542537.782 6  23332451.938                    23332460.570
 114188377.336 8  88977989.607 7  21729317.602                    21729328.582
 112152709.010 7  87391857.81146  21341919.914                    21341925.637
 115163714.398 8  89738050.53445  21914929.133                    21914938.496
 11  8 27  1 27  0.0000000  0  9G10G12G26G04G05G29G25G02G30
 120073828.746 7  93564166.19244  22849266.977                    22849276.402
 110748290.968 8  86297445.383 7  21074695.680                    21074703.445
 127921840.711 6  99679447.64843  24342719.719                    24342732.406
 129173917.179 6 100655116.97343  24580959.328                    24580970.523
 106451098.020 8  82949014.989 8  20256941.117                    20256948.914
 122528830.099 7  95477067.261 6  23316462.789                    23316472.137
 114164544.617 8  88959418.666 7  21724782.406                    21724792.844
 112185661.097 7  87417534.76246  21348190.180                    21348195.863
 115144096.147 8  89722763.60645  21911196.055                    21911204.719
 11  8 27  1 27 30.0000000  0  9G10G12G26G04G05G29G25G02G30
 120170179.573 7  93639244.71644  22867602.375                    22867611.980
 110789908.567 8  86329874.656 7  21082615.250                    21082623.422
 127827315.848 6  99605792.09043  24324732.398                    24324744.004
 129250901.458 7 100715104.68443  24595608.984                    24595620.055
 106455966.018 8  82952808.253 8  20257867.734                    20257875.398
 122444812.691 7  95411599.209 6  23300474.336                    23300483.539
 114141282.140 8  88941292.056 7  21720355.570                    21720366.063
 112218709.290 7  87443286.61146  21354479.344                    21354484.922
 115125075.800 8  89707942.56745  21907576.289                    21907585.246
 11  8 27  1 28  0.0000000  0  9G10G12G26G04G05G29G25G02G30
 120266792.941 7  93714527.81044  22885986.938                    22885996.734
 110832044.131 8  86362707.542 7  21090633.563                    21090641.211
 127732731.463 6  99532090.18543  24306732.773                    24306745.016
 129327822.832 6 100775043.37243  24610246.719                    24610257.898
 106461395.984 8  82957039.405 8  20258900.594                    20258908.512
 122360800.008 7  95346134.829 6  23284487.078                    23284496.652
 114118590.603 8  88923610.337 7  21716037.477                    21716048.379
 112251853.076 7  87469112.94746  21360786.039                    21360791.941
 115106653.752 8  89693587.73845  21904070.719                    21904079.711
 11  8 27  1 28 30.0000000  0  9G10G12G26G04G05G29G25G02G30
 120363666.047 7  93790013.29344  22904422.313                    22904430.738
 110874696.067 8  86395942.802 7  21098750.188                    21098757.754
 127638090.947 6  99458344.47343  24288723.133                    24288735.648
 129404681.139 6 100834932.95243  24624871.570                    24624883.891
 106467387.294 8  82961707.968 8  20260041.078                    20260048.758
 122276793.376 7  95280675.165 6  23268501.586                    23268510.477
 114096470.668 8  88906374.018 7  21711828.250                    21711839.113
 112285091.940 7  87495013.36046  21367111.453                    21367117.008
 115088830.337 8  89679699.36945  21900679.008                    21900688.195
 11  8 27  1 29  0.0000000  0  9G10G12G26G04G05G29G25G02G30
 120460796.236 7  93865699.10344  22922905.148                    22922914.152
 110917862.446 8  86429578.917 7  21106963.945                    21106972.113
 127543397.336 6  99384557.43043  24270703.570                    24270715.500
 129481476.360 6 100894773.32043  24639486.242                    24639497.379
 106473939.325 8  82966813.464 8  20261287.594                    20261295.313
 122192794.517 7  95215221.565 6  23252517.242                    23252525.965
 114074923.083 8  88889583.689 7  21707727.914                    21707738.441
 112318425.917 8  87520987.88446  21373454.422                    21373460.629
 115071605.977 8  89666277.80645  21897401.531                    21897409.992
 11  8 27  1 29 30.0000000  0  9G10G12G26G04G05G29G25G02G30
 120558180.258 7  93941582.71844  22941436.250                    22941445.875
 110961541.346 8  86463614.400 7  21115275.883                    21115284.000
 127448653.524 7  99310731.23943  24252674.617                    24252686.742
 129558208.285 6 100954564.38543  24654088.523                    24654098.887
 106481050.620 8  82972354.746 8  20262641.148                    20262648.809
 122108804.701 7  95149775.010 6  23236534.102                    23236543.609
 114053948.008 8  88873239.469 7  21703736.461                    21703747.328
 112351854.079 8  87547035.79946  21379815.508                    21379821.813
 115054980.436 8  89653322.84145  21894237.539                    21894246.848
 11  8 27  1 30  0.0000000  0  9G10G12G26G04G05G29G25G02G30
 120655815.426 7  94017662.02944  22960015.586                    22960025.387
 111005730.804 8  86498047.716 7  21123684.992                    21123692.977
 127353862.728 7  99236868.48343  24234636.367                    24234648.113
 129634876.549 6 101014305.88643  24668676.242                    24668688.613
 106488720.365 8  82978331.187 8  20264100.602                    20264108.215
 122024825.560 7  95084336.777 6  23220553.344                    23220562.879
 114033546.086 8  88857341.873 7  21699854.133                    21699864.711
 112385376.206 8  87573156.93946  21386194.898                    21386200.676
 115038954.043 8  89640834.74245  21891188.047                    21891196.445
 11  8 27  1 30 30.0000000  0  8G10G12G26G05G29G25G02G30
 120753699.338 7  94093935.15744  22978642.625                    22978651.957
 111050429.739 8  86532878.034 7  21132190.836                    21132199.164
 127259029.039 7  99162972.24843  24216589.984                    24216601.586
 106496948.778 8  82984742.950 8  20265666.297                    20265674.035
 121940858.860 6  95018908.236 6  23204575.109                    23204584.547
 114013718.493 8  88841891.797 7  21696081.000                    21696091.680
 112418992.575 8  87599351.51046  21392592.148                    21392597.613
 115023527.637 8  89628814.16445  21888252.453                    21888261.191
 11  8 27  1 31  0.0000000  0  8G10G12G26G05G29G25G02G30
 120851828.464 6  94170399.36644  22997315.859                    22997325.703
 111095635.334 8  86568103.156 7  21140793.781                    21140801.355
 127164154.364 7  99089044.10243  24198535.688                    24198547.309
 106505733.411 8  82991588.135 8  20267337.875                    20267345.508
 121856905.565 7  94953490.127 6  23188598.977                    23188608.184
 113994464.722 8  88826888.858 7  21692417.141                    21692427.879
 112452701.650 8  87625618.32046  21399006.477                    21399012.328
 115008700.404 8  89617260.47445  21885430.742                    21885439.602
 11  8 27  1 31 30.0000000  0  8G10G12G26G05G29G25G02G30
 120950199.861 7  94247052.35844  23016035.266                    23016044.973
 111141345.937 8  86603721.788 7  21149491.945                    21149499.781
 127069242.249 7  99015086.74543  24180474.164                    24180485.621
 106515073.643 8  82998866.250 8  20269115.352                    20269123.227
 121772967.123 7  94888083.616 6  23172626.078                    23172635.109
 113975785.345 8  88812333.504 7  21688862.570                    21688873.535
 112486503.492 8  87651957.42346  21405438.805                    21405444.531
 114994472.475 8  89606173.77345  21882723.141                    21882732.180
 11  8 27  1 32  0.0000000  0  8G10G12G26G05G29G25G02G30
 121048810.743 7  94323891.98144  23034800.805                    23034809.531
 111187559.846 8  86639732.608 7  21158285.930                    21158294.328
 126974295.837 7  98941102.68543  24162406.836                    24162418.719
 106524968.725 8  83006576.719 8  20270998.367                    20271006.281
 121689045.375 7  94822690.094 6  23156656.859                    23156665.504
 113957680.941 8  88798226.180 7  21685417.453                    21685427.910
 112520397.631 8  87678368.43746  21411888.531                    21411894.773
 114980844.188 8  89595554.31945  21880130.133                    21880139.105
 11  8 27  1 32 30.0000000  0  8G10G12G26G05G29G25G02G30
 121147658.275 6  94400915.98944  23053610.461                    23053619.375
 111234274.592 8  86676133.687 7  21167175.375                    21167183.742
 126879318.222 7  98867094.34043  24144332.953                    24144344.512
 106535417.281 8  83014718.471 8  20272986.328                    20272994.273
 121605141.589 7  94757310.579 6  23140689.719                    23140698.902
 113940151.696 8  88784567.040 7  21682081.383                    21682092.594
 112554383.538 8  87704850.96046  21418355.609                    21418361.785
 114967815.338 8  89585401.96745  21877650.883                    21877660.020
 11  8 27  1 33  0.0000000  0  8G10G12G26G05G29G25G02G30
 121246739.759 7  94478122.30444  23072464.883                    23072474.168
 111281488.962 8  86712924.088 7  21176160.117                    21176168.145
 126784312.892 6  98793064.39543  24126253.719                    24126265.191
 106546418.942 8  83023291.215 8  20275080.156                    20275087.816
 121521257.587 7  94691946.479 6  23124727.273                    23124736.238
 113923198.286 8  88771356.593 7  21678855.492                    21678866.375
 112588461.316 8  87731405.06646  21424840.664                    21424846.852
 114955386.184 8  89575716.90845  21875285.664                    21875294.590
 11  8 27  1 33 30.0000000  0  8G10G12G26G05G29G25G02G30
 121346051.915 6  94555508.37844  23091363.695                    23091373.355
 111329200.929 8  86750102.223 7  21185239.578                    21185247.484
 126689283.003 6  98719015.28543  24108169.742                    24108181.926
 106557972.225 8  83032293.797 8  20277278.711                    20277286.863
 121437394.823 7  94626598.923 6  23108768.742                    23108778.031
 113906820.774 8  88758594.910 7  21675738.789                    21675749.395
 112622630.314 8  87758030.27146  21431342.375                    21431348.766
 114943556.558 8  89566499.01545  21873034.508                    21873043.527
 11  8 27  1 34  0.0000000  0  8G10G12G26G05G29G25G02G30
 121445592.319 7  94633072.29944  23110305.438                    23110314.926
 111377407.600 8  86787665.850 7  21194412.875                    21194421.137
 126594231.661 6  98644949.50443  24090081.625                    24090094.020
 106570076.127 8  83041725.427 8  20279581.750                    20279589.594
 121353554.810 7  94561269.101 6  23092814.664                    23092823.949
 113891019.496 8  88746282.235 7  21672732.141                    21672743.012
 112656889.992 8  87784726.12346  21437862.164                    21437868.176
 114932326.370 8  89557748.22045  21870897.711                    21870906.758
 11  8 27  1 34 30.0000000  0  8G10G12G26G05G29G25G02G30
 121545357.885 7  94710811.66344  23129290.766                    23129299.621
 111426107.020 8  86825613.432 7  21203680.328                    21203688.188
 126499161.877 7  98570869.35843  24071990.445                    24072002.719
 106582729.202 8  83051584.985 8  20281989.727                    20281997.305
 121269739.113 7  94495958.215 6  23076864.891                    23076874.137
 113875794.550 8  88734418.663 7  21669835.031                    21669845.688
 112691239.843 8  87811492.24646  21444398.766                    21444404.707
 114921695.391 8  89549464.34245  21868874.547                    21868883.797
 11  8 27  1 35  0.0000000  0  8G10G12G26G05G29G25G02G30
 121645345.904 7  94788724.37743  23148317.477                    23148327.266
 111475297.770 8  86863943.867 7  21213040.734                    21213048.723
 126404077.250 6  98496777.61943  24053896.680                    24053908.418
 106595930.992 8  83061872.115 8  20284501.641                    20284509.754
 121185949.556 7  94430667.720 6  23060920.453                    23060929.805
 113861146.532 8  88723004.628 7  21667047.453                    21667058.156
 112725679.923 8  87838328.67746  21450952.164                    21450958.426
 114911663.752 7  89541647.48645  21866965.672                    21866974.270
 11  8 27  1 35 30.0000000  0  8G10G12G26G05G29G25G02G30
 121745553.600 7  94866808.25044  23167386.742                    23167395.691
 111524977.919 8  86902655.655 7  21222494.633                    21222502.824
 126308980.996 6  98422676.80343  24035800.602                    24035812.258
 106609679.997 8  83072585.637 8  20287118.359                    20287126.211
 121102187.523 7  94365398.663 6  23044980.852                    23044990.121
 113847075.519 8  88712040.214 7  21664370.102                    21664380.727
 112760210.095 8  87865235.30446  21457523.391                    21457529.266
 114902231.238 8  89534297.48545  21865170.945                    21865179.188
 11  8 27  1 36  0.0000000  0  8G10G12G26G05G29G25G02G30
 121845978.205 7  94945061.17244  23186496.672                    23186506.223
 111575145.011 8  86941746.881 7  21232040.813                    21232049.332
 126213876.256 6  98348569.41043  24017702.484                    24017713.789
 106623975.202 8  83083724.778 8  20289838.570                    20289846.398
 121018454.718 7  94300152.376 6  23029046.727                    23029056.641
 113833581.765 8  88701525.625 7  21661802.188                    21661812.559
 112794829.729 8  87892211.64846  21464111.188                    21464117.332
 114893397.781 7  89527414.27845  21863489.766                    21863498.383
 11  8 27  1 36 30.0000000  0  8G10G12G26G05G29G25G02G30
 121946616.526 7  95023480.60244  23205647.352                    23205656.914
 111625796.598 8  86981215.631 7  21241679.984                    21241687.953
 126118766.464 7  98274458.04043  23999603.539                    23999615.160
 106638815.227 8  83095288.452 8  20292662.328                    20292670.539
 120934752.351 7  94234929.814 6  23013118.883                    23013128.297
 113820665.157 8  88691460.744 7  21659344.086                    21659354.793
 112829538.219 8  87919257.23246  21470715.891                    21470721.859
 114885162.883 8  89520997.47745  21861923.000                    21861931.461
 11  8 27  1 37  0.0000000  0  8G10G12G26G05G29G25G02G30
 122047465.835 7  95102064.47444  23224838.773                    23224847.852
 111676931.009 8  87021060.604 7  21251410.430                    21251418.676
 126023654.469 7  98200344.95343  23981504.508                    23981515.664
 106654198.680 8  83107275.574 8  20295589.789                    20295597.535
 120851082.484 7  94169732.576 6  22997196.938                    22997206.043
 113808325.946 8  88681845.791 7  21656995.945                    21657006.777
 112864335.292 8  87946371.83846  21477337.563                    21477344.082
 114877526.385 8  89515046.97845  21860469.727                    21860478.070
 11  8 27  1 37 30.0000000  0  8G10G12G26G05G29G25G02G30
 122148523.139 7  95180810.37444  23244069.188                    23244079.055
 111728545.685 8  87061279.824 7  21261232.141                    21261240.105
 125928543.732 6  98126232.84743  23963405.063                    23963416.281
 106670124.173 8  83119685.064 8  20298620.430                    20298628.258
 120767446.402 7  94104561.672 6  22981281.859                    22981290.418
 113796564.086 8  88672680.710 7  21654758.016                    21654768.660
 112899220.746 8  87973555.32146  21483976.125                    21483982.352
 114870487.868 7  89509562.43045  21859130.133                    21859139.031
 11  8 27  1 38  0.0000000  0  8G10G12G26G05G29G25G02G30
 122249786.146 7  95259716.55644  23263339.023                    23263348.727
 111780638.943 8  87101871.952 7  21271145.195                    21271153.441
 125833437.829 6  98052124.53843  23945306.758                    23945318.063
 106686591.187 8  83132516.512 8  20301754.023                    20301761.875
 120683846.207 7  94039418.718 6  22965373.180                    22965381.727
 113785379.996 8  88663965.845 7  21652629.727                    21652640.617
 112934194.444 8  88000807.55046  21490631.336                    21490637.586
 114864047.434 8  89504543.92245  21857904.273                    21857912.832
 11  8 27  1 38 30.0000000  0  8G10G12G26G05G29G25G02G30
 122351251.647 7  95338780.58344  23282647.148                    23282656.855
 111833208.163 8  87142834.958 7  21281149.258                    21281157.074
 125738339.741 6  97978022.27543  23927210.156                    23927221.453
 106703597.816 8  83145768.444 8  20304990.148                    20304997.988
 120600283.183 7  93974304.736 6  22949471.555                    22949480.043
 113774773.451 8  88655701.009 7  21650611.438                    21650622.027
 112969256.041 8  88028128.27746  21497303.336                    21497309.602
 114858204.440 8  89499990.95245  21856792.375                    21856801.289
 11  8 27  1 39  0.0000000  0  8G10G12G26G05G29G25G02G30
 122452917.007 7  95418000.30844  23301993.172                    23302003.004
 111886251.657 8  87184167.524 7  21291243.063                    21291250.902
 125643253.034 6  97903928.90343  23909115.930                    23909126.582
 106721143.286 8  83159440.249 8  20308329.086                    20308336.805
 120516759.102 7  93909221.108 6  22933577.211                    22933586.004
 113764744.893 8  88647886.546 7  21648702.688                    21648713.504
 113004405.490 8  88055517.45646  21503992.250                    21503998.121
 114852959.036 8  89495903.63945  21855794.164                    21855803.051
 11  8 27  1 39 30.0000000  0  8G10G12G26G05G29G25G02G30
 122554779.428 7  95497373.60044  23321377.141                    23321386.527
 111939767.287 8  87225867.995 7  21301426.219                    21301434.770
 125548180.872 6  97829846.84943  23891023.867                    23891034.641
 106739226.272 8  83173530.892 8  20311770.258                    20311778.063
 120433276.019 7  93844169.417 6  22917690.516                    22917699.398
 113755294.202 8  88640522.379 7  21646904.547                    21646915.348
 113039642.253 8  88082974.66846  21510697.523                    21510703.504
 114848310.589 7  89492281.47845  21854909.438                    21854918.625
 11  8 27  1 40  0.0000000  0  8G10G12G26G05G29G25G02G30
 122656835.941 7  95576898.12843  23340797.844                    23340807.246
 111993752.439 8  87267934.332 7  21311699.461                    21311707.750
 125453126.649 6  97755778.79243  23872935.188                    23872946.582
 106757845.251 8  83188039.197 8  20315313.156                    20315320.914
 120349835.307 7  93779150.745 6  22901812.648                    22901821.590
 113746421.185 8  88633608.337 7  21645215.984                    21645227.051
 113074965.940 8  88110499.60546  21517418.992                    21517425.461
 114844258.664 7  89489124.14145  21854139.031                    21854147.598
 11  8 27  1 40 30.0000000  0  8G10G12G26G05G29G25G02G30
 122759083.916 7  95656571.85544  23360254.570                    23360264.730
 112048205.158 8  87310364.993 7  21322061.555                    21322069.910
 125358093.698 6  97681727.29443  23854851.633                    23854862.328
 106776998.742 8  83202964.000 8  20318957.875                    20318965.387
 120266438.496 7  93714166.284 6  22885942.547                    22885951.699
 113738125.767 8  88627144.365 7  21643637.313                    21643648.285
 113110376.362 8  88138092.13146  21524157.859                    21524163.777
 114840802.712 7  89486431.20345  21853480.961                    21853489.641
 11  8 27  1 41  0.0000000  0  8G10G12G26G05G29G25G02G30
 122861520.498 7  95736392.52543  23379747.977                    23379757.211
 112103122.762 8  87353157.911 7  21332512.180                    21332520.066
 125263085.514 6  97607695.10043  23836771.469                    23836782.504
 106796685.590 8  83218304.409 8  20322704.047                    20322711.895
 120183087.502 7  93649217.532 6  22870081.602                    22870090.492
 113730408.059 8  88621130.563 7  21642169.094                    21642179.484
 113145873.408 8  88165752.15446  21530912.383                    21530918.473
 114837942.456 7  89484202.43345  21852936.898                    21852945.574
 11  8 27  1 41 30.0000000  0  8G10G12G26G05G29G25G02G30
 122964143.070 7  95816358.14643  23399276.781                    23399285.793
 112158503.244 7  87396311.512 7  21343050.625                    21343059.047
 125168105.376 6  97533684.77943  23818697.859                    23818708.836
 106816904.530 8  83234059.428 8  20326551.469                    20326559.051
 120099784.108 7  93584305.855 6  22854228.992                    22854237.996
 113723268.085 8  88615566.933 7  21640809.828                    21640820.887
 113181457.001 8  88193479.61245  21537684.016                    21537690.242
 114835677.561 8  89482437.58245  21852505.516                    21852514.477
 11  8 27  1 42  0.0000000  0  8G10G12G26G05G29G25G02G30
 123066948.439 7  95896466.22543  23418839.375                    23418849.004
 112214343.947 7  87439823.725 7  21353676.516                    21353684.855
 125073156.388 6  97459698.67843  23800628.844                    23800640.461
 106837653.498 8  83250227.465 8  20330499.805                    20330507.977
 120016529.705 7  93519432.365 6  22838386.664                    22838395.281
 113716705.250 8  88610453.028 7  21639561.227                    21639571.961
 113217126.243 8  88221273.80146  21544471.625                    21544477.699
 114834007.069 7  89481135.89245  21852188.055                    21852196.406
 11  8 27  1 42 30.0000000  0  8G10G12G26G05G29G25G02G30
 123169934.233 7  95976714.87343  23438437.258                    23438446.797
 112270642.570 7  87483692.750 7  21364390.234                    21364398.652
 124978241.943 6  97385739.52244  23782567.602                    23782578.555
 106858931.285 8  83266807.567 8  20334549.063                    20334556.734
 119933326.091 7  93454598.445 6  22822553.164                    22822562.066
 113710719.441 8  88605788.741 7  21638422.516                    21638432.574
 113252881.381 8  88249134.92346  21551275.469                    21551281.637
 114832930.477 7  89480296.98845  21851982.742                    21851991.352
 11  8 27  1 43  0.0000000  0  8G10G12G26G05G29G25G02G30
 123273097.452 7  96057101.77643  23458068.930                    23458078.188
 112327397.065 7  87527917.016 7  21375189.523                    21375198.148
 124883365.494 6  97311809.95044  23764512.703                    23764523.828
 106880736.461 8  83283798.622 8  20338698.359                    20338706.012
 119850175.012 7  93389805.464 6  22806729.836                    22806739.289
 113705310.544 8  88601574.002 7  21637392.938                    21637403.301
 113288721.842 8  88277062.53346  21558095.945                    21558102.418
 114832447.348 7  89479920.51045  21851890.906                    21851899.578
 11  8 27  1 43 30.0000000  0  8G10G12G26G05G29G25G02G30
 123376435.296 7  96137624.74443  23477733.234                    23477742.684
 112384605.305 7  87572494.850 7  21386076.898                    21386084.613
 124788530.646 6  97237912.80443  23746466.352                    23746477.125
 106903068.101 8  83301199.902 8  20342948.195                    20342955.563
 119767078.535 7  93325055.032 6  22790917.336                    22790926.242
 113700478.729 8  88597808.938 7  21636473.469                    21636484.398
 113324647.910 8  88305056.84646  21564932.008                    21564938.371
 114832557.318 7  89480006.18745  21851912.406                    21851920.977
 11  8 27  1 44  0.0000000  0  8G10G12G26G05G29G25G02G30
 123479945.144 7  96218281.73843  23497430.859                    23497439.781
 112442264.991 7  87617424.460 7  21397048.672                    21397057.129
 124693740.898 6  97164050.78044  23728428.539                    23728439.445
 106925924.680 8  83319010.231 8  20347297.391                    20347304.891
 119684038.434 7  93260348.517 6  22775115.289                    22775124.035
 113696223.778 8  88594493.372 7  21635663.781                    21635674.082
 113360659.413 8  88333117.72746  21571785.258                    21571791.066
 114833259.887 7  89480553.62545  21852045.758                    21852054.777
 11  8 27  1 44 30.0000000  0  9G10G12G26G15G05G29G25G02G30
 123583624.315 7  96299070.67043  23517159.938                    23517169.180
 112500373.208 7  87662703.581 7  21408106.555                    21408114.605
 124598999.498 6  97090226.43744  23710399.930                    23710410.645
 129433696.97316 100857330.50116  24630375.656                    24630388.660
 106949304.435 8  83337228.229 8  20351746.484                    20351753.996
 119601056.308 7  93195687.182 7  22759324.227                    22759333.027
 113692545.113 8  88591626.865 7  21634963.742                    21634974.602
 113396755.605 8  88361244.60245  21578653.859                    21578660.273
 114834554.037 8  89481562.04745  21852291.898                    21852300.465
 11  8 27  1 45  0.0000000  0  9G10G12G26G15G05G29G25G02G30
 123687469.552 7  96379989.00843  23536921.305                    23536930.527
 112558927.431 7  87708330.239 7  21419248.969                    21419256.656
 124504309.273 6  97016441.96443  23692380.633                    23692391.340
 129340663.113 6 100784836.893 6  24612671.547                    24612685.430
 106973205.114 8  83355852.140 8  20356294.523                    20356302.441
 119518133.476 7  93131072.056 6  22743544.766                    22743553.254
 113689442.058 8  88589208.882 7  21634373.273                    21634383.965
 113432936.199 8  88389437.24946  21585538.945                    21585545.047
 114836438.724 8  89483030.61245  21852650.789                    21852659.406
 11  8 27  1 45 30.0000000  0  9G10G12G26G15G05G29G25G02G30
 123791478.405 7  96461034.84943  23556712.930                    23556722.836
 112617925.433 7  87754302.690 7  21430475.797                    21430483.832
 124409674.170 6  96942700.43843  23674371.750                    23674382.340
 129247495.492 6 100712239.069 6  24594942.375                    24594955.840
 106997625.799 8  83374881.264 8  20360941.695                    20360949.219
 119435271.990 7  93066504.713 7  22727776.492                    22727785.461
 113686914.739 8  88587239.538 7  21633892.547                    21633903.367
 113469201.126 8  88417695.61345  21592440.008                    21592446.355
 114838913.673 7  89484959.12545  21853121.828                    21853130.191
 11  8 27  1 46  0.0000000  0  9G10G12G26G15G05G29G25G02G30
 123895648.366 7  96542206.20944  23576535.969                    23576545.738
 112677365.082 8  87800619.287 7  21441786.813                    21441795.051
 124315097.650 6  96869004.57044  23656374.984                    23656385.621
 129154196.824 6 100639539.113 6  24577188.102                    24577201.320
 107022564.930 8  83394314.359 8  20365687.430                    20365695.168
 119352473.961 7  93001986.829 7  22712020.672                    22712029.238
 113684962.953 8  88585718.653 7  21633521.273                    21633531.707
 113505550.710 8  88446019.94546  21599357.258                    21599363.027
 114841978.290 7  89487347.12745  21853704.500                    21853713.648
 11  8 27  1 46 30.0000000  0  9G10G12G26G15G05G29G25G02G30
 123999976.741 7  96623500.99043  23596389.422                    23596398.520
 112737243.874 7  87847278.071 7  21453181.164                    21453189.332
 124220583.296 6  96795357.13643  23638389.234                    23638400.215
 129060769.470 6 100566738.882 6  24559408.398                    24559422.684
 107048020.968 8  83414150.248 8  20370531.500                    20370538.977
 119269740.916 7  92937519.567 7  22696276.797                    22696285.641
 113683586.182 8  88584645.835 7  21633259.102                    21633269.613
 113541984.369 8  88474409.79346  21606289.977                    21606296.004
 114845631.719 7  89490193.94145  21854399.984                    21854408.559
 11  8 27  1 47  0.0000000  0  9G10G12G26G15G05G29G25G02G30
 124104460.635 7  96704916.96244  23616272.008                    23616281.500
 112797559.299 8  87894277.092 7  21464659.211                    21464667.055
 124126134.650 7  96721760.90543  23620415.766                    23620426.941
 128967216.378 6 100493840.682 6  24541606.617                    24541619.184
 107073992.733 8  83434388.001 8  20375474.156                    20375481.379
 119187075.220 7  92873104.795 7  22680546.273                    22680554.613
 113682784.422 8  88584021.082 7  21633106.336                    21633116.945
 113578502.335 8  88502865.34245  21613238.984                    21613245.492
 114849873.465 7  89493499.17945  21855207.492                    21855216.301
 11  8 27  1 47 30.0000000  0  9G10G12G26G15G05G29G25G02G30
 124209097.392 7  96786452.03443  23636184.289                    23636193.539
 112858309.157 8  87941614.619 7  21476219.688                    21476227.699
 124031754.913 7  96648218.34344  23602455.977                    23602467.043
 128873539.405 6 100420845.940 6  24523780.141                    24523792.984
 107100478.183 8  83455026.036 8  20380514.078                    20380521.289
 119104478.400 7  92808743.685 7  22664827.977                    22664837.168
 113682556.928 8  88583843.809 7  21633063.094                    21633073.973
 113615104.254 8  88531386.30745  21620204.570                    21620210.422
 114854702.479 7  89497262.04345  21856126.391                    21856134.770
 11  8 27  1 48  0.0000000  0  9G10G12G26G15G05G29G25G02G30
 124313884.169 7  96868103.99644  23656124.742                    23656133.746
 112919490.322 8  87989288.244 7  21487862.016                    21487869.910
 123937447.295 7  96574732.02144  23584509.977                    23584520.047
 128779741.305 6 100347756.808 6  24505931.094                    24505943.406
 107127475.282 8  83476062.754 8  20385651.117                    20385658.824
 119021952.135 7  92744437.543 7  22649124.203                    22649133.000
 113682903.072 8  88584113.528 7  21633128.805                    21633139.781
 113651789.820 8  88559972.45245  21627185.414                    21627192.012
 114860117.664 8  89501481.66445  21857156.695                    21857165.688
 11  8 27  1 48 30.0000000  0  9G10G12G26G15G05G29G25G02G30
 124418818.558 7  96949871.02243  23676093.055                    23676102.020
 112981100.970 8  88037296.524 7  21499586.117                    21499594.008
 123843215.770 7  96501304.92844  23566577.945                    23566588.344
 128685824.477 6 100274575.175 6  24488058.992                    24488071.223
 107154983.037 8  83497497.381 8  20390885.766                    20390893.047
 118939498.575 7  92680188.047 7  22633433.797                    22633442.227
 113683822.759 8  88584830.159 7  21633304.156                    21633314.949
 113688558.835 8  88588623.62745  21634182.414                    21634188.902
 114866118.569 8  89506157.69545  21858298.664                    21858307.563
 11  8 27  1 49  0.0000000  0  9G10G12G26G15G05G29G25G02G30
 124523897.828 7  97031750.91843  23696088.477                    23696097.555
 113043138.003 8  88085637.042 7  21511391.344                    21511399.684
 123749063.504 7  96427939.64744  23548660.867                    23548671.578
 128591791.262 6 100201302.835 6  24470164.383                    24470177.344
 107182999.488 8  83519328.402 8  20396217.094                    20396224.906
 118857119.156 7  92615996.321 6  22617757.680                    22617765.828
 113685315.255 8  88585993.151 7  21633587.680                    21633598.652
 113725411.522 8  88617339.99945  21641195.359                    21641201.598
 114872704.109 8  89511289.27945  21859551.719                    21859560.406
 11  8 27  1 49 30.0000000  0  9G10G12G26G15G05G29G25G02G30
 124629119.209 7  97113741.56443  23716111.641                    23716120.750
 113105599.351 8  88134308.199 7  21523277.547                    21523285.422
 123654994.147 7  96354638.93044  23530760.422                    23530771.539
 128497644.766 6 100127942.232 5  24452248.883                    24452261.313
 107211522.973 8  83541554.512 8  20401644.859                    20401652.500
 118774815.773 7  92551863.840 7  22602095.859                    22602104.051
 113687380.100 8  88587602.116 7  21633980.984                    21633991.473
 113762347.617 8  88646121.38245  21648223.836                    21648230.125
 114879873.371 8  89516875.71245  21860915.672                    21860924.555
 11  8 27  1 50  0.0000000  0  9G10G12G26G15G05G29G25G02G30
 124734480.003 7  97195840.84943  23736160.508                    23736170.277
 113168481.983 7  88183307.637 7  21535243.516                    21535251.563
 123561011.090 7  96281405.47344  23512876.211                    23512886.332
 128403387.245 6 100054495.090 5  24434311.789                    24434324.512
 107240551.754 8  83564174.356 8  20407168.797                    20407176.199
 118692590.344 7  92487792.102 7  22586448.641                    22586457.207
 113690016.723 8  88589656.628 7  21634482.711                    21634493.426
 113799366.977 7  88674967.63845  21655268.250                    21655274.566
 114887625.392 8  89522916.24445  21862391.344                    21862400.234
 11  8 27  1 50 30.0000000  0  9G10G12G26G15G05G29G25G02G30
 124839977.823 7  97278046.88243  23756236.063                    23756246.184
 113231783.837 8  88232633.739 7  21547289.648                    21547297.867
 123467118.010 7  96208242.13244  23495008.852                    23495019.570
 128309020.957 6  99980963.212 6  24416354.266                    24416366.961
 107270084.642 8  83587187.010 8  20412788.719                    20412796.109
 118610445.366 7  92423783.055 6  22570816.883                    22570825.305
 113693224.750 8  88592156.390 7  21635092.867                    21635103.906
 113836469.830 8  88703878.94746  21662329.141                    21662335.074
 114895959.410 8  89529410.28645  21863976.836                    21863985.676
 11  8 27  1 51  0.0000000  0  9G10G12G26G15G05G29G25G02G30
 124945609.500 7  97360357.22543  23776337.625                    23776346.863
 113295502.006 8  88282284.241 7  21559414.422                    21559422.621
 123373318.205 7  96135151.44344  23477159.203                    23477169.590
 128214548.562 6  99907348.667 6  24398376.586                    24398388.961
 107300119.108 8  83610590.506 8  20418504.359                    20418511.813
 118528382.174 7  92359837.750 6  22555200.961                    22555209.172
 113697003.330 8  88595100.747 7  21635812.227                    21635823.566
 113873655.352 7  88732854.68146  21669405.117                    21669411.648
 114904874.115 8  89536356.80845  21865673.852                    21865682.395
 11  8 27  1 51 30.0000000  0  9G10G12G26G15G05G29G25G02G30
 125051372.527 6  97442769.93543  23796463.563                    23796473.547
 113359634.017 7  88332257.212 7  21571618.891                    21571626.875
 123279615.204 7  96062136.23943  23459328.672                    23459338.738
 128119972.548 6  99833653.373 6  24380379.414                    24380391.793
 107330653.427 8  83634383.499 8  20424314.688                    20424322.309
 118446402.744 7  92295957.702 7  22539600.273                    22539609.324
 113701351.822 8  88598489.178 7  21636639.773                    21636650.359
 113910923.509 7  88761894.79646  21676497.070                    21676503.055
 114914368.536 7  89543755.06245  21867480.367                    21867489.387
 11  8 27  1 52  0.0000000  0  9G10G12G26G15G05G29G25G02G30
 125157264.597 7  97525283.17443  23816614.164                    23816624.246
 113424177.522 8  88382550.837 7  21583900.813                    21583909.141
 123186012.829 7  95989199.42244  23441515.453                    23441526.406
 128025295.852 6  99759879.648 5  24362362.258                    24362374.797
 107361686.582 8  83658565.192 8  20430220.063                    20430227.555
 118364509.109 7  92232144.525 7  22524016.742                    22524025.227
 113706269.895 8  88602321.451 7  21637575.586                    21637586.488
 113948274.672 7  88790999.58945  21683605.078                    21683610.965
 114924441.899 8  89551604.43545  21869397.188                    21869405.879
 11  8 27  1 52 30.0000000  0  9G10G12G26G15G05G29G25G02G30
 125263283.076 7  97607894.92243  23836789.531                    23836799.180
 113489129.759 7  88433162.952 7  21596260.750                    21596268.703
 123092514.325 7  95916343.56044  23423723.711                    23423734.254
 127930520.942 6  99686029.359 6  24344327.133                    24344339.730
 107393216.403 8  83683133.904 8  20436220.094                    20436227.367
 118282703.073 7  92168399.599 7  22508449.422                    22508458.109
 113711756.670 8  88606596.867 7  21638619.641                    21638630.117
 113985708.664 7  88820168.93245  21690728.242                    21690734.391
 114935092.965 7  89559903.95945  21871424.109                    21871432.625
 11  8 27  1 53  0.0000000  0  9G10G12G26G15G05G29G25G02G30
 125369424.808 6  97690602.69743  23856987.289                    23856996.848
 113554487.756 7  88484091.242 7  21608698.102                    21608706.211
 122999122.971 7  95843571.15444  23405952.391                    23405962.309
 127835650.070 7  99612104.301 6  24326274.078                    24326286.223
 107425240.523 8  83708087.769 8  20442313.867                    20442321.340
 118200986.361 7  92104724.283 7  22492899.352                    22492907.609
 113717811.055 8  88611314.580 7  21639771.945                    21639782.715
 114023224.717 7  88849402.21845  21697867.164                    21697873.141
 114946320.205 8  89568652.45945  21873560.438                    21873569.625
 11  8 27  1 53 30.0000000  0  9G10G12G26G15G05G29G25G02G30
 125475687.351 6  97773404.62543  23877208.203                    23877218.152
 113620249.185 7  88535333.895 7  21621212.039                    21621220.168
 122905842.579 7  95770885.23344  23388201.320                    23388211.965
 127740686.136 6  99538106.765 6  24308201.961                    24308214.863
 107457757.454 8  83733425.651 8  20448501.984                    20448509.219
 118119361.004 7  92041120.163 7  22477366.578                    22477374.977
 113724432.703 8  88616474.315 7  21641031.719                    21641042.602
 114060823.641 8  88878700.06745  21705022.328                    21705028.324
 114958122.913 8  89577849.37045  21875806.477                    21875815.449
 11  8 27  1 54  0.0000000  0  9G10G12G26G15G05G29G25G02G30
 125582068.258 6  97856298.79743  23897451.750                    23897461.504
 113686411.247 8  88586888.736 7  21633802.336                    21633810.383
 122812676.647 6  95698288.50944  23370472.211                    23370482.504
 127645631.540 7  99464038.546 6  24290114.148                    24290125.383
 107490765.537 8  83759146.244 8  20454782.945                    20454790.242
 118037829.236 7  91977588.960 7  22461851.680                    22461860.313
 113731620.790 8  88622075.435 7  21642399.664                    21642410.605
 114098505.037 8  88908062.17845  21712193.055                    21712198.875
 114970499.877 8  89587493.75445  21878161.648                    21878170.816
 11  8 27  1 54 30.0000000  0  9G10G12G26G15G05G29G25G02G30
 125688565.131 6  97939283.30643  23917717.297                    23917727.680
 113752971.517 7  88638753.855 7  21646468.086                    21646476.711
 122719628.914 7  95625783.91744  23352765.844                    23352776.570
 127550489.097 6  99389901.892 6  24272009.234                    24272020.801
 107524263.268 8  83785248.386 8  20461157.156                    20461164.770
 117956392.952 7  91914132.179 7  22446354.766                    22446363.035
 113739374.815 8  88628117.540 7  21643875.031                    21643885.777
 114136269.087 8  88937488.70245  21719378.805                    21719385.027
 114983450.031 8  89597584.78245  21880626.375                    21880634.895
 11  8 27  1 55  0.0000000  0  9G10G12G26G15G05G29G25G02G30
 125795174.986 6  98022355.84143  23938004.914                    23938015.031
 113819927.321 8  88690927.195 7  21659209.477                    21659217.781
 122626702.972 7  95553374.18244  23335082.258                    23335092.648
 127455261.332 7  99315698.728 6  24253887.422                    24253898.688
 107558248.323 8  83811730.259 8  20467624.563                    20467632.348
 117875053.954 7  91850751.185 7  22430876.367                    22430885.359
 113747693.649 8  88634599.746 7  21645458.164                    21645468.605
 114174115.427 8  88966979.35346  21726580.867                    21726587.023
 114996972.018 8  89608121.39945  21883199.328                    21883207.820
 11  8 27  1 55 30.0000000  0  9G10G12G26G15G05G29G25G02G30
 125901895.199 6  98105514.38343  23958313.156                    23958322.957
 113887275.702 7  88743406.440 7  21672025.508                    21672033.883
 122533902.166 7  95481061.97544  23317422.953                    23317433.117
 127359950.723 7  99241431.025 6  24235749.648                    24235762.016
 107592718.728 8  83838590.321 8  20474184.023                    20474191.531
 117793814.101 7  91787447.460 7  22415417.039                    22415425.504
 113756576.481 8  88641521.448 7  21647148.320                    21647158.977
 114212044.127 8  88996534.17345  21733798.648                    21733804.531
 115011064.640 8  89619102.66345  21885880.906                    21885889.879
 11  8 27  1 56  0.0000000  0  9G10G12G26G15G05G29G25G02G30
 126008723.439 6  98188757.10043  23978642.219                    23978651.879
 113955014.149 7  88796189.621 7  21684915.688                    21684923.895
 122441230.207 7  95408850.17144  23299787.891                    23299798.020
 127264560.177 7  99167100.994 6  24217598.461                    24217609.590
 107627672.938 8  83865827.381 8  20480835.531                    20480842.953
 117712675.709 7  91724222.796 7  22399976.703                    22399985.121
 113766022.633 8  88648882.089 7  21648945.883                    21648957.039
 114250055.256 7  89026153.22846  21741031.609                    21741037.918
 115025726.713 8  89630527.65545  21888671.172                    21888679.754
 11  8 27  1 56 30.0000000  0  9G10G12G26G15G05G29G25G02G30
 126115657.112 6  98272082.01743  23998990.680                    23999000.828
 114023139.948 7  88849274.646 7  21697879.648                    21697888.203
 122348690.649 7  95336741.53144  23282177.617                    23282188.285
 127169092.303 7  99092710.719 6  24199431.172                    24199442.555
 107663109.223 8  83893440.076 8  20487579.078                    20487586.176
 117631640.846 7  91661078.789 7  22384556.133                    22384564.887
 113776031.168 8  88656680.952 7  21650850.539                    21650861.348
 114288148.530 8  89055836.27946  21748280.625                    21748286.930
 115040956.966 8  89642395.40045  21891569.094                    21891578.430
 11  8 27  1 57  0.0000000  0  9G10G12G26G15G05G29G25G02G30
 126222693.603 6  98355487.02643  24019360.000                    24019369.164
 114091650.280 7  88902659.310 7  21710916.766                    21710925.215
 122256286.828 7  95264738.62543  23264594.336                    23264603.523
 127073549.531 6  99018262.072 6  24181249.750                    24181260.418
 107699025.093 8  83921426.477 8  20494413.586                    20494420.938
 117550711.146 7  91598016.728 7  22369155.797                    22369163.953
 113786600.985 8  88664917.172 7  21652861.883                    21652872.504
 114326324.161 7  89085583.51745  21755545.297                    21755551.254
 115056753.955 8  89654704.75245  21894575.148                    21894584.266
 11  8 27  1 57 30.0000000  0  9G10G12G26G15G05G29G25G02G30
 126329830.290 6  98438970.10843  24039746.773                    24039756.906
 114160542.216 7  88956341.323 7  21724026.555                    21724035.066
 122164022.404 7  95192844.35644  23247036.648                    23247046.602
 126977934.628 6  98943757.234 6  24163054.227                    24163065.730
 107735418.622 8  83949785.088 8  20501338.820                    20501346.309
 117469888.557 7  91535038.131 7  22353775.664                    22353784.133
 113797731.126 8  88673590.004 7  21654980.109                    21654990.570
 114364581.839 8  89115394.68845  21762825.477                    21762831.543
 115073116.118 8  89667454.49645  21897689.031                    21897697.848
 11  8 27  1 58  0.0000000  0  9G10G12G26G15G05G29G25G02G30
 126437064.681 7  98522529.30943  24060152.578                    24060163.113
 114229813.162 7  89010318.675 7  21737208.242                    21737216.629
 122071900.959 7  95121061.50544  23229507.289                    23229516.652
 126882250.390 6  98869198.343 6  24144845.664                    24144856.773
 107772287.915 8  83978514.420 8  20508354.742                    20508362.508
 117389175.182 7  91472144.641 7  22338416.617                    22338425.027
 113809420.641 8  88682698.714 7  21657204.625                    21657215.090
 114402921.517 7  89145269.76546  21770121.602                    21770127.688
 115090042.257 8  89680643.70345  21900909.914                    21900918.574
 11  8 27  1 58 30.0000000  0  9G10G12G26G15G05G29G25G02G30
 126544394.071 7  98606162.51543  24080577.273                    24080586.887
 114299460.769 7  89064589.516 7  21750461.922                    21750469.984
 121979926.109 7  95049392.87644  23212004.602                    23212014.293
 126786499.249 6  98794587.285 6  24126624.891                    24126634.902
 107809631.026 8  84007612.958 8  20515461.063                    20515468.129
 117308573.271 7  91409338.007 7  22323078.148                    22323086.977
 113821668.710 8  88692242.650 7  21659535.477                    21659546.047
 114441343.709 7  89175209.12646  21777432.805                    21777439.125
 115107531.090 8  89694271.38145  21904237.844                    21904246.313
 11  8 27  1 59  0.0000000  0  9G10G12G26G15G05G29G25G02G30
 126651815.880 7  98689867.79043  24101018.805                    24101028.773
 114369482.249 7  89119151.693 7  21763786.430                    21763794.781
 121888101.887 7  94977841.62944  23194530.859                    23194540.926
 126690684.285 7  98719926.508 6  24108391.102                    24108402.191
 107847446.305 7  84037079.425 8  20522656.945                    20522664.406
 117228084.863 7  91346619.813 7  22307761.648                    22307770.055
 113834474.422 8  88702221.121 7  21661972.242                    21661982.660
 114479848.334 7  89205212.73445  21784759.930                    21784766.133
 115125581.400 8  89708336.56145  21907672.508                    21907681.301
 11  8 27  1 59 30.0000000  0  9G10G12G26G15G05G29G25G02G30
 126759327.942 6  98773643.34443  24121477.742                    24121487.238
 114439874.336 7  89174002.657 7  21777181.859                    21777189.527
 121796431.606 7  94906410.33344  23177086.570                    23177096.988
 126594808.171 6  98645218.105 6  24090146.789                    24090157.934
 107885731.963 8  84066912.416 8  20529942.406                    20529949.906
 117147711.979 7  91283991.637 7  22292467.320                    22292475.520
 113847836.751 8  88712633.300 7  21664514.648                    21664525.645
 114518435.389 7  89235280.56945  21792102.734                    21792108.820
 115144191.651 8  89722838.06145  21911213.883                    21911223.039
 11  8 27  2  0  0.0000000  0  9G10G12G26G15G05G29G25G02G30
 126866927.371 6  98857487.03543  24141953.352                    24141962.461
 114510634.483 7  89229140.420 7  21790646.703                    21790654.492
 121704918.647 7  94835101.62444  23159671.680                    23159682.273
 126498873.529 7  98570464.073 6  24071891.164                    24071901.816
 107924485.307 8  84097109.832 8  20537317.055                    20537324.512
 117067456.504 7  91221454.949 7  22277194.859                    22277203.660
 113861754.267 8  88723478.107 7  21667163.211                    21667173.949
 114557104.317 7  89265412.20045  21799461.109                    21799467.422
 115163360.034 8  89737774.47145  21914861.766                    21914870.539
 11  8 27  2  0 30.0000000  0  9G10G12G26G15G05G29G25G02G30
 126974611.964 6  98941397.04843  24162444.297                    24162454.102
 114581759.971 7  89284562.854 7  21804181.695                    21804189.648
 121613566.863 7  94763918.52844  23142287.773                    23142298.566
 126402882.882 7  98495666.388 6  24053624.148                    24053635.070
 107963704.672 7  84127670.382 8  20544780.336                    20544787.746
 116987320.431 7  91159011.312 7  22261945.688                    22261954.016
 113876226.103 8  88734754.861 7  21669917.250                    21669927.613
 114595855.706 7  89295608.08545  21806835.734                    21806841.715
 115183085.355 8  89753144.85445  21918615.289                    21918623.871
 11  8 27  2  1  0.0000000  0  9G10G12G26G15G05G29G25G02G30
 127082378.943 6  99025371.24843  24182952.516                    24182961.867
 114653247.390 7  89340267.324 7  21817785.219                    21817793.703
 121522379.503 7  94692863.53944  23124935.141                    23124946.059
 126306838.908 7  98420827.163 6  24035347.570                    24035358.574
 108003387.616 7  84158592.170 8  20552331.648                    20552339.105
 116907305.931 7  91096662.397 7  22246719.086                    22246727.707
 113891250.895 8  88746462.486 7  21672776.234                    21672787.215
 114634689.181 7  89325867.93945  21814225.148                    21814231.152
 115203365.690 8  89768947.70945  21922474.313                    21922482.930
 11  8 27  2  1 30.0000000  0  9G10G12G26G15G05G29G25G02G30
 127190226.345 6  99109408.12443  24203474.805                    24203485.203
 114725094.951 7  89396252.417 7  21831457.594                    21831465.594
 121431360.718 7  94621939.91544  23107615.352                    23107625.621
 126210744.429 7  98345948.570 6  24017061.195                    24017072.414
 108043532.651 8  84189874.024 8  20559970.727                    20559978.289
 116827414.919 7  91034409.715 7  22231516.398                    22231525.199
 113906827.966 8  88758600.461 7  21675740.742                    21675750.910
 114673605.161 7  89356192.07745  21821630.563                    21821636.746
 115224200.025 8  89785182.23945  21926439.063                    21926448.102
 11  8 27  2  2  0.0000000  0  9G10G12G26G15G05G29G25G02G30
 127298151.112 6  99193505.32943  24224012.695                    24224022.664
 114797299.281 7  89452515.504 7  21845197.344                    21845205.410
 121340513.706 7  94551150.14944  23090327.758                    23090338.273
 126114602.073 7  98271032.645 6  23998765.711                    23998776.605
 108084137.225 8  84221513.959 8  20567697.945                    20567705.402
 116747649.651 7  90972255.017 7  22216337.750                    22216346.164
 113922955.765 8  88771167.578 7  21678809.570                    21678820.012
 114712603.473 8  89386580.37045  21829051.742                    21829057.992
 115245586.432 8  89801846.95845  21930508.922                    21930517.363
 11  8 27  2  2 30.0000000  0  9G10G12G26G15G05G29G25G02G30
 127406151.245 6  99277661.21143  24244564.039                    24244574.234
 114869857.258 7  89509054.165 7  21859004.758                    21859012.844
 121249842.542 7  94480497.37944  23073073.398                    23073083.352
 126018414.914 7  98196081.854 6  23980462.125                    23980472.488
 108125199.807 7  84253510.791 8  20575511.711                    20575518.863
 116668012.341 7  90910200.027 7  22201183.055                    22201191.484
 113939633.460 8  88784163.178 7  21681982.828                    21681993.602
 114751684.435 7  89417033.06745  21836488.867                    21836495.164
 115267523.665 8  89818940.89645  21934683.484                    21934692.320
 11  8 27  2  3  0.0000000  0  9G10G12G26G15G05G29G25G02G30
 127514224.017 6  99361873.72543  24265129.891                    24265139.672
 114942766.405 7  89565866.457 7  21872878.586                    21872887.020
 121159350.455 7  94409984.17844  23055853.648                    23055863.199
 125922185.376 7  98121098.007 6  23962150.063                    23962160.598
 108166717.876 8  84285862.539 8  20583412.156                    20583419.703
 116588504.709 7  90848246.086 7  22186053.703                    22186061.926
 113956859.447 8  88797586.025 7  21685261.250                    21685272.016
 114790847.801 7  89447549.97445  21843941.289                    21843947.578
 115290009.793 8  89836462.54545  21938962.391                    21938971.293
 11  8 27  2  3 30.0000000  0  9G10G12G26G15G05G29G25G02G30
 127622366.974 6  99446140.92843  24285708.555                    24285718.266
 115016023.584 7  89622949.950 7  21886819.414                    21886827.520
 121069041.200 7  94339613.41844  23038668.273                    23038677.828
 125825916.386 7  98046083.419 6  23943830.398                    23943840.656
 108208689.319 7  84318567.566 7  20591399.109                    20591406.641
 116509129.035 7  90786394.968 7  22170948.617                    22170956.852
 113974632.654 8  88811435.284 7  21688643.313                    21688653.914
 114830093.660 7  89478131.16345  21851409.406                    21851415.801
 115313043.305 8  89854410.72145  21943345.531                    21943354.293
 11  8 27  2  4  0.0000000  0  9G10G12G26G15G05G29G25G02G30
 127730577.726 6  99530460.94343  24306300.828                    24306310.766
 115089626.321 8  89680302.716 7  21900825.516                    21900833.602
 120978918.674 7  94269388.17244  23021518.531                    23021527.688
 125729610.824 7  97971040.349 6  23925503.383                    23925514.520
 108251112.403 8  84351624.526 8  20599471.719                    20599479.555
 116429887.640 7  90724648.478 7  22155869.109                    22155877.676
 113992952.001 8  88825710.116 7  21692129.336                    21692140.141
 114869422.170 7  89508776.75645  21858893.508                    21858899.551
 115336622.694 8  89872784.26745  21947832.375                    21947841.617
 11  8 27  2  4 30.0000000  0  9G10G12G26G15G05G29G25G02G30
 127838853.994 6  99614832.00043  24326904.844                    24326914.973
 115163571.982 8  89737922.692 7  21914897.039                    21914905.215
 120888986.426 7  94199311.21844  23004404.938                    23004414.461
 125633271.582 7  97895971.009 6  23907170.563                    23907181.340
 108293985.108 8  84385031.838 8  20607630.359                    20607637.871
 116350782.495 7  90663008.150 7  22140816.648                    22140824.793
 114011816.096 8  88840409.429 7  21695718.922                    21695729.703
 114908833.784 7  89539487.10445  21866393.516                    21866399.582
 115360746.224 8  89891581.81545  21952422.891                    21952431.633
 11  8 27  2  5  0.0000000  0  9G10G12G26G15G05G29G25G02G30
 127947193.032 6  99699251.97843  24347521.656                    24347531.164
 115237857.037 8  89795807.136 7  21929033.156                    21929040.977
 120799247.780 7  94129385.12444  22987327.844                    22987337.637
 125536901.034 6  97820877.271 6  23888831.672                    23888842.395
 108337304.735 8  84418787.401 8  20615873.953                    20615881.352
 116271815.759 7  90601475.677 7  22125789.414                    22125797.723
 114031223.453 8  88855532.059 7  21699411.945                    21699422.734
 114948327.931 8  89570261.75645  21873908.680                    21873915.152
 115385411.998 8  89910801.89645  21957116.742                    21957125.785
 11  8 27  2  5 30.0000000  0  9G10G12G26G15G05G29G25G02G30
 128055592.583 6  99783719.09543  24368148.016                    24368158.996
 115312478.921 7  89853954.037 7  21943233.188                    21943241.188
 120709706.612 7  94059612.90744  22970288.219                    22970298.320
 125440502.238 6  97745761.494 6  23870487.641                    23870497.789
 108381069.529 8  84452889.844 8  20624202.188                    20624209.438
 116192989.565 7  90540052.716 7  22110788.695                    22110797.672
 114051172.980 8  88871077.156 7  21703208.523                    21703218.902
 114987904.928 7  89601100.96245  21881439.945                    21881446.133
 115410618.540 8  89930443.36545  21961913.633                    21961922.438
 11  8 27  2  6  0.0000000  0  9G10G12G26G15G05G29G25G02G30
 128164050.102 6  99868231.42143  24388788.492                    24388797.109
 115387434.881 8  89912361.246 7  21957496.820                    21957505.184
 120620366.724 7  93989997.52644  22953287.633                    22953297.660
 125344078.004 6  97670625.937 6  23852138.555                    23852149.367
 108425277.264 8  84487337.432 8  20632614.586                    20632622.133
 116114306.092 7  90478740.954 7  22095816.141                    22095824.785
 114071663.329 8  88887043.670 7  21707107.672                    21707118.480
 115027565.137 8  89632005.01645  21888986.953                    21888993.004
 115436364.043 8  89950504.80345  21966812.859                    21966821.211
 11  8 27  2  6 30.0000000  0  9G10G12G26G15G05G29G25G02G30
 128272563.400 6  99952787.22443  24409437.570                    24409447.020
 115462722.034 8  89971026.539 7  21971823.242                    21971831.285
 120531231.778 7  93920541.84644  22936325.789                    22936335.922
 125247631.378 6  97595472.900 6  23833784.852                    23833796.117
 108469925.979 8  84522128.649 8  20641110.773                    20641118.238
 116035767.458 7  90417542.058 7  22080870.641                    22080879.074
 114092693.163 8  88903430.560 7  21711109.383                    21711120.289
 115067308.593 8  89662973.92745  21896549.820                    21896556.352
 115462646.805 7  89970984.89145  21971814.227                    21971822.988
 11  8 27  2  7  0.0000000  0  9G10G12G26G15G05G29G25G02G30
 128381130.126 6 100037384.64343  24430097.211                    24430106.945
 115538337.436 8  90029947.612 7  21986212.391                    21986220.555
 120442305.201 7  93851248.50344  22919403.672                    22919413.164
 125151164.847 6  97520304.319 6  23815428.367                    23815438.488
 108515013.369 8  84557261.685 7  20649690.461                    20649698.168
 115957375.793 7  90356457.678 7  22065953.516                    22065961.426
 114114260.935 8  88920236.638 7  21715213.680                    21715224.426
 115107135.477 8  89694007.86245  21904128.461                    21904134.953
 115489464.980 7  89991882.18345  21976917.188                    21976926.336
 11  8 27  2  7 30.0000000  0  9G10G12G26G15G05G29G25G02G30
 128489747.900 6 100122021.82143  24450766.125                    24450775.953
 115614277.732 8  90089121.852 7  22000663.555                    22000671.406
 120353590.659 7  93782120.39344  22902521.188                    22902531.559
 125054681.196 7  97445122.388 6  23797067.875                    23797078.082
 108560537.067 8  84592734.697 8  20658353.523                    20658361.012
 115879133.061 7  90295489.340 7  22051064.461                    22051072.566
 114136365.069 8  88937460.640 7  21719419.906                    21719430.684
 115147045.502 8  89725106.56945  21911723.117                    21911729.426
 115516816.493 7  90013195.06645  21982122.469                    21982130.988
 11  8 27  2  8  0.0000000  0  9G10G12G26G15G05G29G25G02G30
 128598414.266 6 100206696.85443  24471444.617                    24471454.938
 115690540.263 8  90148547.192 7  22015176.000                    22015183.605
 120265091.734 7  93713160.27044  22885680.711                    22885690.754
 124958183.418 7  97369929.477 6  23778703.883                    23778715.738
 108606494.998 8  84628546.085 7  20667099.055                    20667106.520
 115801041.547 7  90234638.832 7  22036203.750                    22036212.176
 114159004.322 8  88955101.628 7  21723728.180                    21723738.883
 115187039.104 8  89756270.40445  21919333.875                    21919339.957
 115544699.721 7  90034922.27245  21987427.922                    21987436.828
 11  8 27  2  8 30.0000000  0  9G10G12G26G15G05G29G25G02G30
 128707126.941 6 100291407.98343  24492131.922                    24492142.242
 115767121.836 8  90208221.133 7  22029748.750                    22029757.227
 120176812.038 7  93644370.99044  22868881.625                    22868891.348
 124861673.889 7  97294727.459 6  23760340.039                    23760350.383
 108652884.661 8  84664693.884 7  20675926.578                    20675934.164
 115723103.354 8  90173907.793 7  22021372.406                    22021380.945
 114182176.915 8  88973158.204 7  21728137.461                    21728148.266
 115227116.127 8  89787499.22645  21926960.453                    21926966.328
 115573112.516 8  90057062.12245  21992835.016                    21992844.074
 11  8 27  2  9  0.0000000  0  9G10G12G26G15G05G29G25G02G30
 128815883.489 6 100376153.32042  24512827.711                    24512837.414
 115844020.017 8  90268141.770 7  22044382.164                    22044390.449
 120088755.687 7  93575755.72944  22852125.305                    22852134.664
 124765155.948 7  97219518.805 6  23741973.063                    23741982.391
 108699704.184 8  84701176.639 7  20684835.953                    20684843.688
 115645320.741 8  90113297.979 7  22006571.039                    22006579.688
 114205881.559 8  88991629.364 7  21732648.352                    21732658.922
 115267276.616 8  89818793.09645  21934602.750                    21934608.816
 115602053.177 8  90079613.30445  21998342.492                    21998351.254
 11  8 27  2  9 30.0000000  0  9G10G12G26G15G05G29G25G02G30
 128924681.375 6 100460930.86442  24533530.844                    24533541.676
 115921231.757 8  90328306.745 7  22059075.070                    22059083.180
 120000925.555 7  93507316.75144  22835411.797                    22835420.711
 124668632.239 6  97144305.659 6  23723604.023                    23723614.785
 108746950.855 8  84737992.226 7  20693826.719                    20693834.328
 115567695.640 7  90052810.909 7  21991799.391                    21991807.410
 114230116.595 8  89010513.812 7  21737260.297                    21737270.914
 115307520.999 8  89850152.34145  21942260.914                    21942266.672
 115631519.668 8  90102574.22245  22003949.508                    22003958.238
 11  8 27  2 10  0.0000000  0  9G10G12G26G15G05G29G25G02G30
 129033518.470 6 100545738.89042  24554242.586                    24554253.246
 115998754.288 8  90388713.891 7  22073826.859                    22073835.340
 119913326.274 7  93439057.68144  22818741.586                    22818751.031
 124572106.139 7  97069090.747 6  23705236.500                    23705247.602
 108794623.271 8  84775139.572 7  20702898.516                    20702906.008
 115490230.835 8  89992448.735 7  21977058.648                    21977066.633
 114254880.908 8  89029810.687 7  21741972.742                    21741983.336
 115347849.889 8  89881577.43245  21949935.258                    21949941.285
 115661510.561 7  90125943.76545  22009656.484                    22009665.906
 11  8 27  2 10 30.0000000  0  9G10G12G26G15G05G29G25G02G30
 129142392.489 6 100630575.79442  24574960.898                    24574970.316
 116076584.296 8  90449360.628 7  22088637.742                    22088645.781
 119825961.171 7  93370981.07444  22802116.016                    22802126.230
 124475580.287 7  96993875.964 6  23686868.211                    23686878.383
 108842718.950 8  84812616.735 8  20712050.742                    20712058.301
 115412928.495 8  89932213.172 7  21962348.477                    21962356.785
 114280172.818 8  89049518.661 7  21746785.516                    21746796.148
 115388263.042 8  89913068.18045  21957625.508                    21957631.832
 115692023.671 7  90149720.22645  22015462.586                    22015471.777
 11  8 27  2 11  0.0000000  0  8G12G26G15G05G29G25G02G30
 116154720.173 8  90510245.711 7  22103506.469                    22103514.297
 119738835.123 7  93303090.75444  22785536.586                    22785546.371
 124379058.672 6  96918664.535 6  23668499.648                    23668509.992
 108891237.038 8  84850423.041 7  20721283.461                    20721291.113
 115335792.148 8  89872106.954 7  21947669.930                    21947678.145
 114305991.942 8  89069637.470 7  21751698.383                    21751709.723
 115428761.833 7  89944625.66445  21965332.164                    21965338.539
 115723058.271 7  90173903.03345  22021368.695                    22021377.152
 11  8 27  2 11 30.0000000  0  8G12G26G15G05G29G25G02G30
 116233157.815 7  90571365.940 7  22118432.547                    22118440.707
 119651950.873 7  93235388.84044  22769002.984                    22769012.984
 124282543.151 7  96843457.811 6  23650134.086                    23650144.355
 108940173.847 8  84888555.629 7  20730595.852                    20730603.324
 115258822.515 8  89812130.652 7  21933022.602                    21933031.172
 114332335.608 8  89090165.003 7  21756711.547                    21756722.363
 115469345.515 8  89976249.28745  21973055.469                    21973061.883
 115754611.316 8  90198489.82045  22027373.055                    22027381.813
 11  8 27  2 12  0.0000000  0  8G12G26G15G05G29G25G02G30
 116311893.344 8  90632718.288 7  22133415.398                    22133423.699
 119565310.856 7  93167877.23144  22752516.313                    22752525.996
 124186035.585 7  96768257.302 6  23631769.078                    23631779.770
 108989525.880 8  84927011.759 7  20739987.438                    20739995.023
 115182020.898 8  89752285.273 7  21918408.109                    21918416.176
 114359201.020 8  89111099.078 7  21761823.984                    21761834.426
 115510013.026 7  90007938.23945  21980793.656                    21980800.199
 115786679.591 7  90223478.08845  22033475.477                    22033483.902
 11  8 27  2 12 30.0000000  0  9G21G12G26G15G05G29G25G02G30
 132367275.48816 103143404.39252  25188664.922                    25188673.355
 116390924.634 8  90694301.109 7  22148454.414                    22148462.676
 119478919.566 7  93100559.44545  22736076.883                    22736085.609
 124089539.537 6  96693065.823 6  23613405.727                    23613415.996
 109039291.989 8  84965790.558 7  20749457.570                    20749465.227
 115105390.580 8  89692573.381 7  21903825.594                    21903833.766
 114386587.253 8  89132439.009 7  21767035.383                    21767046.137
 115550765.274 8  90039693.22745  21988548.984                    21988555.160
 115819261.905 7  90248866.90645  22039675.523                    22039684.297
 11  8 27  2 13  0.0000000  0  9G21G12G26G15G05G29G25G02G30
 132311594.122 6 103100016.37042  25178068.727                    25178079.160
 116470248.442 8  90756111.858 7  22163549.398                    22163557.477
 119392780.617 7  93033438.28344  22719684.727                    22719694.285
 123993058.203 7  96617885.707 6  23595046.656                    23595054.746
 109089469.780 8  85004890.138 7  20759006.078                    20759013.508
 115028933.377 8  89632996.392 7  21889276.313                    21889284.336
 114414492.761 8  89154183.561 7  21772345.758                    21772356.559
 115591602.581 7  90071514.49245  21996319.836                    21996325.754
 115852356.200 8  90274654.67145  22045973.500                    22045982.066
 11  8 27  2 13 30.0000000  0  9G21G12G26G15G05G29G25G02G30
 132255913.589 6 103056629.03943  25167473.477                    25167483.668
 116549861.679 7  90818148.132 7  22178699.422                    22178707.719
 119306897.537 7  92966516.50044  22703341.375                    22703351.324
 123896593.941 6  96542718.915 6  23576689.617                    23576699.543
 109140056.967 8  85044308.741 7  20768632.398                    20768639.730
 114952651.488 8  89573556.017 7  21874760.055                    21874768.648
 114442915.690 8  89176331.290 7  21777754.578                    21777765.348
 115632524.982 7  90103402.07445  22004106.969                    22004113.301
 115885960.319 7  90300839.69745  22052368.070                    22052376.527
 11  8 27  2 14  0.0000000  0  9G21G12G26G15G05G29G25G02G30
 132200233.119 6 103013241.76643  25156877.219                    25156887.930
 116629761.714 7  90880407.893 7  22193903.641                    22193912.109
 119221274.595 7  92899797.42645  22687048.820                    22687057.488
 123800150.179 6  96467568.174 6  23558336.258                    23558346.785
 109191051.842 8  85084045.016 7  20778336.320                    20778343.762
 114876547.735 8  89514254.453 7  21860278.305                    21860286.531
 114471854.679 8  89198881.154 7  21783261.391                    21783272.277
 115673533.194 7  90135356.52245  22011911.047                    22011917.238
 115920072.529 8  90327420.64745  22058859.609                    22058868.188
 11  8 27  2 14 30.0000000  0  9G21G12G26G15G05G29G25G02G30
 132144551.897 6 102969853.96243  25146281.164                    25146291.598
 116709945.150 8  90942888.485 7  22209162.336                    22209170.426
 119135914.570 7  92833283.22044  22670804.539                    22670814.309
 123703729.652 7  96392435.438 6  23539988.125                    23539997.641
 109242450.969 8  85124096.290 7  20788117.602                    20788124.758
 114800623.593 8  89455092.857 7  21845830.117                    21845838.539
 114501307.436 8  89221831.354 7  21788866.070                    21788876.762
 115714626.761 7  90167377.47445  22019730.453                    22019736.738
 115954690.083 8  90354395.36645  22065447.109                    22065455.289
 11  8 27  2 15  0.0000000  0  9G21G12G26G15G05G29G25G02G30
 132088869.584 6 102926465.34543  25135685.203                    25135695.633
 116790409.393 7  91005587.901 7  22224474.000                    22224482.215
 119050821.846 7  92766977.28644  22654611.664                    22654620.801
 123607335.313 6  96317323.167 6  23521644.773                    23521654.660
 109294252.793 8  85164461.353 7  20797974.984                    20797982.348
 114724881.794 8  89396073.359 7  21831417.281                    21831425.500
 114531272.688 8  89245180.893 7  21794568.219                    21794578.953
 115755806.232 8  90199465.37645  22027567.445                    22027573.160
 115989811.402 8  90381762.61645  22072130.430                    22072138.742
 11  8 27  2 15 30.0000000  0  9G21G12G26G15G05G29G25G02G30
 132033185.276 6 102883075.15843  25125088.469                    25125099.262
 116871151.081 8  91068503.492 7  22239838.977                    22239846.852
 118965999.650 7  92700882.16044  22638470.914                    22638479.875
 123510969.772 7  96242233.355 6  23503307.031                    23503316.977
 109346454.065 8  85205137.684 7  20807908.461                    20807916.004
 114649324.414 8  89337197.550 7  21817039.000                    21817047.180
 114561748.104 8  89268927.967 7  21800367.555                    21800378.309
 115797071.483 7  90231620.12345  22035419.672                    22035425.508
 116025433.747 7  90409520.29545  22078908.758                    22078917.293
 11  8 27  2 16  0.0000000  0  9G21G12G26G15G05G29G25G02G30
 131977498.846 6 102839683.32043  25114491.633                    25114502.156
 116952167.898 7  91131633.465 7  22255255.578                    22255264.051
 118881452.235 7  92635001.14344  22622381.547                    22622391.309
 123414636.863 7  96167168.896 6  23484975.289                    23484985.383
 109399054.102 8  85246124.735 7  20817917.938                    20817924.797
 114573954.271 8  89278467.636 7  21802696.352                    21802704.398
 114592732.697 8  89293071.809 7  21806263.742                    21806274.504
 115838423.403 8  90263842.41045  22043288.414                    22043294.684
 116061555.831 8  90437667.36245  22085782.500                    22085791.473
 11  8 27  2 16 30.0000000  0  9G21G12G26G15G05G29G25G02G30
 131921809.548 6 102796289.24943  25103894.750                    25103904.723
 117033456.375 7  91194975.127 7  22270724.430                    22270732.660
 118797183.059 7  92569336.91145  22606345.977                    22606355.324
 123318338.926 7  96092131.749 6  23466650.305                    23466660.395
 109452049.657 8  85287419.983 7  20828002.938                    20828009.949
 114498773.346 8  89219885.183 7  21788390.203                    21788398.133
 114624224.217 8  89317610.643 7  21812256.156                    21812267.273
 115879861.828 8  90296132.10045  22051173.727                    22051180.141
 116098174.856 7  90466201.66345  22092750.898                    22092759.598
 11  8 27  2 17  0.0000000  0  9G21G12G26G15G05G29G25G02G30
 131866116.456 6 102752892.23743  25093296.258                    25093306.953
 117115013.062 7  91258525.789 7  22286244.406                    22286252.465
 118713195.396 7  92503892.06545  22590363.500                    22590372.941
 123222078.790 7  96017124.023 6  23448332.820                    23448342.000
 109505437.990 8  85329021.285 8  20838162.273                    20838169.777
 114423783.550 8  89161451.653 7  21774119.742                    21774127.898
 114656220.491 8  89342542.804 7  21818344.883                    21818355.668
 115921386.722 7  90328489.16245  22059075.969                    22059081.727
 116135288.487 8  90495121.37145  22099813.570                    22099822.246
 11  8 27  2 17 30.0000000  0  9G21G12G26G15G05G29G25G02G30
 131810419.307 6 102709492.04343  25082697.617                    25082707.844
 117196835.619 7  91322283.621 7  22301814.281                    22301822.824
 118629493.484 7  92438669.87045  22574435.555                    22574444.840
 123125859.955 7  95942148.461 6  23430022.406                    23430031.602
 109559217.557 8  85370927.448 7  20848396.031                    20848403.199
 114348987.615 8  89103169.178 7  21759886.758                    21759894.801
 114688720.188 8  89367867.238 7  21824529.320                    21824540.398
 115962998.874 7  90360914.23445  22066994.063                    22067000.383
 116172894.926 7  90524425.08445  22106969.594                    22106978.555
 11  8 27  2 18  0.0000000  0  9G21G12G26G15G05G29G25G02G30
 131754717.598 6 102666088.31743  25072097.445                    25072107.926
 117278920.978 7  91386246.233 7  22317434.734                    22317442.949
 118546080.889 7  92373673.13845  22558562.797                    22558572.367
 123029685.004 7  95867207.106 6  23411721.164                    23411730.324
 109613385.942 8  85413136.577 7  20858704.250                    20858711.141
 114274387.884 8  89045039.594 7  21745690.664                    21745698.773
 114721721.406 8  89393582.465 7  21830809.695                    21830820.324
 116004698.543 8  90393407.48245  22074929.086                    22074936.066
 116210991.945 8  90554111.06645  22114219.570                    22114228.359
 11  8 27  2 18 30.0000000  0  9G21G12G26G15G05G29G25G02G30
 131699010.535 6 102622680.39443  25061496.500                    25061506.816
 117361265.982 7  91450411.158 7  22333104.523                    22333113.180
 118462961.239 7  92308904.66445  22542745.297                    22542754.777
 122933557.067 7  95792302.389 6  23393428.063                    23393437.598
 109667940.363 8  85455646.519 7  20869085.211                    20869092.379
 114199986.468 8  88987064.528 7  21731532.633                    21731540.402
 114755222.090 8  89419686.877 7  21837184.531                    21837195.457
 116046485.725 8  90425968.93445  22082881.211                    22082887.605
 116249577.074 8  90584177.39745  22121561.844                    22121570.566
 11  8 27  2 19  0.0000000  0  9G21G12G26G15G05G29G25G02G30
 131643297.520 6 102579267.81543  25050894.633                    25050904.949
 117443867.104 7  91514775.657 7  22348822.648                    22348831.688
 118380137.885 7  92244367.08045  22526984.453                    22526993.965
 122837478.875 7  95717436.431 6  23375145.172                    23375154.090
 109722878.367 8  85498455.357 7  20879539.750                    20879546.855
 114125785.417 8  88929245.589 7  21717412.289                    21717420.207
 114789220.072 8  89446178.803 7  21843653.883                    21843664.676
 116088360.578 7  90458598.69245  22090849.516                    22090856.016
 116288647.827 7  90614622.13645  22128997.047                    22129005.605
 11  8 27  2 19 30.0000000  0  9G21G12G26G15G05G29G25G02G30
 131587578.174 6 102535850.30643  25040291.656                    25040301.699
 117526721.871 7  91579337.804 7  22364589.539                    22364597.875
 118297614.758 7  92180063.43245  22511280.555                    22511290.461
 122741453.777 7  95642611.838 6  23356872.000                    23356881.105
 109778198.137 8  85541561.675 7  20890066.438                    20890074.078
 114051787.407 8  88871584.857 7  21703331.133                    21703338.965
 114823713.748 8  89473056.995 7  21850217.883                    21850228.477
 116130323.681 7  90491297.21345  22098834.984                    22098841.152
 116328202.269 7  90645443.77945  22136523.867                    22136532.707
 11  8 27  2 20  0.0000000  0  9G21G12G26G15G05G29G25G02G30
 131531851.679 6 102492427.21143  25029686.969                    25029696.766
 117609826.979 7  91644095.028 7  22380403.750                    22380412.148
 118215395.541 7  92115996.58745  22495634.477                    22495643.980
 122645484.718 7  95567830.921 6  23338609.273                    23338618.871
 109833896.880 8  85584963.300 7  20900665.523                    20900672.984
 113977994.488 8  88814083.934 7  21689288.477                    21689296.852
 114858700.969 8  89500319.748 7  21856875.945                    21856886.797
 116172374.794 7  90524064.33045  22106836.547                    22106843.086
 116368237.798 7  90676640.28145  22144142.438                    22144151.078
 11  8 27  2 20 30.0000000  0  9G21G12G26G15G05G29G25G02G30
 131476117.546 6 102448998.13243  25019081.078                    25019091.164
 117693179.367 7  91709044.935 7  22396265.531                    22396273.887
 118133483.721 7  92052169.28745  22480047.531                    22480056.883
 122549574.617 7  95493095.918 6  23320358.680                    23320367.238
 109889972.244 8  85628658.377 7  20911336.414                    20911343.859
 113904409.393 8  88756744.942 7  21675285.930                    21675293.613
 114894179.766 8  89527965.560 7  21863627.156                    21863637.969
 116214514.446 7  90556900.42245  22114856.133                    22114862.250
 116408752.125 7  90708209.88645  22151851.867                    22151860.383
 11  8 27  2 21  0.0000000  0  9G21G12G26G15G05G29G25G02G30
 131420375.007 6 102405562.49743  25008473.664                    25008483.836
 117776776.072 7  91774185.237 7  22412173.469                    22412181.637
 118051882.938 7  91988584.34244  22464519.266                    22464528.430
 122453726.279 7  95418409.057 6  23302118.914                    23302127.590
 109946421.894 8  85672645.119 7  20922078.570                    20922085.777
 113831033.953 8  88699569.314 7  21661323.195                    21661331.145
 114930148.085 8  89555992.816 7  21870471.633                    21870482.941
 116256743.183 7  90589805.95445  22122892.078                    22122897.906
 116449742.817 7  90740150.67745  22159652.133                    22159661.250
 11  8 27  2 21 30.0000000  0  9G21G12G26G15G05G29G25G02G30
 131364623.345 6 102362119.78443  24997864.422                    24997874.383
 117860614.200 7  91839513.645 7  22428127.172                    22428135.762
 117970596.980 7  91925244.71344  22449051.180                    22449059.961
 122357942.893 7  95343772.807 6  23283892.477                    23283901.516
 110003243.231 8  85716921.491 7  20932891.297                    20932898.691
 113757870.755 8  88642559.065 7  21647400.438                    21647408.367
 114966603.840 8  89584399.893 7  21877408.813                    21877419.734
 116299061.052 7  90622780.91245  22130944.609                    22130951.027
 116491207.502 7  90772460.80545  22167542.227                    22167551.711
 11  8 27  2 22  0.0000000  0  9G21G12G26G15G05G29G25G02G30
 131308862.228 6 102318669.71843  24987252.922                    24987262.906
 117944690.556 7  91905027.675 7  22444126.633                    22444134.969
 117889629.610 7  91862153.33545  22433643.359                    22433652.434
 122262227.175 7  95269189.274 6  23265677.203                    23265686.488
 110060433.928 8  85761485.667 7  20943774.469                    20943781.461
 113684921.978 8  88585715.894 7  21633518.805                    21633526.441
 115003545.151 8  89613185.335 7  21884438.805                    21884449.480
 116341468.349 7  90655825.56545  22139014.148                    22139020.582
 116533143.954 7  90805138.54945  22175523.031                    22175531.785
 11  8 27  2 22 30.0000000  0  9G21G12G26G15G05G29G25G02G30
 131253091.233 6 102275211.92543  24976639.852                    24976649.816
 118029001.628 7  91970724.596 7  22460170.016                    22460178.980
 117808984.217 7  91799312.85045  22418297.070                    22418306.348
 122166582.228 7  95194660.882 6  23247477.547                    23247486.332
 110117991.795 8  85806335.960 7  20954727.102                    20954734.609
 113612189.871 8  88529041.550 7  21619678.234                    21619686.254
 115040969.886 8  89642347.471 7  21891560.289                    21891571.301
 116383965.274 7  90688940.04945  22147101.453                    22147107.594
 116575549.670 7  90838181.95845  22183592.477                    22183601.184
 11  8 27  2 23  0.0000000  0  9G21G12G26G15G05G29G25G02G30
 131197309.790 6 102231745.98243  24966025.609                    24966035.211
 118113544.986 7  92036602.516 7  22476258.156                    22476266.863
 117728664.359 7  91736726.02545  22403013.156                    22403021.285
 122071011.546 7  95120190.371 6  23229290.203                    23229298.898
 110175914.452 8  85851470.502 7  20965749.508                    20965756.922
 113539677.246 8  88472538.241 7  21605879.695                    21605887.039
 115078875.816 8  89671884.559 7  21898773.586                    21898784.504
 116426552.214 7  90722124.67945  22155205.234                    22155211.605
 116618421.996 7  90871588.96345  22191750.586                    22191759.969
 11  8 27  2 23 30.0000000  0  9G21G12G26G15G05G29G25G02G30
 131141517.369 6 102188271.49042  24955407.750                    24955418.570
 118198317.397 7  92102658.932 7  22492390.180                    22492398.559
 117648673.810 7  91674395.81945  22387791.086                    22387799.371
 121975517.722 7  95045779.706 6  23211118.508                    23211127.047
 110234199.336 8  85896887.311 7  20976840.844                    20976848.242
 113467385.721 8  88416207.202 7  21592122.695                    21592130.621
 115117260.855 8  89701794.977 7  21906078.234                    21906088.930
 116469229.356 7  90755379.59645  22163326.609                    22163332.805
 116661758.620 7  90905357.75445  22199997.313                    22200006.438
 11  8 27  2 24  0.0000000  0  9G21G12G26G15G05G29G25G02G30
 131085713.198 6 102144787.87342  24944789.250                    24944798.828
 118283315.818 7  92168891.458 7  22508565.242                    22508572.719
 117569016.270 7  91612325.08945  22372632.609                    22372641.844
 121880103.863 7  94971431.410 6  23192961.305                    23192970.727
 110292844.021 8  85942584.469 7  20988000.617                    20988007.809
 113395318.097 8  88360050.638 7  21578408.648                    21578416.750
 115156123.018 8  89732077.185 7  21913473.461                    21913484.512
 116511997.236 8  90788705.21845  22171464.961                    22171471.391
 116705557.177 7  90939486.50345  22208331.891                    22208340.820
 11  8 27  2 24 30.0000000  0  9G21G12G26G15G05G29G25G02G30
 131029897.140 6 102101294.96242  24934167.141                    24934177.395
 118368537.570 7  92235298.013 7  22524781.914                    22524790.238
 117489695.996 7  91550517.17445  22357538.367                    22357547.531
 121784773.479 7  94897148.111 6  23174820.781                    23174829.777
 110351847.082 8  85988560.885 7  20999228.242                    20999236.145
 113323477.413 8  88304070.915 7  21564737.797                    21564745.648
 115195460.721 8  89762729.941 7  21920959.383                    21920969.953
 116554856.450 7  90822102.01245  22179620.852                    22179627.250
 116749815.693 7  90973973.65245  22216754.070                    22216762.723
 11  8 27  2 25  0.0000000  0  9G21G12G26G15G05G29G25G02G30
 130974067.555 6 102057791.51042  24923542.672                    24923553.418
 118453978.334 8  92301875.235 7  22541040.883                    22541048.754
 117410714.994 7  91488973.63445  22342508.539                    22342517.594
 121689528.520 7  94822931.389 6  23156696.250                    23156705.000
 110411203.893 8  86034812.952 7  21010523.711                    21010531.113
 113251864.708 8  88248268.834 7  21551110.688                    21551118.074
 115235270.360 8  89793750.441 7  21928534.594                    21928545.492
 116597806.374 7  90855569.47245  22187794.211                    22187800.004
 116794530.307 7  91008816.20945  22225263.203                    22225272.234
 11  8 27  2 25 30.0000000  0  9G21G12G26G15G05G29G25G02G30
 130918224.763 6 102014277.78942  24912916.469                    24912926.289
 118539636.039 7  92368621.493 7  22557341.039                    22557349.172
 117332078.262 7  91427698.35645  22327544.234                    22327553.555
 121594373.027 7  94748784.378 6  23138588.398                    23138597.520
 110470913.499 8  86081339.927 7  21021885.789                    21021893.277
 113180483.057 8  88192646.801 7  21537526.820                    21537534.777
 115275550.909 8  89825137.878 7  21936200.055                    21936210.492
 116640847.985 8  90889108.38245  22195984.688                    22195990.789
 116839699.580 7  91044013.03745  22233858.406                    22233867.332
 11  8 27  2 26  0.0000000  0  9G21G12G26G15G05G29G25G02G30
 130862368.122 6 101970753.33142  24902287.531                    24902296.520
 118625507.679 7  92435534.455 7  22573681.563                    22573690.434
 117253788.980 7  91366693.81545  22312646.297                    22312655.305
 121499309.665 7  94674709.143 6  23120498.445                    23120507.289
 110530973.357 8  86128139.827 7  21033314.953                    21033322.465
 113109334.825 8  88137206.652 7  21523988.203                    21523995.488
 115316299.954 8  89856890.379 7  21943954.211                    21943964.828
 116683981.538 7  90922718.93545  22204192.688                    22204199.070
 116885320.776 7  91079562.01245  22242540.023                    22242548.656
 11  8 27  2 26 30.0000000  0  9G21G12G26G15G05G29G25G02G30
 130806496.958 6 101927217.50342  24891654.836                    24891665.031
 118711589.827 7  92502611.432 7  22590062.445                    22590071.391
 117175850.657 7  91305962.72245  22297815.523                    22297824.590
 121404341.466 7  94600708.071 6  23102426.156                    23102435.645
 110591381.037 8  86175210.754 7  21044810.078                    21044817.738
 113038422.157 8  88081950.076 7  21510493.758                    21510501.738
 115357515.035 8  89889006.020 7  21951797.172                    21951807.887
 116727207.354 8  90956401.38745  22212418.375                    22212424.609
 116931391.180 7  91115461.02645  22251306.773                    22251315.754
 11  8 27  2 27  0.0000000  0  9G21G12G26G15G05G29G25G02G30
 130750610.448 6 101883669.65242  24881020.914                    24881029.652
 118797879.141 7  92569849.831 7  22606483.078                    22606491.246
 117098266.737 7  91245507.79845  22283051.414                    22283060.145
 121309471.239 7  94526783.332 6  23084373.164                    23084382.129
 110652133.412 8  86222550.271 7  21056370.898                    21056378.406
 112967747.230 8  88026878.755 7  21497044.492                    21497052.277
 115399193.664 8  89921482.863 7  21959728.258                    21959739.129
 116770525.379 8  90990155.68045  22220661.547                    22220667.633
 116977907.875 7  91151707.79345  22260158.172                    22260167.410
 11  8 27  2 27 30.0000000  0  9G21G12G26G15G05G29G25G02G30
 130694708.509 6 101840109.89443  24870382.352                    24870391.395
 118884372.888 7  92637247.532 7  22622942.156                    22622951.180
 117021041.169 7  91185332.11145  22268355.742                    22268364.820
 121214702.631 7  94452937.803 6  23066339.078                    23066348.203
 110713228.977 8  86270157.204 7  21067996.805                    21068004.563
 112897312.976 8  87971994.966 7  21483641.039                    21483649.410
 115441334.249 8  89954319.677 7  21967747.133                    21967757.914
 116813936.325 8  91023982.37545  22228922.203                    22228928.176
 117024868.991 7  91188300.87745  22269094.891                    22269103.715
 11  8 27  2 28  0.0000000  0  9G21G12G26G15G05G29G25G02G30
 130638790.338 6 101796537.35243  24859741.469                    24859750.500
 118971068.101 7  92704802.230 7  22639440.109                    22639448.129
 116944177.283 8  91125438.22945  22253728.703                    22253737.859
 121120038.264 7  94379173.480 6  23048325.391                    23048334.082
 110774664.739 8  86318029.231 7  21079687.586                    21079695.297
 112827121.024 8  87917299.979 7  21470283.922                    21470292.188
 115483934.028 8  89987514.289 7  21975854.047                    21975864.340
 116857440.392 8  91057881.64145  22237200.680                    22237207.363
 117072271.432 7  91225237.83945  22278115.969                    22278124.520
 11  8 27  2 28 30.0000000  0  9G21G12G26G15G05G29G25G02G30
 130582855.320 6 101752951.74443  24849096.938                    24849106.559
 119057961.443 7  92772511.321 7  22655975.508                    22655983.922
 116867678.798 7  91065829.09345  22239171.625                    22239180.773
 121025481.482 7  94305493.022 6  23030331.328                    23030340.809
 110836438.482 8  86366164.616 7  21091442.813                    21091450.340
 112757174.376 8  87862796.145 7  21456973.906                    21456981.805
 115526990.943 8  90021065.136 7  21984047.305                    21984058.176
 116901038.121 8  91091853.88245  22245497.297                    22245503.863
 117120112.706 7  91262516.74945  22287219.383                    22287228.301
 11  8 27  2 29  0.0000000  0  9G21G12G26G15G05G29G25G02G30
 130526902.978 6 101709352.64643  24838449.797                    24838458.754
 119145049.922 7  92840372.472 7  22672547.672                    22672555.551
 116791549.189 8  91006507.37445  22224684.781                    22224693.414
 120931035.052 7  94231898.472 6  23012358.961                    23012367.102
 110898547.648 8  86414561.362 7  21103262.047                    21103269.250
 112687475.096 8  87808485.074 7  21443710.242                    21443718.219
 115570502.596 8  90054970.319 7  21992327.336                    21992337.891
 116944729.861 8  91125899.38245  22253811.844                    22253817.633
 117168390.224 7  91300135.59245  22296405.734                    22296415.121
 11  8 27  2 29 30.0000000  0  9G21G12G26G15G05G29G25G02G30
 130470932.812 6 101665739.64843  24827799.211                    24827808.293
 119232330.576 7  92908383.350 7  22689156.266                    22689164.766
 116715792.485 7  90947476.23745  22210268.172                    22210277.582
 120836702.351 7  94158392.601 6  22994407.586                    22994417.078
 110960989.764 8  86463217.554 7  21115144.203                    21115151.535
 112618025.875 8  87754368.854 7  21430494.750                    21430502.211
 115614466.788 8  90089228.120 7  22000693.383                    22000704.145
 116988515.778 8  91160018.28245  22262143.766                    22262150.008
 117217101.477 7  91338092.39945  22305675.781                    22305684.422
 11  8 27  2 30  0.0000000  0  9G21G12G26G15G05G29G25G02G30
 130414944.202 6 101622112.27843  24817145.086                    24817154.078
 119319800.239 7  92976541.530 7  22705801.469                    22705809.727
 116640411.557 7  90888737.91645  22195924.219                    22195932.813
 120742486.254 7  94084977.556 6  22976478.359                    22976487.676
 111023762.264 8  86512131.190 7  21127089.383                    21127096.527
 112548828.825 8  87700449.119 7  21417326.781                    21417334.242
 115658881.007 8  90123836.604 7  22009144.617                    22009155.547
 117032396.319 8  91194210.90745  22270493.789                    22270499.883
 117266243.648 7  91376385.00245  22315027.359                    22315036.082
 11  8 27  2 30 30.0000000  0  9G21G12G26G15G05G29G25G02G30
 130358936.671 7 101578470.15743  24806486.820                    24806495.852
 119407456.275 7  93044844.925 6  22722481.844                    22722489.848
 116565410.526 8  90830295.61645  22181652.063                    22181660.621
 120648390.012 7  94011655.920 7  22958572.945                    22958581.754
 111086863.077 8  86561300.643 7  21139096.984                    21139104.629
 112479886.729 8  87646728.052 7  21404207.750                    21404215.535
 115703743.158 8  90158794.122 7  22017682.195                    22017692.777
 117076371.989 7  91228477.67745  22278861.797                    22278868.434
 117315814.187 7  91415011.38345  22324459.891                    22324468.793
 11  8 27  2 31  0.0000000  0  9G21G12G26G15G05G29G25G02G30
 130302909.562 7 101534812.80243  24795824.586                    24795834.164
 119495294.593 7  93113290.368 7  22739197.281                    22739205.234
 116490792.639 7  90772151.88645  22167452.508                    22167461.395
 120554416.513 7  93938429.933 6  22940690.078                    22940699.266
 111150289.408 8  86610723.755 7  21151166.914                    21151174.328
 112411201.173 8  87593206.885 7  21391137.047                    21391144.824
 115749050.550 8  90194098.583 7  22026304.242                    22026314.609
 117120442.948 7  91262818.67745  22287248.500                    22287254.996
 117365810.225 7  91453969.32545  22333974.516                    22333982.984
 11  8 27  2 31 30.0000000  0 10G21G12G26G15G05G29G25G02G30G18
 130246862.406 7 101491139.77743  24785160.047                    24785168.148
 119583312.408 7  93181875.674 7  22755945.828                    22755954.660
 116416561.118 7  90714309.20145  22153326.422                    22153335.871
 120460568.669 7  93865301.849 7  22922831.719                    22922840.449
 111214038.529 8  86660398.390 7  21163297.813                    21163305.422
 112342774.872 8  87539887.732 7  21378115.867                    21378123.355
 115794800.675 8  90229748.029 7  22035009.539                    22035020.758
 117164609.499 7  91297234.18445  22295653.422                    22295659.270
 117416228.860 7  91493256.57645  22343568.883                    22343577.504
 129751592.89516 101104995.81253  24690863.641                    24690874.379
 11  8 27  2 32  0.0000000  0 10G21G12G26G15G05G29G25G02G30G18
 130190794.488 7 101447450.60943  24774489.555                    24774499.082
 119671507.005 7  93250598.725 7  22772728.891                    22772737.699
 116342719.972 7  90656770.71945  22139275.141                    22139283.465
 120366849.875 7  93792274.322 6  22904997.656                    22905006.492
 111278108.235 8  86710322.831 7  21175489.836                    21175497.734
 112274610.495 8  87486772.680 7  21365144.609                    21365152.121
 115840991.334 8  90265740.759 7  22043799.508                    22043810.457
 117208872.065 7  91331724.50145  22304075.820                    22304082.375
 117467067.622 7  91532871.19245  22353242.820                    22353251.555
 129662659.626 6 101035697.45243  24673939.734                    24673951.129
 11  8 27  2 32 30.0000000  0 10G21G12G26G15G05G29G25G02G30G18
 130134704.954 7 101403744.58543  24763816.711                    24763825.734
 119759874.303 7  93319456.345 7  22789544.836                    22789553.113
 116269271.721 7  90599538.39145  22125297.992                    22125307.188
 120273262.382 7  93719349.087 6  22887188.547                    22887196.980
 111342495.321 8  86760494.569 7  21187742.289                    21187750.355
 112206709.348 8  87433862.728 7  21352223.570                    21352231.223
 115887619.361 8  90302074.296 7  22052672.602                    22052683.508
 117253230.597 7  91366289.59645  22312517.086                    22312523.836
 117518322.990 7  91572810.43245  22362996.430                    22363004.965
 129573892.112 6 100966528.35143  24657047.844                    24657059.000
 11  8 27  2 33  0.0000000  0 10G21G12G26G15G05G29G25G02G30G18
 130078594.496 7 101360022.25243  24753138.930                    24753148.023
 119848412.563 7  93388447.171 7  22806392.672                    22806401.547
 116196221.420 8  90542616.13645  22111397.109                    22111406.363
 120179810.840 7  93646529.792 6  22869405.102                    22869413.410
 111407198.983 8  86810913.001 7  21200055.195                    21200062.594
 112139075.448 8  87381161.032 7  21339353.320                    21339360.637
 115934683.740 7  90338747.852 7  22061628.523                    22061639.410
 117297686.096 7  91400930.26845  22320976.523                    22320983.199
 117569993.713 7  91613073.32145  22372828.969                    22372837.754
 129485292.900 6 100897490.27943  24640187.484                    24640198.676
 11  8 27  2 33 30.0000000  0 10G21G12G26G15G05G29G25G02G30G18
 130022461.989 6 101316282.73343  24742457.422                    24742465.977
 119937118.647 7  93457568.776 7  22823273.094                    22823281.617
 116123572.093 7  90486006.33345  22097572.664                    22097581.023
 120086497.608 7  93573818.253 6  22851647.922                    22851656.051
 111472216.206 8  86861575.760 7  21212427.695                    21212435.055
 112071710.891 8  87328669.197 7  21326533.773                    21326541.805
 115982181.632 8  90375759.208 7  22070667.016                    22070678.043
 117342239.293 7  91435647.06145  22329454.883                    22329460.875
 117622076.634 7  91653657.41545  22382739.766                    22382749.023
 129396862.712 6 100828583.92542  24623359.633                    24623370.512
 11  8 27  2 34  0.0000000  0 10G21G12G26G15G05G29G25G02G30G18
 129966306.838 7 101272525.60043  24731770.789                    24731779.766
 120025988.940 7  93526818.330 7  22840184.828                    22840193.211
 116051327.200 7  90429711.68345  22083824.875                    22083833.523
 119993325.814 7  93501216.958 6  22833917.781                    22833925.945
 111537544.151 8  86912480.641 7  21224858.953                    21224866.766
 112004617.491 8  87276388.662 7  21313766.516                    21313774.273
 116030110.186 8  90413106.148 7  22079787.492                    22079798.398
 117386890.251 7  91470440.03345  22337951.594                    22337958.035
 117674568.608 7  91694560.24345  22392728.805                    22392737.957
 129308602.565 6 100759810.05442  24606564.391                    24606575.117
 11  8 27  2 34 30.0000000  0 10G21G12G26G15G05G29G25G02G30G18
 129910128.481 6 101228750.35143  24721080.719                    24721089.852
 120115020.497 7  93596193.542 6  22857126.289                    22857134.926
 115979490.103 7  90373734.79145  22070154.469                    22070163.414
 119900298.725 7  93428728.421 6  22816215.430                    22816223.773
 111603180.434 8  86963625.782 7  21237349.453                    21237356.699
 111937797.749 8  87224321.362 7  21301051.070                    21301058.867
 116078467.082 8  90450786.848 7  22088989.570                    22089000.316
 117431639.342 7  91505309.47445  22346467.109                    22346473.230
 117727466.989 7  91735779.75945  22402795.344                    22402804.309
 129220513.938 6 100691169.81742  24589801.242                    24589812.164
 11  8 27  2 35  0.0000000  0 10G21G12G26G15G05G29G25G02G30G18
 129853926.827 6 101184956.95343  24710385.922                    24710394.914
 120204210.544 7  93665692.271 6  22874099.313                    22874107.859
 115908064.501 7  90318078.54845  22056562.617                    22056571.457
 119807419.350 7  93356354.948 6  22798540.930                    22798549.211
 111669122.906 8  87015009.533 7  21249897.914                    21249905.207
 111871254.642 8  87172469.630 7  21288388.391                    21288396.203
 116127250.077 8  90488799.588 7  22098272.594                    22098283.414
 117476487.031 7  91540255.76145  22355001.617                    22355007.895
 117780769.243 7  91777313.98745  22412938.125                    22412947.305
 129132598.396 6 100622664.47843  24573071.398                    24573081.398
 11  8 27  2 35 30.0000000  0 10G21G12G26G15G05G29G25G02G30G18
 129797700.926 6 101141144.66943  24699686.422                    24699695.227
 120293556.164 7  93735312.217 6  22891101.016                    22891109.332
 115837053.681 8  90262745.50145  22043049.867                    22043058.801
 119714690.564 7  93284098.870 6  22780895.188                    22780904.121
 111735368.690 8  87066629.615 7  21262503.664                    21262511.293
 111804990.004 8  87120834.879 7  21275778.719                    21275786.363
 116176456.363 8  90527142.167 7  22107636.547                    22107647.023
 117521433.676 7  91575279.13245  22363554.484                    22363560.461
 117834472.316 7  91819160.54345  22423157.266                    22423166.340
 129044856.844 6 100554294.66942  24556373.820                    24556384.648
 11  8 27  2 36  0.0000000  0 10G21G12G26G15G05G29G25G02G30G18
 129741450.564 6 101097313.37443  24688981.633                    24688991.012
 120383053.761 7  93805050.603 6  22908131.578                    22908140.648
 115766461.068 7  90207738.33545  22029616.398                    22029624.809
 119622115.876 7  93211962.829 7  22763278.797                    22763287.480
 111801915.764 8  87118484.468 7  21275167.406                    21275174.867
 111739006.415 8  87069419.126 7  21263222.297                    21263230.332
 116226083.589 8  90565812.735 7  22117079.984                    22117091.008
 117566479.624 7  91610379.88545  22372126.789                    22372133.051
 117888573.549 7  91861317.34345  22433452.914                    22433461.457
 128957290.727 6 100486061.63742  24539710.742                    24539721.168
 11  8 27  2 36 30.0000000  0 10G21G12G26G15G05G29G25G02G30G18
 129685175.197 6 101053462.49943  24678273.211                    24678281.691
 120472700.186 7  93874904.936 6  22925190.820                    22925199.285
 115696290.228 7  90153059.81445  22016262.977                    22016272.137
 119529698.086 7  93139949.060 7  22745692.117                    22745700.949
 111868761.352 8  87170571.938 7  21287887.641                    21287895.172
 111673306.177 8  87018224.183 7  21250719.820                    21250727.949
 116276129.097 8  90604809.257 7  22126603.234                    22126613.777
 117611625.268 7  91645558.33045  22380717.094                    22380723.777
 117943069.903 7  91903782.04145  22443823.117                    22443831.820
 128869901.300 6 100417966.22542  24523080.586                    24523091.563
 11  8 27  2 37  0.0000000  0 10G21G12G26G15G05G29G25G02G30G18
 129628874.124 6 101009591.64143  24667558.922                    24667568.762
 120562492.593 7  93944873.031 7  22942277.641                    22942286.133
 115626544.457 8  90098712.53245  22002990.992                    22002999.496
 119437440.301 7  93068059.971 7  22728135.836                    22728144.664
 111935902.850 8  87222889.987 7  21300664.156                    21300671.488
 111607891.936 8  86967252.078 7  21238271.992                    21238279.848
 116326590.314 8  90644129.694 7  22136205.703                    22136216.547
 117656871.139 7  91680814.86745  22389327.172                    22389333.594
 117997958.666 7  91946552.52245  22454268.000                    22454276.727
 128782689.619 6 100350009.30942  24506485.297                    24506495.395
 11  8 27  2 37 30.0000000  0 10G21G12G26G15G05G29G25G02G30G18
 129572547.246 6 100965700.67143  24656840.672                    24656849.941
 120652427.887 7  94014952.472 6  22959391.477                    22959400.066
 115557227.425 8  90044699.31445  21989800.680                    21989808.555
 119345346.036 7  92996298.294 7  22710610.969                    22710619.023
 112003338.022 8  87275436.868 7  21313496.305                    21313504.266
 111542766.196 8  86916504.781 7  21225879.133                    21225886.898
 116377464.802 8  90683772.161 7  22145887.070                    22145897.113
 117702217.682 7  91716149.85145  22397956.531                    22397962.277
 118053237.096 7  91989626.63645  22464786.836                    22464795.434
 128695656.887 6 100282191.82243  24489923.359                    24489933.684
 11  8 27  2 38  0.0000000  0 10G21G12G26G15G05G29G25G02G30G18
 129516193.730 6 100921788.97443  24646116.914                    24646125.930
 120742503.191 7  94085140.990 6  22976533.141                    22976541.125
 115488342.444 8  89991022.76145  21976692.148                    21976700.953
 119253418.104 7  92924666.226 6  22693117.250                    22693125.672
 112071064.602 8  87328210.832 7  21326384.102                    21326391.961
 111477930.919 8  86865983.830 7  21213541.414                    21213549.340
 116428749.959 8  90723734.636 7  22155646.156                    22155656.770
 117747665.205 7  91751563.50545  22406604.602                    22406611.113
 118108902.259 7  92033002.09845  22475379.633                    22475388.758
 128608804.559 6 100214514.88143  24473395.227                    24473405.910
 11  8 27  2 38 30.0000000  0 10G21G12G26G15G05G29G25G02G30G18
 129459812.890 6 100877855.95843  24635387.695                    24635397.082
 120832714.688 7  94155435.663 6  22993699.219                    22993707.750
 115419892.362 7  89937685.09245  21963666.445                    21963674.871
 119161659.530 7  92853166.131 6  22675656.008                    22675664.699
 112139079.381 8  87381209.365 7  21339327.477                    21339334.703
 111413388.087 8  86815690.757 7  21201259.008                    21201266.965
 116480442.570 8  90764014.597 7  22165482.750                    22165493.742
 117793213.935 7  91787056.04145  22415272.594                    22415278.531
 118164950.665 7  92076676.18745  22486045.805                    22486053.922
 128522133.253 6 100146978.98843  24456902.492                    24456912.664
 11  8 27  2 39  0.0000000  0 10G21G12G26G15G05G29G25G02G30G18
 129403404.141 6 100833901.19043  24624652.906                    24624662.313
 120923059.475 7  94225834.190 6  23010891.766                    23010900.813
 115351880.806 8  89884689.12745  21950724.328                    21950732.824
 119070073.015 7  92781800.091 6  22658227.398                    22658236.207
 112207380.013 8  87434430.638 7  21352324.750                    21352332.141
 111349140.505 8  86765627.741 7  21189033.063                    21189040.957
 116532540.274 8  90804610.221 7  22175396.336                    22175407.262
 117838864.464 7  91822627.87945  22423959.344                    22423965.641
 118221379.698 7  92120646.87944  22496783.461                    22496792.133
 128435644.324 6 100079585.22943  24440443.984                    24440454.137
 11  8 27  2 39 30.0000000  0 10G21G12G26G15G05G29G25G02G30G18
 129346967.607 6 100789924.78343  24613913.961                    24613922.406
 121013534.959 7  94296334.552 6  23028108.813                    23028116.453
 115284311.510 8  89832037.77845  21937866.328                    21937874.938
 118978662.029 7  92710570.825 6  22640833.078                    22640841.234
 112275964.436 8  87487873.056 7  21365375.625                    21365383.012
 111285190.604 8  86715796.697 7  21176863.617                    21176871.469
 116585040.798 8  90845519.742 7  22185387.438                    22185397.980
 117884617.053 7  91858279.25845  22432665.938                    22432672.203
 118278186.735 7  92164912.11545  22507593.336                    22507602.508
 128349339.420 6 100012334.86843  24424020.664                    24424030.547
 11  8 27  2 40  0.0000000  0 10G21G12G26G15G05G29G25G02G30G18
 129290502.700 6 100745926.29543  24603168.398                    24603177.621
 121104138.418 7  94366934.635 6  23045349.602                    23045358.652
 115217187.987 7  89779733.78245  21925093.102                    21925101.266
 118887430.424 7  92639481.332 7  22623472.523                    22623480.223
 112344830.529 8  87541534.953 7  21378480.117                    21378487.883
 111221541.258 7  86666199.844 7  21164751.758                    21164759.219
 116637941.619 8  90886741.166 7  22195453.828                    22195464.273
 117930472.429 7  91894010.71845  22441392.086                    22441397.688
 118335369.132 7  92209469.83845  22518474.406                    22518483.598
 128263219.844 6  99945228.93643  24407632.648                    24407642.195
 11  8 27  2 40 30.0000000  0 10G21G12G26G15G05G29G25G02G30G18
 129234009.057 6 100701905.40643  24592418.117                    24592427.492
 121194866.586 7  94437631.908 6  23062615.070                    23062623.133
 115150513.450 7  89727779.65845  21912405.117                    21912413.879
 118796380.993 7  92568533.795 7  22606146.547                    22606154.473
 112413975.486 8  87595414.137 7  21391638.344                    21391645.609
 111158194.828 7  86616839.033 7  21152697.414                    21152705.141
 116691240.112 8  90928272.473 7  22205596.125                    22205606.930
 117976431.098 8  91929822.66345  22450137.555                    22450143.777
 118392923.813 7  92254317.64545  22529427.031                    22529435.906
 128177286.288 6  99878267.90843  24391279.203                    24391289.656
 11  8 27  2 41  0.0000000  0 10G21G12G26G15G05G29G25G02G30G18
 129177485.730 6 100657861.35943  24581662.258                    24581670.941
 121285715.634 7  94508423.350 6  23079903.039                    23079911.066
 115084290.922 8  89676177.74845  21899803.477                    21899811.789
 118705516.267 7  92497730.202 7  22588854.711                    22588863.246
 112483396.298 8  87649508.297 7  21404848.750                    21404856.148
 111095153.133 7  86567715.680 7  21140701.117                    21140708.504
 116744933.116 8  90970111.177 7  22215813.797                    22215824.477
 118022493.258 8  91965715.26145  22458902.617                    22458909.207
 118450847.544 7  92299453.02845  22540449.461                    22540458.547
 128091539.993 6  99811452.79943  24374962.828                    24374972.738
 11  8 27  2 41 30.0000000  0 10G21G12G26G15G05G29G25G02G30G18
 129120932.709 6 100613794.18343  24570900.320                    24570909.328
 121376682.983 7  94579307.002 6  23097213.461                    23097221.516
 115018524.060 7  89624930.89245  21887287.820                    21887296.457
 118614839.892 7  92427073.379 7  22571599.500                    22571608.371
 112553091.181 8  87703815.998 7  21418111.203                    21418118.512
 111032418.901 7  86518831.911 7  21128762.953                    21128770.633
 116799018.239 8  91012255.430 7  22226105.781                    22226116.258
 118068659.457 8  92001688.90645  22467688.172                    22467694.215
 118509137.606 7  92344873.85245  22551541.953                    22551550.621
 128005982.102 6  99744784.46443  24358680.859                    24358690.676
 11  8 27  2 42  0.0000000  0 10G21G12G26G15G05G29G25G02G30G18
 129064349.158 6 100569703.23743  24560133.117                    24560141.758
 121467765.561 7  94650280.417 6  23114545.898                    23114553.898
 114953215.874 7  89574041.45045  21874860.453                    21874868.711
 118524354.688 7  92356565.508 7  22554380.695                    22554389.422
 112623057.422 8  87758335.167 7  21431425.258                    21431432.477
 110969994.616 8  86470189.639 7  21116883.672                    21116891.480
 116853492.651 8  91054703.038 7  22236471.633                    22236482.684
 118114930.065 7  92037743.91945  22476493.102                    22476499.379
 118567790.867 7  92390577.70245  22562702.859                    22562711.918
 127920613.922 6  99678264.01442  24342435.594                    24342445.742
 11  8 27  2 42 30.0000000  0 10G21G12G26G15G05G29G25G02G30G18
 129007734.798 6 100525588.29243  24549359.648                    24549368.406
 121558960.851 7  94721341.666 6  23131899.648                    23131908.141
 114888369.760 8  89523512.05545  21862520.492                    21862528.906
 118434063.963 7  92286209.184 7  22537199.039                    22537207.277
 112693292.535 8  87813063.841 7  21444790.570                    21444797.617
 110907882.267 8  86421790.450 7  21105064.070                    21105071.504
 116908353.741 8  91097451.945 7  22246911.266                    22246922.250
 118161305.538 7  92073880.64845  22485317.859                    22485324.023
 118626804.447 7  92436562.32945  22573933.305                    22573942.086
 127835436.356 6  99611892.07742  24326226.805                    24326237.309
 11  8 27  2 43  0.0000000  0 10G21G12G26G15G05G29G25G02G30G18
 128951089.187 6 100481448.96343  24538580.305                    24538588.598
 121650264.869 7  94792487.648 6  23149274.430                    23149282.746
 114823989.143 7  89473345.39345  21850269.156                    21850277.336
 118343970.762 7  92216006.764 6  22520054.891                    22520063.016
 112763794.197 8  87868000.210 7  21458206.680                    21458214.219
 110846084.598 7  86373636.459 7  21093304.453                    21093311.992
 116963598.813 8  91140500.054 7  22257424.617                    22257434.969
 118207786.421 7  92110099.52645  22494163.148                    22494169.113
 118686175.436 7  92482825.44245  22585231.086                    22585239.664
 127750450.722 6  99545669.75143  24310054.750                    24310064.828
 11  8 27  2 43 30.0000000  0 10G21G12G26G15G05G29G25G02G30G18
 128894411.956 6 100437284.99743  24527795.297                    24527803.129
 121741674.944 7  94863716.262 6  23166669.070                    23166677.230
 114760077.411 7  89423544.08845  21838107.219                    21838115.559
 118254078.059 7  92145960.550 6  22502949.156                    22502956.715
 112834559.982 8  87923142.395 7  21471673.148                    21471680.406
 110784603.826 8  86325729.400 7  21081605.164                    21081613.020
 117019225.160 7  91183845.267 7  22268009.938                    22268020.113
 118254372.942 7  92146400.72045  22503027.945                    22503033.941
 118745900.899 7  92529364.78745  22596596.547                    22596605.594
 127665658.150 6  99479597.78343  24293918.734                    24293929.016
 11  8 27  2 44  0.0000000  0 10G21G12G26G15G05G29G25G02G30G18
 128837702.738 6 100393096.12843  24517002.523                    24517011.457
 121833188.726 7  94935025.685 6  23184083.711                    23184092.023
 114696637.784 7  89374110.65745  21826035.469                    21826043.867
 118164389.250 7  92076073.227 6  22485881.797                    22485889.410
 112905587.332 8  87978488.397 7  21485189.141                    21485196.211
 110723442.614 8  86278071.347 7  21069966.398                    21069974.316
 117075230.077 7  91227485.479 7  22278667.086                    22278677.691
 118301065.830 7  92182784.78445  22511913.742                    22511919.227
 118805977.866 7  92576178.02045  22608029.016                    22608037.688
 127581059.607 6  99413677.03443  24277820.031                    24277830.129
 11  8 27  2 44 30.0000000  0 10G21G12G26G15G05G29G25G02G30G18
 128780960.635 6 100348881.60343  24506205.250                    24506213.957
 121924802.075 7  95006412.688 6  23201517.180                    23201525.266
 114633673.079 7  89325047.30145  21814052.961                    21814061.793
 118074907.408 7  92006347.179 7  22468853.820                    22468862.012
 112976873.593 8  88034036.154 7  21498754.078                    21498761.563
 110662602.822 8  86230663.762 7  21058389.391                    21058396.855
 117131610.549 7  91271418.312 7  22289395.945                    22289406.574
 118347865.377 7  92219251.96145  22520819.523                    22520825.527
 118866403.141 7  92623262.65345  22619527.914                    22619536.273
 127496656.268 6  99347908.38043  24261758.977                    24261768.535
 11  8 27  2 45  0.0000000  0 10G21G12G26G15G05G29G25G02G30G18
 128724185.382 6 100304641.25943  24495401.547                    24495409.762
 122016512.051 7  95077874.987 6  23218968.336                    23218977.418
 114571186.573 7  89276356.57545  21802162.492                    21802171.207
 117985635.161 7  91936784.459 7  22451865.609                    22451873.770
 113048416.396 8  88089783.813 7  21512368.367                    21512375.805
 110602086.668 8  86183508.345 7  21046873.531                    21046880.309
 117188363.782 7  91315641.612 7  22300195.742                    22300206.344
 118394771.850 7  92255802.46945  22529745.078                    22529750.977
 118927173.556 7  92670616.22145  22631091.109                    22631100.418
 127412449.198 6  99282292.63643  24245734.867                    24245743.895
 11  8 27  2 45 30.0000000  0 10G21G12G26G15G05G29G25G02G30G18
 128667376.907 6 100260375.03343  24484591.039                    24484599.547
 122108316.388 7  95149410.817 6  23236438.906                    23236446.969
 114509182.234 7  89228041.54345  21790363.156                    21790371.660
 117896576.444 7  91867388.141 7  22434918.266                    22434926.129
 113120213.544 8  88145729.656 7  21526031.344                    21526038.293
 110541897.732 8  86136607.924 7  21035419.492                    21035426.809
 117245487.656 7  91360153.703 7  22311066.055                    22311076.793
 118441786.441 7  92292437.22945  22538691.633                    22538697.676
 118988286.841 7  92718236.96345  22642721.313                    22642729.895
 127328439.711 6  99216830.88043  24229747.734                    24229757.199
 11  8 27  2 46  0.0000000  0 10G21G12G26G15G05G29G25G02G30G18
 128610534.325 6 100216082.21443  24473773.961                    24473782.164
 122200211.622 7  95221017.454 6  23253925.922                    23253934.012
 114447662.652 7  89180104.26045  21778656.695                    21778665.004
 117807733.772 7  91798160.173 7  22418012.148                    22418020.871
 113192262.056 8  88201871.373 7  21539741.328                    21539748.730
 110482037.409 7  86089963.547 7  21024028.625                    21024035.941
 117302978.730 7  91404951.948 7  22322006.508                    22322017.461
 118488909.111 7  92329156.20245  22547658.852                    22547664.813
 119049739.209 7  92766121.94345  22654415.047                    22654423.887
 127244628.503 6  99151523.62243  24213798.836                    24213808.391
 11  8 27  2 46 30.0000000  0 10G21G12G26G15G05G29G25G02G30G18
 128553657.732 6 100171762.88043  24462950.727                    24462958.496
 122292195.053 7  95292692.838 6  23271429.609                    23271438.125
 114386631.192 7  89132547.33245  21767042.531                    21767050.996
 117719110.671 7  91729103.277 7  22401148.055                    22401155.418
 113264560.535 8  88258207.858 7  21553499.125                    21553506.586
 110422508.466 8  86043577.403 7  21012700.664                    21012708.305
 117360834.514 7  91450034.372 7  22333016.148                    22333027.086
 118536140.200 7  92365959.65444  22556646.281                    22556652.879
 119111528.088 7  92814269.11745  22666173.570                    22666182.094
 127161016.937 6  99086371.94243  24197887.625                    24197898.070
 11  8 27  2 47  0.0000000  0 10G21G12G26G15G05G29G25G02G30G18
 128496746.340 6 100127416.45343  24452120.320                    24452129.055
 122384262.991 7  95364434.054 6  23288949.820                    23288957.668
 114326091.062 7  89085373.26145  21755522.242                    21755530.648
 117630710.022 7  91660219.736 7  22384325.516                    22384333.613
 113337105.926 8  88314736.752 7  21567304.383                    21567311.805
 110363313.308 8  85997451.344 7  21001436.305                    21001443.625
 117419052.267 7  91495398.853 7  22344094.531                    22344105.105
 118583480.491 7  92402848.20545  22565654.719                    22565661.445
 119173650.406 7  92862676.15045  22677994.352                    22678003.184
 127077606.242 6  99021376.75643  24182015.797                    24182024.879
 11  8 27  2 47 30.0000000  0 10G21G12G26G15G05G29G25G02G30G18
 128439799.943 6 100083042.72643  24441284.477                    24441292.453
 122476412.719 7  95436239.015 6  23306485.383                    23306493.313
 114266045.306 7  89038584.41045  21744095.672                    21744104.777
 117542534.902 7  91591511.901 7  22367546.148                    22367553.488
 113409895.447 8  88371455.878 7  21581155.563                    21581163.031
 110304454.142 8  85951587.108 7  20990235.445                    20990243.219
 117477628.992 7  91541043.053 7  22355241.195                    22355251.629
 118630930.296 7  92439822.06945  22574684.336                    22574690.715
 119236102.977 7  92911340.48844  22689879.039                    22689887.414
 126994397.155 6  98956538.66143  24166181.867                    24166191.027
 11  8 27  2 48  0.0000000  0 10G21G12G26G15G05G29G25G02G30G18
 128382818.068 6 100038641.39743  24430441.406                    24430449.246
 122568641.615 7  95508105.683 6  23324036.180                    23324043.355
 114206497.230 7  88992183.36745  21732764.391                    21732772.309
 117454588.605 7  91522982.374 7  22350810.648                    22350818.336
 113482927.178 8  88428363.729 7  21595053.023                    21595060.527
 110245933.526 7  85905986.676 7  20979099.453                    20979106.629
 117536562.007 7  91586964.888 7  22366455.484                    22366466.230
 118678490.188 7  92476881.75145  22583734.953                    22583740.840
 119298882.865 7  92960259.90145  22701825.555                    22701834.262
 126911390.917 6  98891858.69543  24150385.180                    24150395.176
 11  8 27  2 48 30.0000000  0 10G21G12G26G15G05G29G25G02G30G18
 128325800.494 6  99994212.23443  24419590.938                    24419598.816
 122660946.815 7  95580031.772 6  23341600.977                    23341608.730
 114147450.032 7  88946172.61145  21721527.867                    21721536.141
 117366874.505 7  91454633.789 7  22334119.008                    22334126.949
 113556198.759 8  88485458.483 7  21608995.828                    21609003.500
 110187753.875 8  85860651.932 7  20968028.172                    20968036.023
 117595848.640 7  91633162.251 7  22377737.547                    22377748.320
 118726160.714 7  92514027.62445  22592806.273                    22592812.543
 119361987.178 7  93009432.11044  22713833.773                    22713842.383
 126828588.512 6  98827337.55943  24134628.828                    24134637.922
 11  8 27  2 49  0.0000000  0 10G21G12G26G15G05G29G25G02G30G18
 128268746.627 6  99949754.78143  24408733.242                    24408741.469
 122753324.466 7  95652014.337 6  23359180.016                    23359187.996
 114088906.452 7  88900554.28445  21710387.133                    21710395.598
 117279395.307 7  91386468.231 6  22317472.367                    22317480.027
 113629707.274 8  88542737.857 7  21622984.094                    21622991.320
 110129917.051 8  85815584.328 7  20957021.906                    20957029.516
 117655485.594 7  91679632.605 7  22389086.070                    22389096.668
 118773942.042 7  92551259.83645  22601898.859                    22601905.129
 119425412.459 7  93058854.42045  22725903.391                    22725912.098
 126745990.817 7  98762975.91843  24118910.383                    24118920.102
 11  8 27  2 49 30.0000000  0 10G21G12G26G15G05G29G25G02G30G18
 128211656.080 6  99905268.74543  24397869.531                    24397877.875
 122845772.047 7  95724051.401 6  23376771.953                    23376780.426
 114030869.792 7  88855330.96345  21699343.172                    21699351.477
 117192154.171 7  91318488.185 7  22300870.430                    22300879.199
 113703450.755 8  88600200.326 7  21637017.156                    21637024.602
 110072425.963 8  85770786.122 7  20946081.891                    20946089.598
 117715470.374 7  91726373.993 7  22400500.328                    22400511.211
 118821835.001 7  92588579.02645  22611012.703                    22611018.758
 119489155.899 7  93108524.62244  22738032.883                    22738042.078
 126663599.032 6  98698774.65743  24103231.664                    24103241.383
 11  8 27  2 50  0.0000000  0 10G21G12G26G15G05G29G25G02G30G18
 128154528.480 6  99860753.82643  24386998.609                    24387006.438
 122938286.640 7  95796140.653 6  23394377.164                    23394385.301
 113973343.300 7  88810505.17745  21688396.578                    21688404.441
 117105154.432 7  91250696.248 7  22284315.164                    22284323.293
 113777426.437 8  88657843.720 7  21651094.328                    21651101.480
 110015282.686 8  85726258.939 7  20935207.641                    20935215.309
 117775800.012 7  91773384.092 7  22411981.227                    22411992.059
 118869839.882 7  92625985.43845  22620147.313                    22620153.867
 119553214.315 7  93158440.28544  22750222.844                    22750232.121
 126581414.030 6  98634734.55943  24087593.008                    24087601.328
 11  8 27  2 50 30.0000000  0 10G21G12G26G15G05G29G25G02G30G18
 128097363.639 6  99816209.89943  24376120.281                    24376128.082
 123030865.340 6  95868279.885 6  23411993.789                    23412002.309
 113916330.025 7  88766079.29445  21677546.984                    21677554.922
 117018399.105 7  91183094.752 7  22267806.414                    22267814.199
 113851632.726 8  88715666.826 7  21665215.250                    21665222.598
 109958490.150 8  85682005.067 7  20924400.188                    20924407.840
 117836472.020 7  91820660.984 7  22423526.586                    22423537.977
 118917957.363 7  92663479.57445  22629303.891                    22629309.469
 119617585.125 7  93208599.34445  22762472.578                    22762481.824
 126499437.162 6  98570856.64043  24071992.773                    24072001.902
 11  8 27  2 51  0.0000000  0 10G21G12G26G15G05G29G25G02G30G18
 128040160.713 6  99771636.27243  24365235.148                    24365243.086
 123123504.416 7  95940466.128 6  23429622.328                    23429631.367
 113859832.787 7  88722055.52645  21666796.094                    21666804.137
 116931890.943 7  91115685.854 7  22251344.461                    22251352.328
 113926066.194 8  88773666.940 7  21679379.078                    21679386.602
 109902049.846 8  85638025.652 7  20913660.055                    20913667.715
 117897482.788 7  91868201.844 7  22435136.945                    22435147.121
 118966187.791 7  92701061.74645  22638481.773                    22638487.891
 119682264.417 7  93258998.79145  22774780.758                    22774789.859
 126417668.996 6  98507141.33143  24056432.625                    24056441.965
 11  8 27  2 51 30.0000000  0 10G21G12G26G15G05G29G25G02G30G18
 127982919.617 6  99727032.91243  24354342.031                    24354350.621
 123216201.700 6  96012697.754 6  23447262.875                    23447270.270
 113803854.318 7  88678435.98545  21656143.414                    21656151.367
 116845633.171 7  91048472.063 7  22234930.148                    22234938.082
 114000724.796 8  88831842.495 7  21693586.477                    21693593.867
 109845964.263 8  85594322.650 7  20902987.328                    20902994.668
 117958829.674 7  91916004.616 7  22446810.492                    22446821.180
 119014531.269 7  92738731.98345  22647681.398                    22647687.453
 119747249.297 7  93309636.35844  22787147.086                    22787155.199
 126336110.623 7  98443589.52143  24040912.703                    24040921.801
 11  8 27  2 52  0.0000000  0 10G21G12G26G15G05G29G25G02G30G18
 127925640.037 6  99682399.58343  24343441.555                    24343450.410
 123308953.913 6  96084972.174 6  23464913.086                    23464921.238
 113748398.112 7  88635223.41145  21645590.688                    21645598.871
 116759629.439 7  90981456.226 7  22218564.117                    22218571.906
 114075606.153 8  88890191.608 7  21707835.781                    21707843.270
 109790236.245 8  85550898.260 7  20892383.023                    20892390.168
 118020510.058 7  91964067.239 7  22458547.922                    22458558.715
 119062989.005 7  92776491.26744  22656902.664                    22656908.488
 119812537.000 7  93360509.89945  22799570.711                    22799579.055
 126254763.179 7  98380202.05243  24025432.609                    24025441.375
 11  8 27  2 52 30.0000000  0 10G21G12G26G15G05G29G25G02G30G18
 127868321.286 6  99637735.72243  24332534.500                    24332542.520
 123401757.909 6  96157286.945 6  23482573.219                    23482580.965
 113693466.907 8  88592419.92545  21635137.469                    21635145.555
 116673882.232 7  90914640.278 7  22202247.016                    22202254.555
 114150707.813 8  88948712.390 7  21722127.594                    21722134.141
 109734867.687 8  85507753.969 7  20881846.469                    20881853.953
 118082520.705 7  92012387.227 7  22470348.000                    22470358.973
 119111561.222 7  92814339.73445  22666145.906                    22666151.637
 119878124.086 7  93411616.72044  22812051.289                    22812059.832
 126173627.368 6  98316979.46143  24009992.484                    24010001.137
 11  8 27  2 53  0.0000000  0 10G21G12G26G15G05G29G25G02G30G18
 127810963.365 6  99593041.32743  24321620.094                    24321627.859
 123494610.701 7  96229639.745 6  23500242.477                    23500250.891
 113639063.608 7  88550027.79445  21624785.023                    21624792.570
 116588394.479 7  90848026.488 7  22185978.820                    22185986.633
 114226027.106 8  89007402.772 7  21736459.867                    21736467.266
 109679860.937 8  85464891.609 7  20871378.836                    20871386.094
 118144858.553 7  92060962.177 7  22482210.609                    22482221.207
 119160248.000 7  92852277.49545  22675410.273                    22675416.504
 119944007.231 7  93462954.25044  22824588.414                    22824596.934
 126092704.415 6  98253922.77243  23994593.180                    23994601.875
 11  8 27  2 53 30.0000000  0 10G21G12G26G15G05G29G25G02G30G18
 127753565.860 6  99548316.09643  24310697.297                    24310705.664
 123587509.374 7  96302028.291 6  23517920.734                    23517928.977
 113585190.937 7  88508049.13845  21614532.797                    21614540.531
 116503169.601 7  90781617.549 7  22169760.906                    22169768.938
 114301561.888 8  89066261.048 7  21750833.672                    21750840.941
 109625217.966 8  85422312.711 7  20860980.656                    20860988.031
 118207520.927 7  92109789.997 7  22494135.094                    22494145.605
 119209049.978 7  92890305.00345  22684696.852                    22684703.645
 120010183.669 7  93514520.29144  22837181.227                    22837190.445
 126011994.687 6  98191032.20943  23979234.203                    23979243.109
 11  8 27  2 54  0.0000000  0 10G21G12G26G15G05G29G25G02G30G18
 127696128.766 6  99503560.01943  24299767.523                    24299775.500
 123680451.468 7  96374450.671 6  23535606.586                    23535614.715
 113531852.827 8  88466487.02745  21604383.078                    21604391.430
 116418211.170 7  90715416.237 7  22153594.047                    22153601.969
 114377310.226 8  89125285.741 7  21765248.023                    21765255.449
 109570942.220 8  85380019.959 7  20850652.117                    20850659.703
 118270505.296 7  92158868.734 7  22506120.508                    22506130.934
 119257968.281 7  92928423.14945  22694005.555                    22694012.340
 120076650.689 7  93566312.77244  22849829.461                    22849838.410
 125931499.766 6  98128309.07343  23963917.164                    23963925.410
 11  8 27  2 54 30.0000000  0 10G21G12G26G15G05G29G25G02G30G18
 127638651.277 6  99458772.45343  24288829.422                    24288837.516
 123773433.716 7  96446904.313 6  23553300.117                    23553308.832
 113479051.417 8  88425343.10745  21594335.617                    21594343.086
 116333521.659 7  90649424.453 7  22137478.500                    22137486.109
 114453269.656 8  89184474.909 7  21779702.656                    21779710.070
 109517035.400 8  85338014.686 7  20840394.344                    20840401.891
 118333808.281 7  92208195.740 7  22518166.742                    22518177.578
 119307002.865 7  92966631.91745  22703337.063                    22703342.750
 120143404.648 7  93618328.84244  22862532.625                    22862541.242
 125851220.399 6  98065753.86243  23948639.914                    23948648.859
 11  8 27  2 55  0.0000000  0 10G21G12G26G15G05G29G25G02G30G18
 127581133.325 6  99413953.36143  24277884.281                    24277892.395
 123866452.635 7  96519386.556 6  23571001.242                    23571010.445
 113426789.637 7  88384619.68945  21584390.406                    21584398.191
 116249104.088 7  90583644.589 7  22121414.391                    22121422.168
 114529436.965 8  89243826.066 7  21794197.266                    21794204.402
 109463499.423 8  85296298.380 7  20830206.594                    20830214.027
 118397426.745 7  92257768.564 7  22530272.711                    22530283.680
 119356154.091 7  93004931.58345  22712690.148                    22712696.105
 120210442.220 7  93670565.91944  22875289.023                    22875298.168
 125771157.397 6  98003367.24143  23933405.336                    23933413.137
 11  8 27  2 55 30.0000000  0 10G21G12G26G15G05G29G25G02G30G18
 127523574.470 6  99369102.40343  24266931.164                    24266939.102
 123959506.412 7  96591895.951 6  23588709.250                    23588717.859
 113375070.797 7  88344319.34245  21574548.344                    21574555.977
 116164962.295 7  90518079.609 7  22105402.234                    22105409.977
 114605810.722 8  89303338.098 7  21808730.695                    21808737.813
 109410337.634 8  85254873.642 7  20820090.508                    20820097.898
 118461358.463 7  92307585.486 7  22542438.375                    22542449.449
 119405423.117 7  93043323.04245  22722066.125                    22722071.625
 120277760.994 7  93723022.09544  22888100.164                    22888108.621
 125691312.087 6  97941150.25443  23918210.414                    23918219.016
 11  8 27  2 56  0.0000000  0 10G21G12G26G15G05G29G25G02G30G18
 127465974.358 7  99324219.30843  24255969.570                    24255978.039
 124052591.291 6  96664429.578 6  23606422.688                    23606430.957
 113323897.136 7  88304443.80145  21564810.445                    21564818.340
 116081098.486 7  90452731.252 7  22089443.789                    22089451.531
 114682387.859 8  89363008.601 7  21823302.953                    21823309.773
 109357551.339 8  85213741.501 7  20810045.438                    20810053.008
 118525599.779 7  92357643.651 7  22554662.914                    22554674.125
 119454809.880 7  93081806.25445  22731463.602                    22731469.531
 120345357.139 7  93775694.40744  22900963.156                    22900971.711
 125611684.726 6  97879103.09743  23903057.344                    23903066.215
 11  8 27  2 56 30.0000000  0 10G21G12G26G15G05G29G25G02G30G18
 127408332.694 6  99279303.81943  24245001.602                    24245009.164
 124145704.910 6  96736985.609 6  23624140.977                    23624150.109
 113273272.013 8  88264995.69845  21555176.469                    21555184.742
 115997516.488 7  90387602.480 7  22073538.508                    22073546.547
 114759166.671 8  89422836.246 7  21837913.648                    21837920.625
 109305143.647 8  85172904.373 7  20800072.148                    20800079.730
 118590148.316 7  92407941.202 7  22566946.492                    22566957.137
 119504315.399 7  93120381.98845  22740884.508                    22740890.102
 120413228.129 7  93828580.89545  22913878.484                    22913887.832
 125532276.885 6  97817227.01343  23887946.289                    23887955.109
 11  8 27  2 57  0.0000000  0 10G21G12G26G15G05G29G25G02G30G18
 127350649.518 7  99234355.96743  24234024.484                    24234032.086
 124238844.326 6  96809561.742 6  23641865.563                    23641873.113
 113223198.520 8  88225977.44545  21545647.852                    21545655.941
 115914219.191 7  90322695.550 7  22057686.930                    22057695.117
 114836144.732 8  89482819.165 7  21852561.719                    21852568.777
 109253116.874 8  85132364.069 7  20790172.172                    20790179.555
 118655001.046 7  92458475.789 7  22579287.648                    22579298.172
 119553939.994 7  93159050.52044  22750327.648                    22750333.238
 120481370.705 7  93881679.00144  22926845.234                    22926854.520
 125453089.140 6  97755522.43443  23872877.445                    23872886.539
 11  8 27  2 57 30.0000000  0 10G21G12G26G15G05G29G25G02G30G18
 127292923.878 6  99189375.00843  24223039.164                    24223046.953
 124332005.694 7  96882154.983 6  23659593.070                    23659601.445
 113173678.373 8  88187390.35645  21536224.648                    21536232.664
 115831209.096 7  90258012.399 7  22041891.211                    22041898.496
 114913319.339 8  89542955.229 7  21867247.336                    21867254.555
 109201472.391 8  85092121.652 7  20780344.813                    20780351.910
 118720154.434 7  92509244.665 7  22591685.789                    22591696.203
 119603683.920 7  93197812.04244  22759792.906                    22759799.250
 120549781.180 7  93934985.85944  22939863.445                    22939872.770
 125374121.988 6  97693989.71943  23857850.586                    23857859.691
 11  8 27  2 58  0.0000000  0 10G21G12G26G15G05G29G25G02G30G18
 127235155.896 7  99144361.07943  24212046.672                    24212054.383
 124425186.426 6  96954763.310 6  23677324.914                    23677333.520
 113124714.860 8  88149237.01245  21526906.984                    21526915.313
 115748489.438 7  90193555.570 7  22026150.180                    22026157.777
 114990687.955 8  89603242.461 7  21881970.367                    21881977.566
 109150212.582 8  85052178.986 7  20770589.820                    20770597.359
 118785605.596 7  92560245.570 7  22604141.148                    22604151.152
 119653547.548 7  93236666.82944  22769281.945                    22769288.125
 120618456.570 7  93988499.15644  22952931.805                    22952940.473
 125295376.691 6  97632629.87943  23842865.648                    23842874.512
 11  8 27  2 58 30.0000000  0 10G21G12G26G15G05G29G25G02G30G18
 127177344.767 7  99099313.52744  24201045.164                    24201053.348
 124518383.455 7  97027384.337 6  23695060.125                    23695068.012
 113076310.331 8  88111519.23845  21517696.117                    21517704.438
 115666063.246 7  90129327.411 7  22010464.508                    22010472.359
 115068248.327 8  89663679.122 7  21896729.555                    21896736.777
 109099339.454 8  85012537.627 7  20760908.766                    20760916.273
 118851351.435 7  92611476.095 7  22616651.914                    22616662.141
 119703531.454 7  93275615.33444  22778793.555                    22778799.902
 120687393.512 7  94042216.24144  22966049.789                    22966058.555
 125216853.786 6  97571443.30743  23827922.938                    23827931.660
 11  8 27  2 59  0.0000000  0 10G21G12G26G15G05G29G25G02G30G18
 127119490.907 7  99054232.70444  24190036.258                    24190044.406
 124611594.639 7  97100016.406 6  23712797.398                    23712805.758
 113028468.094 8  88074239.62245  21508591.820                    21508600.051
 115583934.080 7  90065330.715 7  21994835.695                    21994843.922
 115145998.668 8  89724263.814 7  21911524.711                    21911532.016
 109048856.408 8  84973200.222 7  20751302.484                    20751309.527
 118917389.542 7  92662934.376 7  22629219.141                    22629229.250
 119753636.454 7  93314658.20345  22788328.438                    22788334.355
 120756589.459 7  94096135.17444  22979218.234                    22979226.406
 125138554.629 6  97510431.07543  23813023.516                    23813031.898
 11  8 27  2 59 30.0000000  0 10G21G12G26G15G05G29G25G02G30G18
 127061593.846 7  99009118.19543  24179018.445                    24179026.309
 124704816.766 7  97172656.983 6  23730536.789                    23730545.613
 112981191.058 8  88037400.41845  21499595.469                    21499603.434
 115502104.830 7  90001567.715 7  21979264.430                    21979272.398
 115223936.274 8  89784994.415 7  21926355.727                    21926363.629
 108998765.208 8  84934168.155 7  20741770.422                    20741777.563
 118983716.658 7  92714617.846 7  22641840.383                    22641851.035
 119803863.072 7  93353795.83144  22797885.969                    22797892.230
 120826040.979 7  94150253.23944  22992434.078                    22992442.496
 125060479.883 7  97449593.72043  23798166.820                    23798174.984
 11  8 27  3  0  0.0000000  0 10G21G12G26G15G05G29G25G02G30G18
 127003653.218 7  98963969.72243  24167992.547                    24168000.754
 124798046.856 7  97245303.771 6  23748278.117                    23748286.859
 112934481.324 8  88001003.25045  21490706.563                    21490714.375
 115420578.185 7  89938040.526 7  21963750.156                    21963758.137
 115302058.793 8  89845869.109 7  21941221.500                    21941228.984
 108949068.091 8  84895443.163 7  20732313.195                    20732320.289
 119050329.687 7  92766524.106 7  22654516.031                    22654527.059
 119854211.528 7  93393028.40844  22807467.328                    22807473.277
 120895744.794 7  94204567.89944  23005698.227                    23005706.727
 124982630.388 7  97388931.87244  23783352.492                    23783360.898
 11  8 27  3  0 30.0000000  0 10G21G12G26G15G05G29G25G02G30G18
 126945668.845 7  98918787.17743  24156958.766                    24156966.422
 124891282.117 7  97317954.572 6  23766019.914                    23766028.910
 112888341.732 8  87965050.36245  21481926.672                    21481934.676
 115339357.271 7  89874751.544 7  21948294.453                    21948302.473
 115380364.252 8  89906886.352 7  21956122.945                    21956130.527
 108899767.364 8  84857027.054 7  20722931.531                    20722939.094
 119117225.673 7  92818650.829 7  22667246.031                    22667256.637
 119904682.446 7  93432356.40444  22817071.492                    22817077.559
 120965697.840 7  94259076.75044  23019010.164                    23019018.473
 124905006.658 6  97328445.98443  23768580.188                    23768588.840
 11  8 27  3  1  0.0000000  0 10G21G12G26G15G05G29G25G02G30G18
 126887640.382 7  98873570.23243  24145916.492                    24145923.789
 124984519.651 7  97390607.150 6  23783762.930                    23783771.418
 112842775.117 8  87929543.94845  21473255.711                    21473263.254
 115258445.392 7  89811703.374 7  21932897.383                    21932904.938
 115458850.150 8  89968044.196 7  21971058.383                    21971065.727
 108850865.394 8  84818921.661 7  20713626.078                    20713633.535
 119184401.745 7  92870995.821 7  22680029.234                    22680039.871
 119955276.579 7  93471780.41144  22826699.195                    22826704.836
 121035897.083 7  94313777.45544  23032368.578                    23032377.059
 124827609.908 6  97268136.92343  23753852.648                    23753861.148
 11  8 27  3  1 30.0000000  0 10G21G12G26G15G05G29G25G02G30G18
 126829567.650 7  98828318.83343  24134865.281                    24134872.813
 125077756.622 7  97463259.273 6  23801505.297                    23801513.891
 112797783.773 8  87894485.79945  21464693.813                    21464701.820
 115177845.366 7  89748898.193 7  21917559.750                    21917567.063
 115537514.005 8  90029340.709 7  21986027.555                    21986035.344
 108802363.914 8  84781128.332 7  20704396.195                    20704403.527
 119251854.600 7  92923556.484 7  22692864.867                    22692876.012
 120005994.144 7  93511300.58845  22836350.227                    22836356.352
 121106339.053 7  94368667.29245  23045772.805                    23045781.773
 124750440.317 7  97208004.89143  23739167.867                    23739176.109
 11  8 27  3  2  0.0000000  0 10G21G12G26G15G05G29G25G02G30G18
 126771450.173 7  98783032.55143  24123805.742                    24123813.410
 125170990.120 7  97535908.704 6  23819246.555                    23819255.652
 112753370.463 8  87859878.07245  21456241.781                    21456250.219
 115097560.330 7  89686338.460 7  21902281.961                    21902289.703
 115616353.826 8  90090774.338 7  22001030.477                    22001038.113
 108754265.558 8  84743649.121 8  20695243.508                    20695250.801
 119319581.362 7  92976330.586 7  22705752.891                    22705763.684
 120056835.721 7  93550917.41244  22846025.242                    22846030.906
 121177020.766 7  94423743.94044  23059223.289                    23059232.367
 124673499.360 6  97148050.98043  23724526.547                    23724534.258
 11  8 27  3  2 30.0000000  0 10G21G12G26G15G05G29G25G02G30G18
 126713287.815 7  98737711.30043  24112737.977                    24112745.219
 125264217.012 7  97608552.988 6  23836987.977                    23836996.098
 112709537.594 8  87825722.62845  21447901.219                    21447909.586
 115017592.965 7  89624026.276 7  21887064.750                    21887072.047
 115695367.086 7  90152343.115 7  22016066.258                    22016073.055
 108706572.249 8  84706485.535 7  20686167.617                    20686174.691
 119387578.849 7  93029315.644 7  22718692.383                    22718703.340
 120107801.892 7  93590631.30544  22855723.914                    22855729.980
 121247938.862 7  94479004.77244  23072718.469                    23072727.059
 124596787.417 7  97088275.54643  23709928.203                    23709936.539
 11  8 27  3  3  0.0000000  0 10G21G12G26G15G05G29G25G02G30G18
 126655080.286 7  98692354.89043  24101661.109                    24101668.543
 125357434.914 7  97681190.252 6  23854725.602                    23854734.953
 112666287.923 7  87792021.61545  21439670.633                    21439679.023
 114937946.645 7  89561964.257 7  21871908.328                    21871916.055
 115774551.440 8  90214045.215 7  22031134.422                    22031141.863
 108659286.475 8  84669639.513 7  20677169.539                    20677176.555
 119455844.234 7  93082509.464 7  22731682.703                    22731693.715
 120158893.375 7  93630442.85644  22865445.695                    22865452.141
 121319090.317 6  94534447.45544  23086257.883                    23086267.617
 124520305.417 7  97028679.29643  23695374.133                    23695382.125
 11  8 27  3  3 30.0000000  0 10G21G12G26G15G05G29G25G02G30G18
 126596827.665 6  98646963.29943  24090575.961                    24090583.887
 125450640.817 7  97753818.182 6  23872462.813                    23872471.762
 112623623.925 8  87758776.97745  21431552.055                    21431559.902
 114858624.421 7  89500154.793 7  21856813.719                    21856821.605
 115853904.837 7  90275879.034 7  22046234.609                    22046242.211
 108612410.413 8  84633112.737 8  20668249.273                    20668256.508
 119524374.454 7  93135909.634 7  22744723.844                    22744734.379
 120210110.369 7  93670352.20344  22875192.227                    22875198.367
 121390472.006 6  94590069.51844  23099841.242                    23099850.328
 124444054.374 6  96969262.98543  23680863.805                    23680872.137
 11  8 27  3  4  0.0000000  0 10G21G12G26G15G05G29G25G02G30G18
 126538529.654 7  98601536.35944  24079482.836                    24079489.820
 125543831.947 7  97826434.607 6  23890196.359                    23890205.090
 112581548.075 8  87725990.64845  21423545.445                    21423553.141
 114779629.030 7  89438600.001 7  21841781.297                    21841789.363
 115933425.320 8  90337843.045 7  22061366.867                    22061374.250
 108565946.429 8  84596907.063 8  20659407.445                    20659414.906
 119593166.440 7  93189513.784 7  22757814.758                    22757824.926
 120261453.483 7  93710359.82444  22884962.258                    22884968.590
 121462080.696 7  94645868.49344  23113468.180                    23113477.672
 124368034.691 6  96910026.94243  23666397.031                    23666405.266
 11  8 27  3  4 30.0000000  0 10G21G12G26G15G05G29G25G02G30G18
 126480185.851 6  98556073.73043  24068379.117                    24068387.016
 125637005.090 7  97899037.000 6  23907926.875                    23907935.656
 112540062.490 8  87693664.26045  21415650.961                    21415658.879
 114700963.149 7  89377301.957 7  21826811.711                    21826819.285
 116013109.966 8  90399934.983 7  22076530.391                    22076538.105
 108519895.914 8  84561023.568 8  20650644.039                    20650651.344
 119662216.746 7  93243319.215 7  22770954.023                    22770964.828
 120312923.015 7  93750465.93344  22894757.367                    22894763.008
 121533912.750 7  94701841.52144  23127137.039                    23127146.020
 124292246.659 6  96850971.44143  23651975.219                    23651983.258
 11  8 27  3  5  0.0000000  0 10G21G12G26G15G05G29G25G02G30G18
 126421796.186 6  98510575.37143  24057268.578                    24057276.031
 125730157.707 7  97971623.417 6  23925653.133                    23925662.031
 112499170.058 8  87661800.06045  21407869.438                    21407877.234
 114622630.402 7  89316263.496 7  21811905.539                    21811913.566
 116092956.875 8  90462153.349 7  22091725.102                    22091732.453
 108474261.713 8  84525464.468 8  20641960.500                    20641967.336
 119731522.780 7  93297323.908 7  22784142.836                    22784154.313
 120364519.717 7  93790671.14944  22904575.359                    22904581.547
 121605965.471 7  94757986.48244  23140849.023                    23140857.520
 124216691.823 7  96792097.62743  23637597.320                    23637605.945
 11  8 27  3  5 30.0000000  0 10G21G12G26G15G05G29G25G02G30G18
 126363360.559 7  98465041.20143  24046148.023                    24046156.004
 125823286.920 7  98044191.609 6  23943375.117                    23943383.836
 112458873.118 8  87630399.88245  21400200.938                    21400208.891
 114544633.460 7  89255486.702 7  21797063.273                    21797070.676
 116172963.559 8  90524496.227 7  22106949.492                    22106956.855
 108429045.890 8  84490231.384 8  20633356.219                    20633363.566
 119801081.397 7  93351525.416 7  22797379.734                    22797390.383
 120416244.128 7  93830975.87245  22914418.531                    22914424.516
 121678235.589 7  94814300.87144  23154601.828                    23154609.953
 124141370.607 7  96733405.86843  23623264.547                    23623272.844
 11  8 27  3  6  0.0000000  0 10G21G12G26G15G05G29G25G02G30G18
 126304878.657 7  98419470.96843  24035019.188                    24035027.223
 125916390.139 6  98116739.520 6  23961092.219                    23961100.746
 112419174.074 8  87599465.58945  21392646.813                    21392654.383
 114466975.459 7  89194974.015 7  21782285.289                    21782292.754
 116253127.962 8  90586961.999 7  22122204.539                    22122212.027
 108384250.665 8  84455326.036 8  20624831.664                    20624839.184
 119870889.584 7  93405921.391 7  22810663.797                    22810674.191
 120468096.870 7  93871380.59945  22924285.930                    22924291.984
 121750719.984 7  94870782.22244  23168395.148                    23168402.992
 124066283.564 7  96674896.57143  23608975.609                    23608983.633
 11  8 27  3  6 30.0000000  0 10G21G12G26G15G05G29G25G02G30G18
 126246349.862 6  98373864.20644  24023882.016                    24023889.789
 126009464.138 6  98189264.654 6  23978803.016                    23978812.316
 112380075.131 8  87568998.92245  21385206.203                    21385214.258
 114389659.017 7  89134727.496 7  21767572.297                    21767580.188
 116333447.946 8  90649549.001 7  22137488.680                    22137496.031
 108339877.900 8  84420749.876 8  20616388.039                    20616394.891
 119940944.046 8  93460509.262 7  22823994.578                    22824005.438
 120520078.225 7  93911885.53745  22934177.836                    22934183.539
 121823415.173 7  94927427.84244  23182228.547                    23182237.105
 123991431.620 7  96616570.47843  23594731.688                    23594740.172
 11  8 27  3  7  0.0000000  0 10G21G12G26G15G05G29G25G02G30G18
 126187774.369 7  98328221.06443  24012735.359                    24012742.566
 126102506.556 6  98261765.210 6  23996508.445                    23996517.703
 112341579.006 8  87539001.97645  21377880.578                    21377888.668
 114312687.490 7  89074749.726 7  21752925.273                    21752933.109
 116413921.414 7  90712255.598 7  22152802.047                    22152809.906
 108295930.093 8  84386504.854 8  20608024.867                    20608031.770
 120011241.990 8  93515286.859 7  22837371.633                    22837382.695
 120572188.786 7  93952491.15445  22944093.766                    22944100.160
 121896318.300 7  94984235.47444  23196101.383                    23196109.879
 123916815.686 7  96558428.28244  23580532.930                    23580541.156
 11  8 27  3  7 30.0000000  0 10G21G12G26G15G05G29G25G02G30G18
 126129152.083 7  98282541.44944  24001579.672                    24001587.285
 126195514.441 6  98334238.821 6  24014207.180                    24014217.402
 112303687.289 8  87509476.00245  21370670.336                    21370678.219
 114236063.473 7  89015042.736 7  21738344.094                    21738351.961
 116494545.874 7  90775079.853 7  22168144.813                    22168152.645
 108252409.011 8  84352592.343 7  20599742.930                    20599750.188
 120081779.980 7  93570251.511 7  22850794.680                    22850805.430
 120624428.912 7  93993197.73344  22954034.234                    22954041.109
 121969425.818 7  95041202.37344  23210013.172                    23210021.816
 123842435.810 7  96500470.01944  23566379.258                    23566386.980
 11  8 27  3  8  0.0000000  0 10G21G12G26G15G05G29G25G02G30G18
 126070482.615 7  98236825.07944  23990415.336                    23990422.625
 126288484.828 6  98406683.242 6  24031899.195                    24031907.926
 112266402.735 8  87480423.13345  21363575.289                    21363583.117
 114159789.839 8  88955608.771 7  21723829.305                    21723837.465
 116575319.049 7  90838019.989 7  22183515.734                    22183523.004
 108209316.869 8  84319014.068 8  20591543.086                    20591550.207
 120152555.192 7  93625401.020 7  22864262.852                    22864273.691
 120676799.261 7  94034005.78244  22964000.164                    22964006.629
 122042734.773 7  95098326.23544  23223963.203                    23223972.156
 123768292.999 7  96442696.50443  23552270.039                    23552278.035
 11  8 27  3  8 30.0000000  0 10G21G12G26G15G05G29G25G02G30G18
 126011765.889 7  98191071.85543  23979241.500                    23979249.621
 126381414.971 6  98479096.290 6  24049583.969                    24049592.992
 112229727.747 8  87451845.25545  21356596.359                    21356604.008
 114083869.850 8  88896450.387 7  21709382.820                    21709389.949
 116656239.167 7  90901074.625 7  22198914.250                    22198921.660
 108166656.230 8  84285772.039 8  20583425.063                    20583432.098
 120223564.726 7  93680733.100 7  22877775.406                    22877785.609
 120729300.705 7  94074915.97244  22973990.766                    22973997.566
 122116242.126 6  95155604.66344  23237951.375                    23237960.012
 123694388.055 7  96385108.32443  23538206.336                    23538214.512
 11  8 27  3  9  0.0000000  0 10G21G12G26G15G05G29G25G02G30G18
 125953002.057 7  98145281.94144  23968059.164                    23968067.016
 126474302.239 6  98551475.943 6  24067259.039                    24067267.984
 112193664.345 8  87423743.94645  21349733.250                    21349741.324
 114008306.374 8  88837569.806 7  21695003.125                    21695010.930
 116737303.545 7  90964241.673 7  22214340.063                    22214347.359
 108124428.826 8  84252867.595 8  20575389.219                    20575396.488
 120294805.249 7  93736245.170 7  22891331.719                    22891342.598
 120781933.327 7  94115928.38344  22984006.906                    22984013.488
 122189944.401 7  95213034.99344  23251976.508                    23251985.570
 123620721.590 7  96327705.96543  23524187.945                    23524196.059
 11  8 27  3  9 30.0000000  0 10G21G12G26G15G05G29G25G02G30G18
 125894190.650 7  98099454.94044  23956868.375                    23956875.547
 126567143.927 7  98623820.051 6  24084926.969                    24084935.715
 112158214.583 8  87396120.79645  21342987.555                    21342995.563
 113933102.444 7  88778969.377 7  21680692.672                    21680700.117
 116818510.109 7  91027519.516 7  22229793.078                    22229800.691
 108082636.462 8  84220302.132 8  20567436.578                    20567443.809
 120366273.602 7  93791934.767 6  22904932.086                    22904942.441
 120834697.644 7  94157043.44344  22994047.648                    22994053.637
 122263838.388 6  95270614.70144  23266037.547                    23266046.641
 123547293.974 6  96270489.75243  23510214.969                    23510222.977
 11  8 27  3 10  0.0000000  0 10G21G12G26G15G05G29G25G02G30G18
 125835331.553 7  98053590.78244  23945667.680                    23945675.434
 126659937.091 7  98696126.364 6  24102584.547                    24102593.789
 112123380.804 8  87368977.61945  21336359.078                    21336366.777
 113858260.428 8  88720650.961 7  21666450.203                    21666457.789
 116899856.646 7  91090906.426 7  22245272.570                    22245279.805
 108041281.040 8  84188077.154 8  20559566.859                    20559573.891
 120437966.675 7  93847799.504 7  22918574.922                    22918585.141
 120887593.953 7  94198261.32744  23004113.523                    23004120.055
 122337920.800 7  95328341.23044  23280135.242                    23280144.008
 123474105.769 6  96213460.06243  23496288.078                    23496295.613
 11  8 27  3 10 30.0000000  0 10G21G12G26G15G05G29G25G02G30G18
 125776424.531 7  98007689.29644  23934457.398                    23934465.230
 126752679.428 6  98768393.066 6  24120233.297                    24120242.277
 112089165.499 8  87342316.37045  21329848.133                    21329855.680
 113783783.600 8  88662617.103 7  21652277.805                    21652285.605
 116981341.270 7  91154400.935 7  22260778.852                    22260786.375
 108000365.418 8  84156194.876 8  20551780.680                    20551788.121
 120509881.630 7  93903837.130 6  22932260.133                    22932270.023
 120940623.344 7  94239582.93144  23014204.227                    23014210.027
 122412188.731 6  95386212.32544  23294268.305                    23294276.855
 123401157.942 7  96156617.68944  23482406.430                    23482413.699
 11  8 27  3 11  0.0000000  0 10G21G12G26G15G05G29G25G02G30G18
 125717469.767 7  97961750.59444  23923238.898                    23923246.473
 126845367.713 7  98840617.640 6  24137871.164                    24137880.043
 112055570.121 7  87316138.20045  21323454.539                    21323462.520
 113709674.972 8  88604870.159 7  21638175.516                    21638182.883
 117062961.419 7  91218001.055 7  22276310.359                    22276317.695
 107959891.503 8  84124656.780 8  20544078.781                    20544085.707
 120582015.220 8  93960045.102 7  22945986.781                    22945997.059
 120993786.154 7  94281008.48144  23024321.047                    23024327.445
 122486638.857 7  95444225.39044  23308435.563                    23308443.871
 123328450.970 7  96099962.99843  23468570.516                    23468578.059
 11  8 27  3 11 30.0000000  0 10G21G12G26G15G05G29G25G02G30G18
 125658466.537 7  97915774.13244  23912011.148                    23912018.145
 126937999.085 6  98912797.879 6  24155498.398                    24155507.074
 112022597.245 8  87290445.07945  21317180.258                    21317187.949
 113635936.886 7  88547411.949 7  21624143.219                    21624151.051
 117144715.115 7  91281705.234 7  22291867.648                    22291875.207
 107919860.444 8  84093463.769 8  20536460.867                    20536468.203
 120654364.177 8  94016420.902 7  22959754.336                    22959764.793
 121047082.580 7  94322538.15344  23034463.234                    23034469.125
 122561267.746 7  95502377.77144  23322637.211                    23322645.148
 123255985.524 6  96043496.47644  23454780.773                    23454788.582
 11  8 27  3 12  0.0000000  0 10G21G12G26G15G05G29G25G02G30G18
 125599415.293 7  97869760.25244  23900773.586                    23900781.137
 127030570.866 7  98984931.658 6  24173114.258                    24173123.332
 111990248.684 8  87265238.44445  21311024.680                    21311032.168
 113562572.471 8  88490244.909 7  21610182.727                    21610190.434
 117226600.324 7  91345511.887 7  22307449.844                    22307457.500
 107880275.124 8  84062618.089 8  20528928.438                    20528935.457
 120726925.713 7  94072962.359 7  22973561.586                    22973572.680
 121100513.313 7  94364172.49944  23044630.758                    23044636.371
 122636072.594 7  95560667.26844  23336871.539                    23336880.547
 123183762.005 7  95987218.45044  23441037.242                    23441044.832
 11  8 27  3 12 30.0000000  0 10G21G12G26G15G05G29G25G02G30G18
 125540315.870 7  97823708.83444  23889527.695                    23889534.680
 127123080.724 6  99057017.236 6  24190718.305                    24190727.277
 111958526.755 8  87240520.10445  21304987.844                    21304995.852
 113489584.664 8  88433371.337 7  21596293.641                    21596301.031
 117308614.795 7  91409419.261 7  22323056.727                    22323064.730
 107841137.131 8  84032120.968 8  20521480.453                    20521487.531
 120799696.544 7  94129666.875 7  22987409.492                    22987420.969
 121154078.715 7  94405911.77944  23054824.078                    23054830.109
 122711049.938 6  95619091.16644  23351139.914                    23351148.344
 123111781.012 7  95931129.46744  23427339.430                    23427347.578
 11  8 27  3 13  0.0000000  0 10G21G12G26G15G05G29G25G02G30G18
 125481168.229 7  97777619.83144  23878272.352                    23878279.363
 127215525.709 6  99129052.229 6  24208309.719                    24208318.969
 111927433.067 8  87216291.30045  21299070.797                    21299078.707
 113416975.991 8  88376793.187 7  21582476.391                    21582484.289
 117390756.355 7  91473425.676 7  22338687.648                    22338695.047
 107802448.623 8  84001974.103 8  20514118.492                    20514125.906
 120872673.459 7  94186531.993 7  23001296.570                    23001307.637
 121207779.354 7  94447756.42944  23065042.766                    23065048.938
 122786196.544 7  95677646.94544  23365439.469                    23365447.887
 123040043.072 7  95875229.85244  23413688.086                    23413695.969
 11  8 27  3 13 30.0000000  0 10G21G12G26G15G05G29G25G02G30G18
 125421972.453 7  97731493.31944  23867007.102                    23867014.598
 127307903.577 6  99201034.944 6  24225888.922                    24225897.844
 111896970.221 8  87192554.04745  21293274.148                    21293281.465
 113344750.038 8  88320513.263 7  21568732.273                    21568740.133
 117473023.148 7  91537529.673 7  22354342.602                    22354350.047
 107764212.442 8  83972179.700 8  20506842.094                    20506849.438
 120945853.940 7  94243555.721 7  23015222.563                    23015233.754
 121261616.201 7  94489707.23044  23075287.555                    23075293.215
 122861509.712 7  95736332.52144  23379770.672                    23379779.637
 122968549.170 6  95819520.40444  23400082.836                    23400090.770
 11  8 27  3 14  0.0000000  0 10G21G12G26G15G05G29G25G02G30G18
 125362727.502 7  97685328.52044  23855732.992                    23855740.484
 127400211.267 6  99272962.931 6  24243453.625                    24243463.402
 111867139.459 8  87169309.33745  21287597.422                    21287605.211
 113272908.522 8  88264532.908 7  21555061.203                    21555068.930
 117555412.551 7  91601729.205 7  22370021.016                    22370027.762
 107726428.981 8  83942738.069 8  20499652.438                    20499659.531
 121019234.113 7  94300735.048 7  23029186.156                    23029197.242
 121315589.056 7  94531763.98744  23085558.477                    23085564.363
 122936985.563 6  95795144.85844  23394133.703                    23394142.180
 122897299.230 6  95764001.04744  23386524.305                    23386532.988
